     2              OBSERVATION DATA                        RINEX VERSION / TYPE
DAT2RIN 1.01d Dan Johnson 14SEP96 6:27:29 GMT               PGM / RUN BY / DATE
Mojave '96 team Central Washington U                        OBSERVER / AGENCY
16329 TRIMBLE 4000SSI Nav 7.09 Sig 3.03                     REC # / TYPE / VERS
66919 TRIMBLE CHOKE                                         ANT # / TYPE
MOND MONDAY                                                 MARKER NAME
 -2439737.0000 -4645851.0000  3615005.0000                  APPROX POSITION XYZ
        0.0614        0.0000        0.0000                  ANTENNA: DELTA H/E/N
     1     1     0                                          WAVELENGTH FACT L1/2
     4    L1    C1    L2    P2                              # / TYPES OF OBSERV
    30                                                      INTERVAL
                                                            COMMENT
PANGA GPS Data Analysis Center                              COMMENT
Department of Geology                                       COMMENT
Central Washington University                               COMMENT
Ellensburg, WA 98926                                        COMMENT
                                                            COMMENT
http://www.panga.cwu.edu                                    COMMENT
ftp://panga.cwu.edu                                         COMMENT
                                                            COMMENT
  1996     9    13     0    38   30.000000                  TIME OF FIRST OBS
  1996     9    13    13    59    0.000000                  TIME OF LAST OBS
    21                                                      # OF SATELLITES
           1    34    34    34    34                        PRN / # OF OBS
           2   858   858   852   852                        PRN / # OF OBS
           3   369   369   364   364                        PRN / # OF OBS
           4   734   735   729   729                        PRN / # OF OBS
           5   441   441   436   436                        PRN / # OF OBS
           6   128   128   120   120                        PRN / # OF OBS
           7   745   745   742   742                        PRN / # OF OBS
           9   556   556   554   554                        PRN / # OF OBS
          10   511   511   497   497                        PRN / # OF OBS
          14   492   492   492   492                        PRN / # OF OBS
          15   503   503   498   498                        PRN / # OF OBS
          16   560   561   551   551                        PRN / # OF OBS
          18   770   771   769   769                        PRN / # OF OBS
          19   860   860   858   858                        PRN / # OF OBS
          22   515   515   515   515                        PRN / # OF OBS
          24   460   460   458   458                        PRN / # OF OBS
          25   234   234   234   234                        PRN / # OF OBS
          26   458   459   455   455                        PRN / # OF OBS
          27   824   824   822   822                        PRN / # OF OBS
          29   627   627   627   627                        PRN / # OF OBS
          31   508   508   506   506                        PRN / # OF OBS
                                                            END OF HEADER
 96  9 13  0 38 30.0000000  0  6  1 14 15 22 25 29
    167675.48310  24362719.20300    124061.13450  24362723.03540
   -110222.53410  21519861.48400    -85887.45550  21519865.94940
    126451.46310  21316008.99200     98533.20350  21316013.89140
   -157686.66510  23558568.57800   -122872.40050  23558574.43840
    116601.92610  21227073.77300     90858.96050  21227077.33640
    -64606.72410  22024301.14800    -50343.09450  22024304.69940
 96  9 13  0 39  0.0000000  0  6  1 14 15 22 25 29
    256832.42400  24379685.64800    193534.05740  24379690.60540
   -164389.97400  21509553.71900   -128095.83840  21509558.17240
    195099.08300  21329072.24200    152024.84640  21329077.14140
   -236688.62800  23543534.39800   -184432.29740  23543540.18840
    179996.33900  21239137.62500    140257.20740  21239141.17640
    -95351.80800  22018450.23400    -74300.28840  22018454.00840
 96  9 13  0 39 30.0000000  0  6  1 14 15 22 25 29
    347026.88700  24396848.40600    263815.41940  24396854.11340
   -217266.87700  21499491.61700   -169298.61540  21499496.00040
    265319.22300  21342434.84400    206741.82340  21342439.61340
   -314562.76400  23528715.70300   -245113.36740  23528721.73840
    244855.18000  21251479.58600    190796.56140  21251483.07840
   -124903.21100  22012826.96100    -97327.35240  22012830.53540
 96  9 13  0 40  0.0000000  0  6  1 14 15 22 25 29
    438004.25100  24414161.20300    334706.85740  24414166.18440
   -269136.84900  21489621.05500   -209716.76440  21489625.47340
    336841.83500  21356045.07800    262473.71340  21356049.98840
   -391558.01400  23514063.88300   -305109.58440  23514069.47340
    310903.07000  21264048.12500    242262.44840  21264051.54740
   -153530.93300  22007379.33600   -119634.64940  22007382.98040
 96  9 13  0 40 30.0000000  0  6  1 14 15 22 25 29
    529637.74800  24431598.19500    406109.56540  24431604.73440
   -320133.08100  21479916.68800   -249454.08040  21479921.02340
    409535.88000  21369878.21100    319118.41240  21369883.15640
   -467795.28400  23499556.53100   -364515.18540  23499562.50840
    377998.67800  21276816.04700    294544.73740  21276819.35240
   -181365.38200  22002082.69500   -141323.83240  22002086.53940
 96  9 13  0 41  0.0000000  0  6  1 14 15 22 25 29
    621871.81400  24449149.81300    477980.22540  24449154.24240
   -370318.11400  21470366.78100   -288559.29040  21470371.02340
    483333.92000  21383921.74200    376623.36340  21383926.79340
   -543323.47800  23485183.65600   -423368.22740  23485188.73040
    446068.16400  21289769.37500    347585.89140  21289772.85540
   -208469.78500  21996924.79700   -162444.13340  21996928.43040
 96  9 13  0 41 30.0000000  0  6  1 14 15 22 25 29
    714636.07400  24466801.71900    550264.02540  24466807.50840
   -419746.37600  21460960.82000   -327074.81140  21460965.18040
    558175.61300  21398163.63300    434941.54740  21398168.44940
   -618203.18200  23470934.55500   -481715.95840  23470940.41440
    515047.54500  21302895.82800    401336.05540  21302899.27340
   -234908.25900  21991893.59400   -183045.51740  21991897.34440
 96  9 13  0 42  0.0000000  0  6  1 14 15 22 25 29
    807853.10700  24484541.25000    622900.65640  24484545.56340
   -468471.25900  21451689.14100   -365042.25140  21451693.50040
    633993.75800  21412591.18800    494020.60240  21412596.28540
   -692513.70400  23456793.62500   -539620.19540  23456799.56640
    584886.59400  21316185.62500    455756.08140  21316188.98840
   -260737.97800  21986978.64100   -203172.56840  21986982.14540
 96  9 13  0 42 30.0000000  0  6  1 14 15 22 25 29
    901515.41700  24502364.39100    695884.21440  24502369.93440
   -516494.12300  21442550.46100   -402462.65540  21442554.93840
    710780.40100  21427203.35200    553854.33140  21427208.39140
   -766274.80400  23442757.32800   -597096.27740  23442763.16440
    655592.18800  21329640.46100    510851.34440  21329643.62540
   -285963.89800  21982177.95300   -222829.11740  21982181.57440
 96  9 13  0 43  0.0000000  0  6  1 14 15 22 25 29
    995611.51800  24520269.82800    769205.83040  24520276.28540
   -563821.05800  21433544.58600   -439340.78640  21433549.14540
    788520.42100  21441996.70300    614430.96140  21442001.61340
   -839507.33900  23428821.71100   -654160.51540  23428827.17240
    727158.49200  21343259.21100    566617.28640  21343262.53940
   -310590.34100  21977491.82800   -242018.54340  21977495.41440
 96  9 13  0 43 30.0000000  0  6  1 14 15 22 25 29
   1090080.08600  24538246.64100    842817.70440  24538252.18440
   -610503.11700  21424661.06300   -475716.41440  21424665.46940
    867157.08600  21456960.75800    675706.26940  21456965.57440
   -912276.88800  23414974.12500   -710864.00140  23414979.62140
    799529.08500  21357030.89800    623009.94940  21357034.33240
   -334673.80500  21972909.04700   -260784.86640  21972912.49240
 96  9 13  0 44  0.0000000  0  6  1 14 15 22 25 29
   1184933.87100  24556297.31300    916729.69640  24556302.97340
   -656539.27400  21415900.71900   -511588.73940  21415905.07840
    946681.61500  21472093.93000    737673.41940  21472098.96940
   -984575.43900  23401216.08600   -767200.47240  23401221.40640
    872694.38700  21370953.68800    680021.86640  21370957.21540
   -358219.88900  21968428.47700   -279132.45540  21968432.10940
 96  9 13  0 44 30.0000000  0  6  1 14 15 22 25 29
   1280154.83600  24574416.97700    990927.84440  24574421.91040
   -701947.77000  21407259.88300   -546971.98140  21407264.21940
   1027066.30100  21487390.72700    800310.81840  21487395.59040
  -1056405.03400  23387547.24200   -823171.51740  23387552.78540
    946608.83200  21385019.13300    737617.53340  21385022.61340
   -381247.77900  21964046.27300   -297076.25340  21964049.76640
 96  9 13  0 45  0.0000000  0  6  1 14 15 22 25 29
   1375726.31500  24592604.09400   1065399.12740  24592607.85540
   -746740.39700  21398736.02300   -581875.32240  21398740.31340
   1108286.58600  21502846.18000    863599.33240  21502851.19540
  -1127771.90900  23373966.61700   -878782.00040  23373972.62940
   1021237.58900  21399220.53900    795769.80440  21399224.05540
   -403785.20900  21959757.46900   -314637.87540  21959760.97340
 96  9 13  0 45 30.0000000  0  6  1 14 15 22 25 29
   1471664.83200  24610860.12500   1140156.35940  24610865.28140
   -790903.94600  21390332.17200   -616288.47240  21390336.52040
   1190357.74600  21518463.89100    927550.87140  21518468.91840
  -1198643.86400  23360479.89800   -934006.86240  23360485.75840
   1096604.55400  21413562.51600    854497.30240  21413565.94940
   -425832.49900  21955561.96900   -331817.57140  21955565.34440
 96  9 13  0 46  0.0000000  0  6  1 14 15 22 25 29
   1567935.15500  24629179.68800   1215172.18040  24629182.47740
   -834462.16200  21382043.23400   -650229.93440  21382047.59440
   1273247.55600  21534237.24200    992140.31240  21534242.16440
  -1269029.94000  23347086.07800   -988853.11840  23347091.51640
   1172685.99500  21428040.08600    913781.53340  21428043.56640
   -447415.32200  21951454.95300   -348635.34140  21951458.60940
 96  9 13  0 46 30.0000000  0  6  1 14 15 22 25 29
   1664486.38200  24647553.09400   1290406.87940  24647558.68440
   -877455.79400  21373861.81300   -683731.45240  21373866.13740
   1356922.01700  21550160.13300   1057341.17340  21550164.93840
  -1338968.02400  23333777.39800  -1043350.27140  23333782.85940
   1249450.41100  21442648.00800    973597.95640  21442651.41840
   -468567.72200  21947429.82800   -365117.71040  21947433.44940
 96  9 13  0 47  0.0000000  0  6  1 14 15 22 25 29
   1761285.85000  24665972.82800   1365835.01140  24665976.81340
   -919911.94500  21365782.40600   -716814.16140  21365786.85940
   1441352.53600  21566226.79700   1123131.17440  21566231.74240
  -1408493.85400  23320546.85200  -1097526.19040  23320551.63340
   1326870.53300  21457380.73400   1033925.32040  21457383.99240
   -489324.04100  21943480.04700   -381291.45440  21943483.49240
 96  9 13  0 47 30.0000000  0  6  1 14 15 22 25 29
   1858350.88000  24684444.17200   1441470.06540  24684449.97340
   -961808.35200  21357810.00800   -749460.70640  21357814.41440
   1526562.05800  21582441.55500   1189528.19440  21582446.61740
  -1477584.61300  23307398.89100  -1151363.08740  23307404.16440
   1404960.27400  21472240.28100   1094774.46140  21472243.68040
   -509634.95300  21939614.90600   -397118.12940  21939618.70340
 96  9 13  0 48  0.0000000  0  6  1 14 15 22 25 29
   1955665.33100  24702962.36700   1517299.51240  24702967.41840
  -1003163.53200  21349940.43000   -781685.51140  21349944.71940
   1612525.88500  21598799.98400   1256512.97740  21598804.97740
  -1546264.96800  23294330.14100  -1204880.18940  23294335.27340
   1483679.11600  21487220.23400   1156113.81240  21487223.60940
   -529503.94300  21935834.00800   -412600.44840  21935837.59440
 96  9 13  0 48 30.0000000  0  6  1 14 15 22 25 29
   2053216.43000  24721525.93800   1593313.35140  24721532.07840
  -1044017.61400  21342166.28100   -813519.85440  21342170.60540
   1699208.14100  21615295.03100   1324057.58040  21615299.88340
  -1614587.04300  23281328.36700  -1258118.13840  23281334.07440
   1562977.74500  21502310.09400   1217904.94540  21502313.51640
   -548969.29600  21932129.82800   -427768.25340  21932133.34440
 96  9 13  0 49  0.0000000  0  6  1 14 15 22 25 29
   2151022.53000  24740137.60200   1669525.86740  24740144.09440
  -1084356.91800  21334489.80500   -844953.06840  21334494.09440
   1786609.17400  21631926.93000   1392162.26340  21631931.93440
  -1682538.17800  23268397.91400  -1311067.02540  23268402.34440
   1642860.08100  21517511.48400   1280150.90840  21517515.01240
   -568030.87500  21928502.42200   -442621.41940  21928506.02040
 96  9 13  0 49 30.0000000  0  6  1 14 15 22 25 29
   2249094.16800  24758800.28900   1745945.28840  24758805.36340
  -1124175.79500  21326912.64800   -875980.75840  21326916.78540
   1874732.58000  21648696.10200   1460829.83040  21648701.23440
  -1750103.34100  23255540.43800  -1363715.15440  23255545.48840
   1723339.70400  21532826.23400   1342862.29740  21532829.69140
   -586696.64200  21924950.40600   -457166.16340  21924954.02740
 96  9 13  0 50  0.0000000  0  6  1 14 15 22 25 29
   2347399.99300  24777507.64800   1822547.22840  24777512.92240
  -1163498.48200  21319429.71100   -906621.80540  21319434.02340
   1963544.15800  21665596.41400   1530033.63340  21665601.38340
  -1817316.68000  23242750.51600  -1416089.13240  23242756.23440
   1804400.44700  21548251.40600   1406026.50540  21548254.86340
   -605028.17400  21921462.28100   -471450.47440  21921465.90240
 96  9 13  0 50 30.0000000  0  6  1 14 15 22 25 29
   2445919.49500  24796254.77300   1899315.65740  24796260.25840
  -1202326.59000  21312040.99200   -936877.47040  21312045.39840
   2053035.69300  21682626.14100   1599767.27740  21682631.28540
  -1884176.61100  23230026.95300  -1468187.71440  23230032.78940
   1886048.45100  21563788.53900   1469648.31640  21563791.86740
   -623041.67000  21918034.36700   -485486.95740  21918038.11740
 96  9 13  0 51  0.0000000  0  6  1 14 15 22 25 29
   2544648.46400  24815041.86700   1976247.32440  24815044.46940
  -1240643.41000  21304749.50000   -966734.73640  21304753.77740
   2143219.25500  21699787.67200   1670040.15540  21699792.74640
  -1950649.63000  23217377.71100  -1519984.82340  23217382.93840
   1968309.27100  21579442.48400   1533747.64640  21579446.07040
   -640707.07500  21914672.81300   -499252.20340  21914676.62140
 96  9 13  0 51 30.0000000  0  6  1 14 15 22 25 29
   2643553.41500  24833863.93800   2053316.07640  24833868.18040
  -1278471.35200  21297551.00800   -996211.05140  21297555.29740
   2234066.52100  21717075.34400   1740830.20040  21717080.16040
  -2016762.36000  23204796.66400  -1571501.16340  23204801.68040
   2051152.09700  21595206.93000   1598300.49140  21595210.37540
   -658043.59600  21911373.71900   -512761.17640  21911377.16440
 96  9 13  0 52  0.0000000  0  6  1 14 15 22 25 29
   2742595.04700  24852710.17200   2130491.38540  24852715.90240
  -1315852.72300  21290437.46900  -1025339.38840  21290441.81640
   2325538.08700  21734481.78100   1812106.72840  21734486.41040
  -2082544.43800  23192278.98400  -1622759.88240  23192284.09440
   2134529.96900  21611073.35900   1663270.25340  21611076.77040
   -675066.31400  21908134.39800   -526025.62340  21908138.02040
 96  9 13  0 52 30.0000000  0  6  1 14 15 22 25 29
   2841801.43600  24871589.14100   2207795.04540  24871593.27740
  -1352763.95100  21283413.56300  -1054101.37240  21283417.95740
   2417650.28400  21752010.11700   1883882.44440  21752014.95740
  -2147960.98100  23179830.53100  -1673733.77140  23179835.58240
   2218454.41700  21627043.47700   1728665.91840  21627046.87540
   -691735.70800  21904962.40600   -539014.75140  21904965.79340
 96  9 13  0 53  0.0000000  0  6  1 14 15 22 25 29
   2941193.21300  24890502.71100   2285243.17240  24890506.93040
  -1389183.37900  21276483.15600  -1082480.15140  21276487.50440
   2510413.10200  21769662.53100   1956165.13940  21769667.50040
  -2212990.09200  23167455.80500  -1724405.75040  23167460.91440
   2302930.89800  21643118.89800   1794491.74240  21643122.29740
   -708036.24900  21901860.36700   -551716.46840  21901863.82440
 96  9 13  0 53 30.0000000  0  6  1 14 15 22 25 29
   3040759.40400  24909448.98400   2362827.16040  24909455.33640
  -1425113.20700  21269645.87500  -1110477.41340  21269650.32840
   2603813.28200  21787435.83600   2028944.48640  21787440.65240
  -2277637.36000  23155153.76600  -1774780.20440  23155159.30940
   2387939.84400  21659295.68800   1860732.46940  21659299.08640
   -723991.61000  21898824.04700   -564149.20840  21898827.64540
 96  9 13  0 54  0.0000000  0  6  1 14 15 22 25 29
   3140477.69600  24928425.64100   2440529.67340  24928428.14840
  -1460573.07300  21262898.07800  -1138108.47540  21262902.50840
   2697826.15600  21805325.93800   2102201.24540  21805330.71940
  -2341918.14900  23142921.40600  -1824869.08240  23142927.04340
   2473462.93300  21675569.98400   1927373.83340  21675573.45340
   -739615.58600  21895850.98400   -576323.73440  21895854.43040
 96  9 13  0 54 30.0000000  0  6  1 14 15 22 25 29
   3240341.40400  24947427.78100   2518345.59240  24947432.75040
  -1495559.30000  21256240.36700  -1165370.46840  21256244.76240
   2792440.12700  21823330.30500   2175926.39840  21823335.27340
  -2405845.01500  23130756.39800  -1874682.16640  23130761.73040
   2559490.12300  21691940.46100   1994408.00240  21691943.91840
   -754927.99100  21892936.96100   -588255.46640  21892940.60540
 96  9 13  0 55  0.0000000  0  6  1 14 15 22 25 29
   3340328.08500  24966455.57800   2596257.26840  24966461.71940
  -1530097.53700  21249668.11700  -1192283.37840  21249672.43040
   2887636.17000  21841445.52300   2250105.11740  21841450.27040
  -2469433.12400  23118655.64100  -1924231.31940  23118660.62140
   2645994.66200  21708401.46100   2061814.13340  21708404.73040
   -769953.72700  21890077.98400   -599963.82840  21890081.41840
 96  9 13  0 55 30.0000000  0  5 14 15 22 25 29
  -1564168.67100  21243184.53900  -1218832.30540  21243188.95740
   2983437.34500  21859675.93800   2324755.37040  21859680.97740
  -2532669.72900  23106622.87500  -1973506.55940  23106628.07840
   2732999.63800  21724958.12500   2129610.21440  21724961.58240
   -784667.72200  21887277.89100   -611429.26740  21887281.44140
 96  9 13  0 56  0.0000000  0  5 14 15 22 25 29
  -1597778.36900  21236788.87500  -1245021.67840  21236793.19940
   3079836.19100  21878020.23400   2399871.31940  21878025.26240
  -2595558.58600  23094655.09400  -2022510.81640  23094660.13340
   2820492.24600  21741607.25800   2197786.27140  21741610.66840
   -799080.63500  21884535.45300   -622660.10640  21884539.00440
 96  9 13  0 56 30.0000000  0  5 14 15 22 25 29
  -1630943.44000  21230477.86700  -1270864.58540  21230482.09840
   3176815.55300  21896474.77300   2475439.62440  21896479.70740
  -2658113.16500  23082751.26600  -2071254.61240  23082756.75040
   2908448.37100  21758344.93800   2266323.50940  21758348.40640
   -813226.13300  21881843.32800   -633682.56640  21881846.96140
 96  9 13  0 57  0.0000000  0  5 14 15 22 25 29
  -1663667.68300  21224250.52300  -1296363.99640  21224254.78940
   3274367.40200  21915038.13300   2551454.02840  21915043.28940
  -2720339.41100  23070910.26600  -2119742.54940  23070915.96140
   2996872.41500  21775171.47700   2335225.35740  21775174.84040
   -827105.59400  21879202.18800   -644497.73140  21879205.65640
 96  9 13  0 57 30.0000000  0  5 14 15 22 25 29
  -1695932.50200  21218110.74200  -1321505.40940  21218115.00840
   3372499.00600  21933711.85900   2627920.18140  21933716.96940
  -2782231.92700  23059132.65600  -2167970.44240  23059138.12940
   3085784.95700  21792090.96100   2404507.85640  21792094.33640
   -840714.97200  21876612.53100   -655102.43240  21876616.12940
 96  9 13  0 58  0.0000000  0  5 14 15 22 25 29
  -1727752.62400  21212055.69500  -1346300.30240  21212059.82040
   3471183.82100  21952490.93000   2704817.42240  21952495.93440
  -2843801.49100  23047415.90600  -2215946.67840  23047420.88740
   3175161.99700  21809098.85900   2474152.30140  21809102.28140
   -854074.70700  21874070.07000   -665512.60340  21874073.52740
 96  9 13  0 58 30.0000000  0  5 14 15 22 25 29
  -1759110.52200  21206088.29700  -1370735.02540  21206092.57440
   3570435.39300  21971378.24200   2782156.29140  21971382.95340
  -2905028.07200  23035765.11700  -2263655.67040  23035771.00040
   3265032.92400  21826200.77300   2544181.59540  21826204.21940
   -867151.24600  21871581.63300   -675702.10640  21871585.20740
 96  9 13  0 59  0.0000000  0  5 14 15 22 25 29
  -1789998.03900  21200210.75000  -1394803.21940  21200214.94540
   3670255.46700  21990373.25800   2859938.14440  21990378.41440
  -2965903.01600  23024180.96100  -2311090.66240  23024185.48440
   3355405.36900  21843397.88300   2614601.67540  21843401.15240
   -879923.50800  21869151.10200   -685654.51540  21869154.68840
 96  9 13  0 59 30.0000000  0  5 14 15 22 25 29
  -1820447.35100  21194416.57800  -1418529.95040  21194420.79740
   3770615.18500  22009471.05500   2938140.49340  22009476.10540
  -3026439.92200  23012660.87500  -2358262.23540  23012666.41840
   3446232.49000  21860681.86700   2685376.05440  21860685.14840
   -892421.87300  21866772.85200   -695393.49840  21866776.49640
 96  9 13  1  0  0.0000000  0  5 14 15 22 25 29
  -1850474.11300  21188702.41400  -1441927.42340  21188706.69140
   3871488.71000  22028666.71900   3016743.21240  22028671.81640
  -3086653.28900  23001202.70300  -2405181.70640  23001207.77740
   3537485.90800  21878046.86700   2756482.61040  21878050.28940
   -904655.04600  21864445.06300   -704925.83340  21864448.68440
 96  9 13  1  0 30.0010000  0  5 14 15 22 25 29
  -1880060.11700  21183072.51300  -1464981.45540  21183076.68540
   3972894.76000  22047963.56000   3095760.90140  22047968.75140
  -3146531.33600  22989808.28600  -2451839.87840  22989813.53640
   3629188.37500  21895497.27100   2827939.07440  21895500.71640
   -916610.01300  21862170.00500   -714241.37940  21862173.47440
 96  9 13  1  1  0.0010000  0  5 14 15 22 25 29
  -1909207.85500  21177525.77100  -1487693.97540  21177530.02440
   4074808.41500  22067356.98100   3175174.11040  22067362.04440
  -3206087.19100  22978475.06700  -2498247.02140  22978480.35340
   3721307.41900  21913026.88000   2899720.14140  21913030.46640
   -928318.22100  21859942.12200   -723364.65540  21859945.54440
 96  9 13  1  1 30.0010000  0  5 14 15 22 25 29
  -1937911.00900  21172063.81000  -1510060.06540  21172068.13440
   4177228.48700  22086846.96600   3254981.92640  22086852.09940
  -3265320.67300  22967203.31000  -2544402.93440  22967208.94640
   3813837.99100  21930634.98100   2971821.87940  21930638.45040
   -939785.45500  21857759.97400   -732300.15540  21857763.48940
 96  9 13  1  2  0.0010000  0  5 14 15 22 25 29
  -1966147.82500  21166690.45800  -1532062.78040  21166694.77140
   4280159.07000  22106434.11400   3335187.54340  22106439.35340
  -3324225.59800  22955994.06000  -2590302.84140  22955999.40340
   3906798.20200  21948324.52800   3044258.40340  21948328.00940
   -950998.29600  21855626.05200   -741037.42840  21855629.41540
 96  9 13  1  2 30.0010000  0  5 14 15 22 25 29
  -1993948.22700  21161400.32500  -1553725.42540  21161404.50940
   4383565.70400  22126111.77800   3415764.12740  22126116.93540
  -3382826.71900  22944842.28600  -2635966.00440  22944847.60640
   4000151.95700  21966089.27100   3117001.58240  21966092.59940
   -961996.84400  21853533.20800   -749607.72040  21853536.60640
 96  9 13  1  3  0.0010000  0  5 14 15 22 25 29
  -2021282.77600  21156198.78600  -1575025.06640  21156203.01740
   4487472.45300  22145884.64600   3496730.40240  22145890.07140
  -3441076.71800  22933758.09100  -2681355.58740  22933763.70440
   4093918.55600  21983932.61400   3190066.46140  21983935.98940
   -972752.28700  21851486.41100   -757988.57740  21851489.91540
 96  9 13  1  3 30.0010000  0  5 14 15 22 25 29
  -2048179.17400  21151080.54400  -1595983.29840  21151084.77440
   4591857.07300  22165748.34100   3578069.03740  22165753.46240
  -3498990.11500  22922737.45000  -2726482.87540  22922742.23140
   4188073.94100  22001849.69200   3263434.28440  22001852.95040
   -983270.06200  21849484.90300   -766184.24140  21849488.58340
 96  9 13  1  4  0.0010000  0  5 14 15 22 25 29
  -2074632.98400  21146046.53600  -1616596.65340  21146050.83740
   4696722.48700  22185703.43500   3659782.31440  22185708.64940
  -3556557.86100  22911782.50500  -2771340.82440  22911787.55640
   4282625.09700  22019842.15300   3337110.49840  22019845.39940
   -993553.24300  21847528.23100   -774197.10340  21847531.84140
 96  9 13  1  4 30.0010000  0  5 14 15 22 25 29
  -2100642.31700  21141097.07500  -1636863.66240  21141101.23540
   4802075.51600  22205751.66100   3741875.56440  22205756.78240
  -3613769.69100  22900895.60600  -2815921.43840  22900901.13840
   4377571.17400  22037909.83300   3411094.44840  22037913.16140
  -1003599.07400  21845616.63000   -782025.01840  21845620.20440
 96  9 13  1  5  0.0010000  0  5 14 15 22 25 29
  -2126241.30900  21136225.71600  -1656810.93040  21136229.95840
   4907887.34700  22225886.83300   3824326.32040  22225891.80240
  -3670657.60900  22890070.10600  -2860249.65040  22890075.22840
   4472885.65200  22056047.70000   3485365.45840  22056051.13440
  -1013428.93600  21843746.12200   -789684.64940  21843749.45040
 96  9 13  1  5 30.0010000  0  5 14 15 22 25 29
  -2151414.45600  21131435.42700  -1676426.35840  21131439.75140
   5014168.89700  22246111.56700   3907143.09440  22246116.31340
  -3727213.41600  22879307.99700  -2904319.07540  22879312.94240
   4568588.50500  22074259.13800   3559939.10840  22074262.38440
  -1023032.02200  21841918.47400   -797167.56540  21841921.94240
 96  9 13  1  6  0.0010000  0  5 14 15 22 25 29
  -2176183.99900  21126722.03600  -1695727.29940  21126726.41940
   5120884.62300  22266419.31000   3990298.18340  22266424.54840
  -3783462.41100  22868604.13000  -2948149.43140  22868609.52140
   4664654.96000  22092540.16900   3634796.07640  22092543.72040
  -1032454.25100  21840125.54400   -804509.56040  21840128.94240
 96  9 13  1  6 30.0010000  0  5 14 15 22 25 29
  -2200548.03800  21122085.57500  -1714712.26740  21122089.91140
   5228053.08900  22286812.59100   4073806.05640  22286817.58340
  -3839375.14300  22857964.15300  -2991717.76340  22857968.82940
   4761097.36100  22110892.35600   3709945.98840  22110896.07140
  -1041667.15600  21838372.45800   -811688.44040  21838375.93840
 96  9 13  1  7  0.0010000  0  5 14 15 22 25 29
  -2224519.47800  21117523.88800  -1733391.30940  21117528.16540
   5335657.86100  22307288.90300   4157653.90140  22307293.84940
  -3894955.98100  22847387.65300  -3035027.46240  22847392.77440
   4857902.18000  22129313.72400   3785378.30840  22129317.20440
  -1050680.71300  21836657.11400   -818711.98540  21836660.58340
 96  9 13  1  7 30.0010000  0  5 14 15 22 25 29
  -2248090.20800  21113038.59100  -1751758.11140  21113042.95040
   5443691.63600  22327847.37200   4241836.02640  22327852.42340
  -3950197.25500  22836875.45800  -3078072.59040  22836880.16940
   4955048.01800  22147799.79400   3861076.35040  22147803.49740
  -1059503.86600  21834978.38000   -825587.17240  21834981.90740
 96  9 13  1  8  0.0010000  0  5 14 15 22 25 29
  -2271240.10700  21108633.20000  -1769796.99040  21108637.52440
   5552172.75200  22348490.51300   4326366.74340  22348495.70440
  -4005078.61900  22826431.79400  -3120837.24140  22826436.84540
   5052540.39500  22166352.17700   3937044.42840  22166355.89240
  -1068107.16400  21833340.93500   -832291.03340  21833344.33340
 96  9 13  1  8 30.0010000  0  5 14 15 22 25 29
  -2293981.68600  21104305.67700  -1787517.70340  21104310.02440
   5661082.06700  22369215.52100   4411231.11340  22369220.48940
  -4059618.59100  22816053.25500  -3163335.89740  22816058.11840
   5150350.67800  22184964.79400   4013260.22240  22184968.22840
  -1076493.16800  21831745.27800   -838825.58240  21831748.61840
 96  9 13  1  9  0.0010000  0  5 14 15 22 25 29
  -2316284.80000  21100061.56700  -1804896.74940  21100065.82140
   5770402.09900  22390018.05200   4496415.52440  22390023.22040
  -4113830.91000  22805736.77800  -3205579.23140  22805741.70040
   5248473.06000  22203636.98100   4089719.21040  22203640.48540
  -1084679.25500  21830187.59900   -845204.33940  21830190.91540
 96  9 13  1  9 30.0010000  0  6 14 15 18 22 25 29
  -2338134.73700  21095903.71600  -1821922.67440  21095908.06340
   5880140.03200  22410900.56700   4581925.57440  22410905.66540
                  25071209.83300
  -4167701.00400  22795485.55200  -3247555.88640  22795490.66140
   5346926.47300  22222371.84100   4166436.14140  22222375.62640
  -1092661.20900  21828668.60600   -851424.03740  21828671.94640
 96  9 13  1 10  0.0010000  0  6 14 15 18 22 25 29
  -2359539.71700  21091830.52800  -1838601.87440  21091834.81740
   5990281.46400  22431860.16100   4667750.03740  22431865.18840
    -49860.76600  25061395.15300
  -4221243.52100  22785296.87200  -3289277.29340  22785302.05240
   5445721.29100  22241172.17700   4243419.10540  22241175.69240
  -1100445.11700  21827187.33300   -857489.40940  21827190.82540
 96  9 13  1 10 30.0010000  0  6 14 15 18 22 25 29
  -2380491.48600  21087843.45000  -1854927.92240  21087847.76340
   6100819.93000  22452894.66100   4753883.88240  22452899.97040
   -101347.83300  25051597.95000     -1335.33950  25051603.41140
  -4274443.95100  22775173.26300  -3330732.14140  22775178.51340
   5544863.00200  22260038.23100   4320672.37240  22260041.59540
  -1108041.57100  21825741.59100   -863408.71540  21825745.08340
 96  9 13  1 11  0.0010000  0  6 14 15 18 22 25 29
  -2400998.13400  21083941.34100  -1870907.12840  21083945.61840
   6211747.59200  22474003.64600   4840320.98840  22474009.04840
   -152734.46600  25041820.27100    -41376.84740  25041826.35340
  -4327296.60800  22765115.70800  -3371916.00540  22765120.41940
   5644354.78600  22278970.45000   4398198.42440  22278973.62640
  -1115466.30400  21824328.83300   -869194.22240  21824332.30240
 96  9 13  1 11 30.0010000  0  6 14 15 18 22 25 29
  -2421087.35500  21080118.34900  -1886561.06140  21080122.72040
   6323053.95000  22495184.46600   4927053.19340  22495189.42340
   -204044.32500  25032055.26300    -81358.43140  25032061.50940
  -4379811.85000  22755122.11400  -3412836.94540  22755127.37640
   5744189.04900  22297968.66100   4475991.34640  22297972.09540
  -1122720.83900  21822948.33300   -874847.10040  21822951.84940
 96  9 13  1 12  0.0010000  0  6 14 15 18 22 25 29
  -2440727.97700  21076380.78600  -1901865.44240  21076385.05240
   6434755.20800  22516440.54400   5014093.10540  22516445.79440
   -255277.89800  25022305.55200   -121280.66640  25022310.91940
  -4431973.10200  22745196.38000  -3453482.05040  22745201.32540
   5844372.90900  22317033.13000   4554056.67840  22317036.37640
  -1129771.49600  21821606.74700   -880341.11740  21821610.15740
 96  9 13  1 12 30.0010000  0  6 14 15 18 22 25 29
  -2459911.82100  21072730.31700  -1916813.89040  21072734.63040
   6546860.48900  22537773.49700   5101447.85040  22537778.64240
   -306423.63000  25012573.02800   -161134.48840  25012577.89240
  -4483756.34600  22735342.31700  -3493832.60540  22735346.99340
   5944905.94700  22336163.95000   4632394.10140  22336167.52440
  -1136608.51000  21820305.51300   -885668.65640  21820309.01740
 96  9 13  1 13  0.0010000  0  6 14 15 18 22 25 29
  -2478678.36600  21069159.16900  -1931437.16940  21069163.41140
   6659334.31400  22559176.54400   5189089.76240  22559181.57140
   -357515.38000  25002851.01300   -200946.13640  25002855.79440
  -4535211.91600  22725550.48900  -3533927.81640  22725555.89240
   6045758.77900  22355355.50500   4710980.71240  22355359.00940
  -1143262.02300  21819039.46600   -890853.20540  21819042.81740
 96  9 13  1 13 30.0010000  0  6 14 15 18 22 25 29
  -2497008.71000  21065670.98100  -1945720.55440  21065675.18840
   6772188.68200  22580652.02100   5277028.20540  22580657.06040
   -408540.15700  24993139.91100   -240705.60740  24993148.18840
  -4586325.99500  22715823.81700  -3573756.95240  22715829.29040
   6146929.55500  22374607.76300   4789815.06840  22374611.29040
  -1149704.43800  21817813.59900   -895873.26540  21817816.90340
 96  9 13  1 14  0.0010000  0  6 14 15 18 22 25 29
  -2514911.28200  21062264.28600  -1959670.60640  21062268.44640
   6885409.40900  22602197.52800   5365252.12340  22602202.41540
   -459487.38300  24983446.11400   -280404.77140  24983452.24340
  -4637108.57400  22706160.53600  -3613327.75540  22706165.48140
   6248388.31700  22393914.60600   4868873.83140  22393918.33340
  -1155953.30100  21816624.48100   -900742.51040  21816627.83340
 96  9 13  1 14 30.0010000  0  6 14 15 18 22 25 29
  -2532398.66900  21058936.55200  -1973297.13940  21058940.71240
   6998987.03600  22623810.63000   5453754.14540  22623815.72840
   -510360.07100  24973765.15300   -320045.73840  24973770.88440
  -4687559.90300  22696559.63000  -3652640.44940  22696564.85640
   6350131.18200  22413275.40300   4948153.97740  22413279.01340
  -1162024.32300  21815469.02800   -905473.15640  21815472.34540
 96  9 13  1 15  0.0010000  0  6 14 15 18 22 25 29
  -2549462.07700  21055689.51300  -1986593.30340  21055693.68540
   7112921.60700  22645491.45800   5542534.29040  22645496.88440
   -561158.06500  24964098.52100   -359628.55640  24964103.71240
  -4737680.87400  22687022.20800  -3691695.72640  22687027.36440
   6452148.30400  22432688.88800   5027647.82940  22432692.33340
  -1167915.53100  21814348.20800   -910063.71140  21814351.56040
 96  9 13  1 15 30.0010000  0  6 14 15 18 22 25 29
  -2566090.40900  21052525.17700  -1999550.44140  21052529.31340
   7227220.37300  22667241.79400   5631598.23240  22667246.69240
   -611879.08700  24954446.35600   -399151.37340  24954451.40740
  -4787452.59000  22677550.78600  -3730478.85240  22677555.83740
   6554432.10600  22452152.87200   5107349.48140  22452156.51740
  -1173620.02500  21813262.79400   -914508.76740  21813266.02840
 96  9 13  1 16  0.0010000  0  6 14 15 18 22 25 29
  -2582282.99600  21049443.81700  -2012168.03740  21049448.00140
   7341886.81500  22689061.98900   5720948.67840  22689067.06340
   -662522.00300  24944810.42700   -438613.31440  24944816.34540
  -4836856.60100  22668149.12200  -3768975.46240  22668154.09140
   6656995.48500  22471669.98900   5187268.98640  22471673.69240
  -1179148.54000  21812210.69200   -918816.69240  21812214.00940
 96  9 13  1 16 30.0010000  0  6 14 15 18 22 25 29
  -2598018.86400  21046449.47400  -2024429.75240  21046453.65740
   7456936.50100  22710955.41900   5810597.75640  22710960.71640
   -713086.85900  24935187.23900   -478014.46140  24935193.22840
  -4885851.68600  22658825.75500  -3807153.42540  22658830.63040
   6759866.28000  22491245.73100   5267428.03340  22491249.09540
  -1184484.14300  21811195.14600   -922974.30340  21811198.41540
 96  9 13  1 17  0.0010000  0  6 14 15 18 22 25 29
  -2613343.71700  21043533.03600  -2036371.19540  21043537.23140
   7572319.98300  22732912.02100   5900506.93140  22732916.91940
   -763609.39500  24925572.41900   -517382.68040  24925576.83740
  -4934481.84400  22649571.95800  -3845047.02440  22649577.00940
   6862994.96200  22510870.62200   5347788.03040  22510874.09140
  -1189671.33300  21810207.92700   -927016.26740  21810211.36040
 96  9 13  1 17 30.0010000  0  6 14 15 18 22 25 29
  -2628249.06900  21040696.77800  -2047985.75840  21040700.92740
   7688039.22200  22754932.91100   5990677.73040  22754938.24340
   -814073.03200  24915970.04400   -556704.91940  24915975.36440
  -4982733.13800  22640389.95000  -3882645.40840  22640394.61440
   6966398.66200  22530547.39600   5428362.33140  22530550.74740
  -1194697.16300  21809251.76300   -930932.49640  21809255.16140
 96  9 13  1 18  0.0010000  0  6 14 15 18 22 25 29
  -2642707.39400  21037945.36400  -2059251.98740  21037949.67740
   7804104.27700  22777019.27100   6081118.00340  22777024.70840
   -864453.29700  24906382.68500   -595962.21840  24906387.50140
  -5030583.04600  22631284.45800  -3919931.02840  22631289.54440
   7070109.39300  22550283.03600   5509175.87840  22550286.39940
  -1199535.85500  21808330.90300   -934702.90240  21808334.24340
 96  9 13  1 18 30.0010000  0  6 14 15 18 22 25 29
  -2656709.62100  21035280.82500  -2070162.81240  21035285.09140
   7920513.05900  22799171.16900   6171826.11240  22799176.80640
   -914735.33600  24896814.51300   -635142.99040  24896820.06740
  -5078040.25900  22622253.63800  -3956910.65140  22622258.58340
   7174133.58200  22570077.95000   5590233.67440  22570081.41940
  -1204166.76600  21807449.68500   -938311.39540  21807452.98940
 96  9 13  1 19  0.0010000  0  6 14 15 18 22 25 29
  -2670251.11000  21032704.06000  -2080714.62340  21032708.27840
   8037262.51100  22821388.11400   6262799.68340  22821393.28240
   -964913.04900  24887265.07500   -674242.47740  24887270.51340
  -5125127.03000  22613293.09900  -3993601.62040  22613298.03240
   7278461.98100  22589931.11400   5671528.51740  22589934.52440
  -1208584.38900  21806608.97400   -941753.69440  21806612.30240
 96  9 13  1 19 30.0010000  0  6 14 15 18 22 25 29
  -2683321.78400  21030216.79400  -2090899.56540  21030221.09540
   8154348.31000  22843668.30200   6354035.33640  22843673.45840
  -1015005.04800  24877733.70800   -713275.14840  24877737.31740
  -5171843.74800  22604403.38800  -4030004.22640  22604408.23940
   7383092.06200  22609841.32500   5753058.44140  22609844.91140
  -1212782.49000  21805810.23900   -945024.92940  21805813.72040
 96  9 13  1 20  0.0010000  0  6 14 15 18 22 25 29
  -2695921.67800  21027819.14600  -2100717.66540  21027823.38840
   8271778.91800  22866014.77100   6445539.66140  22866019.83340
  -1065009.81800  24868218.27100   -752239.85440  24868224.51740
  -5218175.03300  22595586.71600  -4066106.49340  22595591.77840
   7488029.82400  22629810.55200   5834828.11140  22629814.02140
  -1216757.23900  21805053.80200   -948122.13240  21805057.27140
 96  9 13  1 20 30.0010000  0  6 14 15 18 22 25 29
  -2708086.47400  21025504.34100  -2110196.72840  21025508.60640
   8389523.57400  22888420.84100   6537288.71740  22888426.06740
  -1114967.26400  24858711.69200   -791167.68740  24858716.36840
  -5264138.99100  22586840.09100  -4101922.54440  22586845.31740
   7593225.09400  22649828.88800   5916798.44340  22649832.36840
  -1220553.44100  21804331.55200   -951080.21640  21804334.86840
 96  9 13  1 21  0.0010000  0  6 14 15 18 22 25 29
  -2719793.31000  21023276.48100  -2119318.94140  21023280.79440
   8507594.67900  22910889.16100   6629292.13940  22910894.44640
  -1164873.58300  24849215.61400   -830055.68740  24849221.21640
  -5309698.96400  22578170.32500  -4137423.78940  22578175.21240
   7698686.79100  22669897.39600   5998976.37940  22669900.86440
  -1224162.03900  21803644.76300   -953892.10340  21803648.11440
 96  9 13  1 21 30.0010000  0  6 14 15 18 22 25 29
  -2731052.46700  21021134.03600  -2128092.30940  21021138.27840
   8625981.03400  22933417.48900   6721541.20540  22933422.81040
  -1214735.27700  24839725.38800   -868908.93140  24839730.59140
  -5354839.53700  22569580.26300  -4172598.22440  22569585.29040
   7804421.07000  22690017.88000   6081366.71740  22690021.39640
  -1227601.72900  21802990.17700   -956572.38140  21802993.49340
 96  9 13  1 22  0.0010000  0  6 14 15 18 22 25 29
  -2741849.41200  21019079.23100  -2136505.51240  21019083.40340
   8744689.91000  22956007.03600   6814041.59440  22956012.05240
  -1264537.11700  24830249.38000   -907715.53540  24830254.36040
  -5399543.42600  22561073.31700  -4207432.40540  22561078.42740
   7910443.17500  22710193.19200   6163981.32740  22710197.00140
  -1230880.88000  21802366.34900   -959127.56540  21802369.87640
 96  9 13  1 22 30.0010000  0  6 14 15 18 22 25 29
  -2752160.64200  21017116.98100  -2144540.23640  21017121.20040
   8863711.90500  22978656.26300   6906785.98040  22978661.73540
  -1314282.88800  24820782.10600   -946478.43840  24820787.74340
  -5443816.77700  22552648.50500  -4241931.08240  22552653.19240
   8016745.49100  22730421.85600   6246814.29940  22730425.24340
  -1234016.64600  21801769.56000   -961571.01740  21801772.91140
 96  9 13  1 23  0.0010000  0  6 14 15 18 22 25 29
  -2761991.44500  21015246.13800  -2152200.60140  21015250.33340
   8983039.20700  23001363.20800   6999768.25640  23001368.72840
  -1363962.11200  24811329.48100   -985189.48940  24811334.88440
  -5487673.08900  22544302.78600  -4276104.80640  22544307.27440
   8123334.33400  22750705.11400   6329870.52240  22750708.85340
  -1237010.09700  21801199.81000   -963903.56940  21801203.11440
 96  9 13  1 23 30.0010000  0  6 14 15 18 22 25 29
  -2771373.34600  21013461.05200  -2159511.17740  21013465.24740
   9102649.46200  23024124.50500   7092971.01240  23024129.35640
  -1413585.68500  24801886.85600  -1023857.16340  24801890.73540
  -5531150.73500  22536029.35600  -4309983.46340  22536034.33740
   8230189.38500  22771039.11400   6413134.19340  22771042.59540
  -1239883.56400  21800652.97400   -966142.63040  21800656.37240
 96  9 13  1 24  0.0010000  0  6 14 15 18 22 25 29
  -2780296.88900  21011763.03600  -2166464.58440  21011767.24340
   9222550.44000  23046940.85600   7186400.30040  23046946.17740
  -1463143.13900  24792456.02800  -1062473.32040  24792461.71240
  -5574238.27400  22527829.85600  -4343558.14140  22527834.48540
   8337300.61800  22791421.65300   6496597.48640  22791424.73540
  -1242616.62000  21800132.99700   -968272.27840  21800136.38440
 96  9 13  1 24 30.0010000  0  6 14 15 18 22 25 29
  -2788778.01000  21010149.19200  -2173073.25040  21010153.36440
   9342738.02800  23069812.05200   7280052.92940  23069817.58340
  -1512625.07800  24783040.14600  -1101030.64740  24783045.81740
  -5616935.05300  22519704.81000  -4376828.32740  22519709.88440
   8444642.94100  22811848.66900   6580240.84440  22811852.09140
  -1245184.60800  21799644.26300   -970273.30640  21799647.56740
 96  9 13  1 25  0.0010000  0  6 14 15 18 22 25 29
  -2796835.22200  21008615.75500  -2179351.59840  21008620.02140
   9463206.79500  23092736.41100   7373924.65540  23092741.73140
  -1562036.79500  24773636.73100  -1139533.26640  24773640.98540
  -5659249.76500  22511652.86400  -4409800.80540  22511658.33740
   8552199.81900  22832315.77100   6664051.38940  22832319.11040
  -1247558.79400  21799192.52100   -972123.32140  21799195.87240
 96  9 13  1 25 30.0010000  0  6 14 15 18 22 25 29
  -2804447.11400  21007167.52800  -2185282.94240  21007171.77140
   9583950.82000  23115713.31000   7468010.85640  23115718.64240
  -1611390.13000  24764245.51300  -1177990.33640  24764251.18540
  -5701175.20500  22503674.54400  -4442469.94740  22503679.40740
   8659946.37800  22852819.13800   6748009.73840  22852823.09940
  -1249734.75000  21798778.31700   -973818.86640  21798781.52840
 96  9 13  1 26  0.0010000  0  6 14 15 18 22 25 29
  -2811600.31300  21005806.27100  -2190856.86540  21005810.51340
   9704953.63100  23138739.27100   7562298.72240  23138744.56740
  -1660698.96900  24754861.45000  -1216412.78640  24754865.59940
  -5742708.25100  22495770.99700  -4474833.32640  22495776.10640
   8767856.40700  22873353.48900   6832095.46540  22873356.73540
  -1251720.65900  21798400.55200   -975366.32740  21798403.97440
 96  9 13  1 26 30.0010000  0  6 14 15 18 22 25 29
  -2818264.91500  21004538.02100  -2196050.06340  21004542.32140
   9826223.70400  23161816.31000   7656794.83940  23161821.66540
  -1709945.83200  24745490.36400  -1254786.93740  24745495.08740
  -5783845.03000  22487942.94200  -4506887.94040  22487948.01740
   8875952.62500  22893923.56000   6916326.27340  22893926.85340
  -1253502.83600  21798061.18500   -976755.03840  21798064.70040
 96  9 13  1 27  0.0010000  0  6 14 15 18 22 25 29
  -2824418.66200  21003366.92700  -2200845.19140  21003371.19240
   9947764.87600  23184944.95800   7751502.20440  23184950.44240
  -1759135.05500  24736129.50500  -1293116.17140  24736134.15740
  -5824570.30400  22480193.27100  -4538621.88740  22480198.20440
   8984266.28100  22914535.15300   7000726.51640  22914538.70440
  -1255094.12400  21797758.43500   -977995.00140  21797761.86840
 96  9 13  1 27 30.0010000  0  6 14 15 18 22 25 29
  -2830076.13800  21002290.30200  -2205253.61340  21002294.50940
  10069560.24200  23208121.81700   7846407.63540  23208127.04440
  -1808278.11600  24726779.53600  -1331409.42740  24726783.00540
  -5864886.45100  22472521.19200  -4570037.04240  22472526.07940
   9092809.81900  22935190.31700   7085305.88640  22935193.70440
  -1256533.18200  21797484.66100   -979116.34140  21797488.22440
 96  9 13  1 28  0.0020000  0  6 14 15 18 22 25 29
  -2835249.26600  21001306.04100  -2209284.62640  21001310.26040
  10191618.82500  23231348.57200   7941518.17240  23231353.92840
  -1857369.44000  24717436.95500  -1369662.35240  24717442.34640
  -5904796.95200  22464926.68900  -4601136.10940  22464931.60040
   9201622.43900  22955896.53300   7170094.93840  22955900.22540
  -1257816.54900  21797240.33800   -980116.36340  21797243.86540
 96  9 13  1 28 30.0020000  0  6 14 15 18 22 25 29
  -2839955.85300  21000410.42400  -2212952.09940  21000414.63140
  10313932.36200  23254624.46300   8036827.38640  23254630.05340
  -1906419.42700  24708103.40800  -1407883.11340  24708107.72140
  -5944300.22500  22457409.36900  -4631917.85140  22457414.35040
   9310712.19000  22976655.74400   7255099.93340  22976659.33040
  -1258946.78300  21797025.29900   -980997.06640  21797028.73240
 96  9 13  1 29  0.0020000  0  6 14 15 18 22 25 29
  -2844207.66900  20999601.23600  -2216265.20240  20999605.43240
  10436506.90400  23277949.45500   8132339.97140  23277954.57640
  -1955431.20200  24698775.86900  -1446074.07840  24698781.38940
  -5983385.18200  22449971.81400  -4662373.63840  22449976.31440
   9420073.22600  22997466.29900   7340316.31740  22997470.06140
  -1259921.64500  21796839.99400   -981756.69240  21796843.32240
 96  9 13  1 29 30.0020000  0  6 14 15 18 22 25 29
  -2848009.51800  20998877.76000  -2219227.68540  20998881.90840
  10559330.56300  23301322.11900   8228046.67340  23301327.35740
  -2004401.51700  24689457.33800  -1484232.72240  24689461.55740
  -6022063.68100  22442611.33000  -4692512.69740  22442616.01840
   9529675.56800  23018323.15000   7425720.73040  23018326.45540
  -1260736.56000  21796684.97100   -982391.68940  21796688.32240
 96  9 13  1 30  0.0020000  0  6 14 15 18 22 25 29
  -2851337.61300  20998244.23600  -2221821.00840  20998248.56140
  10682418.86400  23324745.01800   8323959.58740  23324750.22140
  -2053316.86000  24680148.04900  -1522348.53940  24680153.65040
  -6060309.18600  22435333.68900  -4722314.35940  22435338.77540
   9639512.83000  23039224.02500   7511308.20240  23039227.48240
  -1261358.17800  21796566.69700   -982876.06740  21796570.08440
 96  9 13  1 30 30.0020000  0  6 14 15 18 22 25 29
  -2854221.07900  20997695.71300  -2224067.86140  20997700.02540
  10805731.48200  23348210.58000   8420047.29640  23348215.79540
  -2102208.21500  24670845.54100  -1560445.64840  24670850.69740
  -6098134.59700  22428135.86900  -4751788.67140  22428140.47540
   9749521.66700  23060158.23600   7597029.36840  23060161.90440
  -1261815.48100  21796479.55700   -983232.40940  21796482.94340
 96  9 13  1 31  0.0020000  0  6 14 15 18 22 25 29
  -2856634.25600  20997236.51800  -2225948.25640  20997240.73640
  10929278.91900  23371721.36900   8516317.99540  23371726.65440
  -2151041.87900  24661552.47900  -1598497.79340  24661556.95540
  -6135509.77700  22421023.16600  -4780912.16140  22421027.64340
   9859710.15200  23081126.58000   7682890.52040  23081130.26040
  -1262082.30200  21796428.78300   -983440.31640  21796432.14640
 96  9 13  1 31 30.0020000  0  6 14 15 18 22 25 29
  -2858565.88500  20996869.04100  -2227453.42240  20996873.26040
  11053051.85100  23395274.19700   8612764.37840  23395279.37740
  -2199824.34700  24652269.84600  -1636510.08440  24652273.42040
  -6172431.82600  22413997.01800  -4809682.56640  22414001.76440
   9970083.40400  23102129.68200   7768895.64940  23102133.16240
  -1262163.80100  21796413.12700   -983503.82640  21796416.52540
 96  9 13  1 32  0.0020000  0  6 14 15 18 22 25 29
  -2860010.42500  20996594.14300  -2228579.03740  20996598.39640
  11177058.78100  23418872.03300   8709393.10440  23418877.10740
  -2248547.35900  24642997.81400  -1674475.99840  24643002.10440
  -6208873.98700  22407062.58000  -4838079.02540  22407067.27940
  10080650.35300  23123170.10400   7855051.71740  23123173.78340
  -1262065.37700  21796432.06400   -983427.12640  21796435.47540
 96  9 13  1 32 30.0020000  0  6 14 15 18 22 25 29
  -2860965.65800  20996412.52500  -2229323.37540  20996416.66240
  11301296.28700  23442513.82200   8806201.51240  23442519.04940
  -2297193.85400  24633740.87700  -1712382.32240  24633745.17840
  -6244839.73300  22400218.34600  -4866104.25340  22400223.10440
  10191415.69500  23144248.00200   7941362.35340  23144251.41240
  -1261793.78200  21796483.54900   -983215.48740  21796486.92440
 96  9 13  1 33  0.0020000  0  6 14 15 18 22 25 29
  -2861443.88600  20996321.26800  -2229696.01540  20996325.39340
  11425751.07500  23466196.76800   8903179.21140  23466202.46340
  -2345770.03200  24624496.94700  -1750233.85540  24624502.31440
  -6280346.27100  22393461.51000  -4893771.65740  22393466.26840
  10302377.87100  23165363.26800   8027826.38940  23165366.47940
  -1261371.53000  21796564.18200   -982886.45440  21796567.49840
 96  9 13  1 33 30.0020000  0  6 14 15 18 22 25 29
  -2861447.97700  20996320.38500  -2229699.20440  20996324.53340
  11550420.20100  23489920.55700   9000323.93140  23489926.35740
  -2394266.95200  24615267.93900  -1788023.68240  24615273.49440
  -6315402.18800  22386790.89300  -4921087.93740  22386795.66240
  10413524.96800  23186514.02500   8114434.52340  23186517.51840
  -1260815.62400  21796669.81400   -982453.27840  21796673.10740
 96  9 13  1 34  0.0020000  0  6 14 15 18 22 25 29
  -2860974.48100  20996410.74400  -2229330.24740  20996414.96340
  11675314.10000  23513687.25200   9097643.81440  23513693.04140
  -2442670.66500  24606056.72900  -1825740.80040  24606061.70940
  -6349996.66000  22380207.46300  -4948044.64040  22380212.29140
  10524867.75700  23207701.65800   8201195.13040  23207704.99840
  -1260112.01300  21796803.87700   -981905.00840  21796807.20540
 96  9 13  1 34 30.0020000  0  6 14 15 18 22 25 29
  -2860044.42400  20996587.54900  -2228605.52340  20996591.73240
  11800408.96500  23537491.83000   9195120.29140  23537497.53740
  -2491003.70400  24596859.16600  -1863402.90240  24596864.31140
  -6384162.77800  22373706.23600  -4974667.56140  22373711.10040
  10636401.62000  23228925.84600   8288104.62440  23228929.67840
  -1259260.16100  21796965.70500   -981241.22540  21796969.04540
 96  9 13  1 35  0.0020000  0  6 14 15 18 22 25 29
  -2858651.49300  20996852.68900  -2227520.12340  20996856.92040
  11925696.24200  23561333.41600   9292746.68640  23561339.38140
  -2539285.82200  24587672.40000  -1901025.27740  24587677.73240
  -6417902.00800  22367285.63500  -5000957.83940  22367290.60440
  10748128.31100  23250186.88500   8375164.39340  23250190.45940
  -1258261.95700  21797155.67400   -980463.39440  21797158.97940
 96  9 13  1 35 30.0020000  0  6 14 15 18 22 25 29
  -2856765.44100  20997211.54100  -2226050.47640  20997215.77140
  12051183.33100  23585212.78300   9390528.78740  23585218.02140
  -2587525.96900  24578492.33800  -1938614.97740  24578497.08440
  -6451204.94900  22360948.45500  -5026908.16340  22360953.60040
  10860058.48400  23271486.46300   8462382.70140  23271490.08440
  -1257098.45800  21797377.12700   -979556.76240  21797380.43240
 96  9 13  1 36  0.0020000  0  6 14 15 18 22 25 29
  -2854384.70900  20997664.51000  -2224195.35840  20997668.78740
  12176857.17400  23609127.67400   9488456.39540  23609133.28740
  -2635765.13500  24569312.43900  -1976203.88740  24569318.13540
  -6484072.89300  22354693.85400  -5052519.51540  22354698.45940
  10972195.15800  23292825.49400   8549761.93240  23292828.88140
  -1255766.73600  21797630.50200   -978519.05240  21797633.88940
 96  9 13  1 36 30.0020000  0  6 14 15 18 22 25 29
  -2851480.33400  20998217.22100  -2221932.20840  20998221.53340
  12302727.51700  23633079.98600   9586537.14740  23633085.44740
  -2683991.30000  24560136.02500  -2013782.70540  24560140.33840
  -6516494.28900  22348524.05700  -5077782.91540  22348528.62740
  11084546.45800  23314205.11900   8637308.40040  23314208.65840
  -1254253.37700  21797918.51000   -977339.80540  21797921.88540
 96  9 13  1 37  0.0020000  0  6 14 15 18 22 25 29
  -2848035.91400  20998872.79900  -2219248.25140  20998877.00640
  12428797.07300  23657070.13500   9684773.10640  23657075.85440
  -2732206.70900  24550959.88500  -2051353.09540  24550965.21740
  -6548459.12900  22342441.43900  -5102690.56940  22342446.39640
  11197095.82300  23335622.72900   8725009.20040  23335626.33840
  -1252575.43700  21798237.72900   -976032.32040  21798241.06840
 96  9 13  1 37 30.0020000  0  6 14 15 18 22 25 29
  -2844079.93700  20999625.51800  -2216165.66840  20999629.68940
  12555051.73400  23681095.95500   9783153.32240  23681101.38140
  -2780423.59100  24541784.08800  -2088924.67840  24541789.70140
  -6579963.03800  22336446.33000  -5127239.03540  22336451.01840
  11309818.60800  23357073.03300   8812845.14140  23357076.91240
  -1250746.43100  21798585.90800   -974607.11140  21798589.26040
 96  9 13  1 38  0.0020000  0  6 14 15 18 22 25 29
  -2839649.24000  21000468.72100  -2212713.18140  21000472.83440
  12681474.61700  23705153.46300   9881664.61540  23705159.18240
  -2828631.74100  24532611.31400  -2126489.43940  24532616.51840
  -6611015.91700  22330537.05700  -5151436.05540  22330542.03740
  11422698.19900  23378553.33000   8900803.25640  23378557.23240
  -1248781.60600  21798959.52500   -973076.07140  21798962.92440
 96  9 13  1 38 30.0020000  0  6 14 15 18 22 25 29
  -2834762.11200  21001398.62700  -2208905.03140  21001402.75240
  12808051.90800  23729240.12700   9980296.21540  23729245.33040
  -2876808.74000  24523443.21300  -2164029.92240  24523448.76840
  -6641637.28500  22324709.98600  -5175296.84040  22324714.47540
  11535702.00200  23400057.45500   8988858.15940  23400061.01840
  -1246702.84200  21799355.35400   -971456.24640  21799358.61140
 96  9 13  1 39  0.0020000  0  6 14 15 18 22 25 29
  -2829403.82100  21002418.36900  -2204729.73640  21002422.65840
  12934801.98300  23753359.97100  10079062.46640  23753365.50240
  -2924919.52200  24514287.96300  -2201518.80940  24514294.76040
  -6671779.96100  22318974.36100  -5198784.61540  22318978.93240
  11648853.71700  23421589.38500   9077028.33940  23421592.63140
  -1244481.75900  21799777.91600   -969725.53040  21799781.23240
 96  9 13  1 39 30.0020000  0  6 14 15 18 22 25 29
  -2823568.90200  21003528.68900  -2200183.04740  21003532.93240
  13061729.63300  23777513.67400  10177967.07740  23777518.87740
  -2972944.67000  24505149.76800  -2238940.98340  24505154.50240
  -6701417.01700  22313334.46300  -5221878.39540  22313339.30340
  11762173.18000  23443153.19700   9165329.21240  23443156.81840
  -1242095.10100  21800231.98600   -967865.79040  21800235.33840
 96  9 13  1 40  0.0020000  0  6 14 15 18 22 25 29
  -2817243.71100  21004732.34600  -2195254.32740  21004736.58840
  13188833.46900  23801700.36100  10277008.97640  23801706.24440
  -3020874.51700  24496028.26800  -2276288.90040  24496033.49440
  -6730555.41500  22307789.54100  -5244583.61440  22307794.12340
  11875656.00200  23464748.75200   9253757.37940  23464751.99840
  -1239535.04100  21800719.32200   -965870.92740  21800722.86140
 96  9 13  1 40 30.0020000  0  6 14 15 18 22 25 29
  -2810444.55900  21006026.05700  -2189956.28940  21006030.35740
  13316078.06900  23825914.70500  10376160.55640  23825920.62340
  -3068757.83600  24486916.51000  -2313600.56240  24486921.71340
  -6759216.90000  22302335.22100  -5266917.21340  22302340.10740
  11989273.44900  23486368.97900   9342290.44940  23486372.47140
  -1236820.36400  21801235.94700   -963755.58640  21801239.18240
 96  9 13  1 41  0.0020000  0  6 14 15 18 22 25 29
  -2803159.65900  21007412.34600  -2184279.74540  21007416.56440
  13443470.35800  23850157.11900  10475427.23540  23850162.88540
  -3116607.21000  24477810.36100  -2350885.71340  24477815.63540
  -6787375.96600  22296976.75200  -5288859.32540  22296981.38140
  12103050.59700  23508020.15000   9430947.96740  23508023.87740
  -1233930.80600  21801785.81400   -961503.97640  21801789.17840
 96  9 13  1 41 30.0020000  0  6 14 15 18 22 25 29
  -2795381.88600  21008892.52500  -2178219.14340  21008896.67440
  13571012.29600  23874426.76000  10574810.51640  23874432.78340
  -3164428.20000  24468710.42400  -2388148.82940  24468716.92840
  -6815061.83400  22291708.16600  -5310432.69840  22291712.86540
  12216980.79200  23529699.90800   9519724.73340  23529703.55340
  -1230862.98900  21802369.56400   -959113.46140  21802372.86940
 96  9 13  1 42  0.0020000  0  6 14 15 18 22 25 29
  -2787084.29900  21010471.54100  -2171753.49040  21010475.67840
  13698713.06200  23898727.93900  10674317.57040  23898733.90440
  -3212205.63800  24459619.22100  -2425377.92740  24459626.08040
  -6842291.04500  22286526.80700  -5331650.23340  22286531.42440
  12331071.94000  23551410.97900   9608626.92840  23551414.79940
  -1227598.50800  21802990.61900   -956569.69940  21802993.93640
 96  9 13  1 42 30.0020000  0  6 14 15 18 22 25 29
  -2778261.15700  21012150.44700  -2164878.31340  21012154.71340
  13826569.15400  23923057.75200  10773945.65140  23923063.27140
  -3259944.72500  24450534.15000  -2462577.18840  24450540.35040
  -6869064.52000  22281432.16600  -5352512.66140  22281436.53740
  12445333.54200  23573154.11900   9697661.93640  23573158.10440
  -1224155.49900  21803645.82200   -953886.82740  21803649.16240
 96  9 13  1 43  0.0020000  0  6 14 15 18 22 25 29
  -2768924.67700  21013926.99400  -2157603.13240  21013931.18940
  13954560.88900  23947413.78300  10873679.43040  23947419.71340
  -3307656.41900  24441455.01800  -2499755.10140  24441458.70940
  -6895398.36300  22276420.73600  -5373032.51640  22276425.17840
  12559730.75200  23594923.31400   9786802.61840  23594926.88940
  -1220563.11400  21804329.29900   -951087.55640  21804332.53340
 96  9 13  1 43 30.0020000  0  6 14 15 18 22 25 29
  -2759058.16600  21015804.50200  -2149914.94040  21015808.72140
  14082690.33100  23971796.19700  10973520.52340  23971800.77940
  -3355331.59700  24432383.64300  -2536904.56940  24432388.36540
  -6921284.90000  22271494.68200  -5393203.81940  22271499.49840
  12674268.66700  23616719.47900   9876052.93540  23616723.01840
  -1216816.49700  21805042.56400   -948168.10840  21805045.84640
 96  9 13  1 44  0.0020000  0  6 14 15 18 22 25 29
  -2748664.72200  21017782.51800  -2141816.15340  21017786.64340
  14210956.96100  23996204.29900  11073468.49740  23996209.31440
  -3402962.69000  24423319.39300  -2574019.65440  24423325.00640
  -6946680.71500  22266662.26000  -5412992.74040  22266666.97140
  12788955.45800  23638543.43900   9965419.26640  23638546.73240
  -1212918.56400  21805784.22100   -945130.74440  21805787.47940
 96  9 13  1 44 30.0020000  0  6 14 15 18 22 25 29
  -2737763.07700  21019857.04100  -2133321.36040  21019861.18940
  14339357.16300  24020638.43200  11173520.54840  24020644.22140
  -3450557.03400  24414261.85400  -2611106.11840  24414266.43640
  -6971549.25000  22261929.65000  -5432370.79340  22261934.26840
  12903783.34400  23660394.63500  10054895.52340  23660398.18640
  -1208879.67200  21806552.72100   -941983.55140  21806555.99040
 96  9 13  1 45  0.0020000  0  6 14 15 18 22 25 29
  -2726362.78800  21022026.27500  -2124438.01640  21022030.47140
  14467880.83100  24045095.45500  11273668.83940  24045101.03340
  -3498113.27500  24405212.35400  -2648162.90240  24405217.40440
  -6995890.71000  22257297.81400  -5451338.13340  22257302.46740
  13018740.21000  23682270.09600  10144472.30640  23682273.54140
  -1204696.69200  21807348.58000   -938724.07340  21807351.95540
 96  9 13  1 45 30.0020000  0  6 14 15 18 22 25 29
  -2714459.28200  21024291.43900  -2115162.55840  21024295.72940
  14596540.66200  24069578.65800  11373923.20740  24069584.74040
  -3545606.52200  24396174.73600  -2685170.57140  24396179.71740
  -7019691.41200  22252768.43200  -5469884.11040  22252773.27140
  13133851.23900  23704174.98600  10234169.20540  23704178.47940
  -1200358.97800  21808174.01000   -935344.02740  21808177.38540
 96  9 13  1 46  0.0020000  0  6 14 15 18 22 25 29
  -2702083.41900  21026646.40000  -2105519.02540  21026650.70140
  14725313.86800  24094083.42400  11474265.90740  24094088.92040
  -3593056.16900  24387145.51800  -2722144.29440  24387150.54540
  -7042974.27900  22248337.83000  -5488026.58140  22248342.70540
  13249081.92700  23726102.83800  10323959.35540  23726106.70540
  -1195890.23500  21809024.54100   -931861.88340  21809027.86940
 96  9 13  1 46 30.0020000  0  6 14 15 18 22 25 29
  -2689216.88700  21029095.11100  -2095493.15440  21029099.30740
  14854201.30600  24118609.65000  11574697.64740  24118615.17040
  -3640468.46600  24378123.38500  -2759088.89440  24378128.98640
  -7065758.45900  22244002.07200  -5505780.45940  22244006.50240
  13364432.77400  23748053.29900  10413843.13040  23748056.81440
  -1191283.66000  21809901.04100   -928272.33340  21809904.36940
 96  9 13  1 47  0.0020000  0  6 14 15 18 22 25 29
  -2675848.08700  21031639.00200  -2085075.90740  21031643.18640
  14983197.06600  24143157.07200  11675213.78740  24143162.74440
  -3687842.58800  24369108.51800  -2796003.78140  24369113.81440
  -7088063.75300  22239757.59600  -5523161.18840  22239762.29540
  13479911.31900  23770027.72100  10503826.39140  23770030.90840
  -1186532.37800  21810805.16600   -924570.02940  21810808.45940
 96  9 13  1 47 30.0020000  0  6 14 15 18 22 25 29
  -2661974.73800  21034279.07200  -2074265.50140  21034283.29140
  15112303.33400  24167725.04100  11775816.01240  24167729.93940
  -3735183.23400  24360099.10400  -2832892.53540  24360104.45940
  -7109879.69700  22235606.15800  -5540160.59440  22235610.65840
  13595520.06500  23792027.66600  10593911.13940  23792030.83040
  -1181619.91700  21811740.00200   -920742.13140  21811743.36540
 96  9 13  1 48  0.0020000  0  6 14 15 18 22 25 29
  -2647576.77500  21037018.86100  -2063046.31040  21037023.16240
  15241525.51700  24192315.33000  11876508.57540  24192320.15840
  -3782488.17700  24351098.07200  -2869753.51140  24351102.72540
  -7131191.69200  22231550.58000  -5556767.31740  22231555.32640
  13711263.95600  23814053.26800  10684101.16840  23814056.49040
  -1176521.96000  21812710.08800   -916769.69140  21812713.33440
 96  9 13  1 48 30.0020000  0  6 14 15 18 22 25 29
  -2632666.12100  21039856.38500  -2051427.61840  21039860.62740
  15370830.25000  24216921.42400  11977265.46940  24216927.44740
  -3829777.76700  24342099.18200  -2906602.49440  24342104.23240
  -7152023.51400  22227586.48600  -5572999.87740  22227591.11540
  13827115.40800  23836098.79900  10774375.01440  23836102.87740
  -1171269.22700  21813709.82200   -912676.65040  21813713.05740
 96  9 13  1 49  0.0020000  0  6 14 15 18 22 25 29
  -2617238.41800  21042792.01800  -2039406.03440  21042796.15440
  15500220.08900  24241543.26800  12078088.66440  24241548.65840
  -3877031.91400  24333106.80700  -2943423.89240  24333111.93940
  -7172364.34200  22223715.72900  -5588849.84740  22223720.27540
  13943064.66300  23858163.21300  10864725.08540  23858167.78340
  -1165848.27800  21814741.11900   -908452.53040  21814744.30740
 96  9 13  1 49 30.0020000  0  6 14 15 18 22 25 29
  -2601298.13300  21045825.50200  -2026985.03340  21045829.70940
  15629696.09600  24266182.39300  12178979.00840  24266189.03740
  -3924239.87800  24324124.05700  -2980209.26740  24324128.76840
  -7192205.57600  22219940.03300  -5604310.52340  22219944.61540
  14059103.74300  23880244.42400  10955145.13840  23880248.67840
  -1160262.55100  21815804.23600   -904100.00740  21815807.55340
 96  9 13  1 50  0.0020000  0  6 14 15 18 22 25 29
  -2584824.68800  21048960.37700  -2014148.58240  21048964.60740
  15759265.80000  24290838.18200  12279942.36840  24290844.01840
  -3971382.41800  24315151.90000  -3016943.65140  24315157.51440
  -7211543.51100  22216260.05700  -5619379.01340  22216264.76840
  14175243.13600  23902345.33000  11045643.36540  23902349.06840
  -1154519.99300  21816897.04100   -899625.28040  21816900.28740
 96  9 13  1 50 30.0020000  0  6 14 15 18 22 25 29
  -2567843.34800  21052191.59600  -2000916.37040  21052195.77940
  15888902.47900  24315507.43200  12380957.89640  24315513.67840
  -4018484.31800  24306189.29100  -3053646.41440  24306194.27140
  -7230406.26400  22212670.43200  -5634077.24440  22212674.86140
  14291454.80800  23924459.51800  11136197.90540  23924463.60740
  -1148657.19400  21818012.70500   -895056.85940  21818015.97540
 96  9 13  1 51  0.0020000  0  6 14 15 18 22 25 29
  -2550355.47400  21055519.58800  -1987289.45140  21055523.83040
  16018623.28100  24340192.40000  12482038.98540  24340197.51040
  -4065527.19400  24297236.75200  -3090303.16940  24297240.73640
  -7248775.40000  22209175.02500  -5648390.82440  22209179.64340
  14407770.47100  23946593.52500  11226833.48640  23946597.19340
  -1142651.15100  21819155.46300   -890376.81940  21819158.83840
 96  9 13  1 51 30.0020000  0  6 14 15 18 22 25 29
  -2532376.00200  21058941.04900  -1973279.47940  21058945.26840
  16148412.45500  24364890.65000  12583173.35040  24364896.38140
  -4112526.33300  24288293.40000  -3126925.83340  24288297.49040
  -7266657.56100  22205772.19700  -5662324.95440  22205776.85040
  14524200.23100  23968749.72100  11317557.97140  23968753.00240
  -1136524.83800  21820321.39300   -885603.06540  21820324.69740
 96  9 13  1 52  0.0020000  0  6 14 15 18 22 25 29
  -2513877.09100  21062461.15000  -1958864.74140  21062465.36940
  16278277.97100  24389602.86900  12684367.23040  24389609.04540
  -4159488.32400  24279356.78300  -3163519.57440  24279361.89340
  -7284039.09700  22202464.43900  -5675868.98340  22202469.17440
  14640759.05600  23990929.78300  11408383.02740  23990933.33440
  -1130252.46600  21821514.65800   -880715.50040  21821518.01040
 96  9 13  1 52 30.0020000  0  6 14 15 18 22 25 29
  -2494858.68600  21066080.15800  -1944045.20640  21066084.42440
  16408218.42100  24414329.73600  12785619.47840  24414336.53340
  -4206411.88700  24270428.11900  -3200083.35540  24270432.05740
  -7300906.16800  22199255.03300  -5689012.13040  22199259.55740
  14757455.20600  24013136.33000  11499315.09240  24013140.25640
  -1123808.88100  21822741.12700   -875694.51840  21822744.33840
 96  9 13  1 53  0.0020000  0  6 14 15 18 22 25 29
  -2475308.57000  21069800.34600  -1928811.35340  21069804.64640
  16538239.51300  24439072.73600  12886934.54340  24439076.80340
  -4253289.93400  24261507.05700  -3236611.66640  24261512.84640
  -7317243.12100  22196145.97900  -5701742.20640  22196150.61940
  14874305.20500  24035372.70500  11590367.03040  24035377.18240
  -1117173.85300  21824003.65800   -870524.36240  21824006.93940
 96  9 13  1 53 30.0020000  0  6 14 15 18 22 25 29
  -2455232.10500  21073620.79100  -1913167.35940  21073625.10440
  16668310.00700  24463823.62700  12988288.13540  24463829.29940
  -4300164.05700  24252586.97100  -3273136.93940  24252591.65840
  -7333063.24200  22193135.54100  -5714069.55040  22193139.88940
  14991260.72600  24057628.01000  11681501.21640  24057631.08040
  -1110368.66700  21825298.57200   -865221.61640  21825301.87740
 96  9 13  1 54  0.0020000  0  6 14 15 18 22 25 29
  -2434615.81600  21077543.85400  -1897102.71840  21077548.11940
  16798441.15500  24488586.59600  13089688.95540  24488593.22940
  -4347023.11400  24243670.47100  -3309650.44740  24243674.80740
  -7348331.43800  22190229.99400  -5725966.82140  22190234.38940
  15108314.88500  24079902.97900  11772712.24040  24079907.23240
  -1103378.59700  21826628.83800   -859774.80240  21826632.14340
 96  9 13  1 54 30.0030000  0  6 14 15 18 22 25 29
  -2413493.59100  21081563.47600  -1880643.84440  21081567.57740
  16928617.47700  24513358.75700  13191125.01040  24513365.30840
  -4393869.89900  24234754.97600  -3346154.41140  24234760.54240
  -7363061.00600  22187427.03800  -5737444.38540  22187431.36240
  15225447.71500  24102192.64700  11863984.57340  24102196.04640
  -1096241.52900  21827987.10800   -854213.44740  21827990.37840
 96  9 13  1 55  0.0030000  0  6 14 15 18 22 25 29
  -2391856.01900  21085680.90500  -1863783.39740  21085685.13640
  17058835.21500  24538138.55400  13292593.30640  24538145.02240
  -4440697.54600  24225844.59300  -3382643.46140  24225849.06940
  -7377241.46100  22184728.63200  -5748494.06040  22184733.22640
  15342635.95100  24124492.58500  11955300.08340  24124496.11240
  -1088964.67100  21829371.64700   -848543.16240  21829374.84740
 96  9 13  1 55 30.0030000  0  6 14 15 18 22 25 29
  -2369684.22400  21089900.17900  -1846506.67840  21089904.39740
  17189106.69500  24562928.24900  13394103.49240  24562934.07340
  -4487488.86300  24216939.99900  -3419104.18340  24216943.97240
  -7390850.35700  22182139.10800  -5759098.37540  22182143.70240
  15459886.81900  24146804.60100  12046664.39840  24146808.10440
  -1081537.84000  21830784.96800   -842756.01440  21830788.28440
 96  9 13  1 56  0.0030000  0  6 14 15 18 22 25 29
  -2346997.53700  21094217.22600  -1828828.74040  21094221.51540
  17319424.30000  24587727.36600  13495649.65340  24587733.88240
  -4534236.66300  24208044.39700  -3455530.99640  24208048.97940
  -7403910.24400  22179653.79600  -5769274.88740  22179658.17940
  15577208.25600  24169130.35800  12138083.68640  24169134.15540
  -1073975.23000  21832224.03800   -836863.06540  21832227.39040
 96  9 13  1 56 30.0030000  0  6 14 15 18 22 25 29
  -2323796.26000  21098632.33500  -1810749.82440  21098636.63640
  17449783.59300  24612533.53000  13597228.25040  24612540.04640
  -4580941.68400  24199156.75700  -3491924.49640  24199161.60840
  -7416441.26700  22177269.10100  -5779039.30040  22177273.71840
  15694608.04800  24191471.17900  12229564.04640  24191474.09740
  -1066275.06500  21833689.36600   -830862.93340  21833692.58940
 96  9 13  1 57  0.0030000  0  6 14 15 18 22 25 29
  -2300083.60200  21103144.71000  -1792272.42840  21103148.84740
  17580167.07100  24637344.91300  13698825.72240  24637350.36240
  -4627624.99900  24190272.85100  -3528301.06940  24190278.19440
  -7428449.34500  22174983.86600  -5788396.22140  22174988.19040
  15812073.51200  24213823.89000  12321095.57040  24213827.41740
  -1058449.97900  21835178.31900   -824765.46040  21835181.68340
 96  9 13  1 57 30.0030000  0  6 14 15 18 22 25 29
  -2275866.40100  21107753.11600  -1773401.88440  21107757.41740
  17710580.09500  24662161.84300  13800446.22440  24662166.51940
  -4674285.82500  24181393.83500  -3564660.09740  24181398.31240
  -7439933.64900  22172798.69400  -5797345.00940  22172803.01940
  15929626.87300  24236193.41300  12412695.59940  24236196.89440
  -1050490.45500  21836692.83500   -818563.22740  21836696.08140
 96  9 13  1 58  0.0030000  0  6 14 15 18 22 25 29
  -2251143.06400  21112457.78000  -1754136.94640  21112462.04640
  17841034.99500  24686986.06200  13902099.33240  24686992.53040
  -4720908.49100  24172521.91300  -3600989.40040  24172526.69440
  -7450892.08600  22170713.22600  -5805884.02540  22170717.56240
  16047276.56100  24258581.26500  12504370.67940  24258584.85140
  -1042386.53500  21838235.14000   -812248.47840  21838238.32740
 96  9 13  1 58 30.0030000  0  6 14 15 18 22 25 29
  -2225913.91200  21117258.53000  -1734477.87040  21117262.70240
  17971511.16600  24711815.31900  14003769.02140  24711820.69840
  -4767507.40100  24163654.31200  -3637300.20540  24163659.18740
  -7461326.43800  22168727.75700  -5814014.67040  22168732.15140
  16164992.50000  24280981.78000  12596097.37240  24280986.03440
  -1034141.24000  21839804.16300   -805823.56840  21839807.51540
 96  9 13  1 59  0.0030000  0  6 14 15 18 22 25 29
  -2200177.67100  21122156.21000  -1714423.65940  21122160.56940
  18101994.46800  24736645.27200  14105444.24840  24736650.51140
  -4814095.52200  24154788.75700  -3673602.60940  24154794.13640
  -7471240.77400  22166840.98300  -5821740.11040  22166845.19040
  16282753.96800  24303391.28000  12687859.57140  24303394.55040
  -1025754.43900  21841400.04600   -799288.39740  21841403.25740
 96  9 13  1 59 30.0030000  0  6 14 15 18 22 25 29
  -2173921.61400  21127152.53000  -1693964.39440  21127156.73740
  18232493.34800  24761478.53800  14207131.63440  24761485.07740
  -4860643.75700  24145931.25700  -3709873.92140  24145935.80440
  -7480620.71100  22165055.96000  -5829049.12840  22165060.24940
  16400570.01000  24325811.21000  12779664.27940  24325814.55040
  -1017204.28200  21843027.16300   -792625.93140  21843030.52640
 96  9 13  2  0  0.0030000  0  6 14 15 18 22 25 29
  -2147132.22400  21132250.37400  -1673089.54940  21132254.66340
  18362997.03600  24786312.86600  14308822.75740  24786318.10440
  -4907145.79100  24137081.96000  -3746109.23040  24137086.30840
  -7489455.38600  22163375.10100  -5835933.27240  22163379.44840
  16518426.88400  24348238.67900  12871500.80040  24348242.21840
  -1008496.71100  21844684.25700   -785840.80740  21844687.55040
 96  9 13  2  0 30.0030000  0  6 14 15 18 22 25 29
  -2119798.81700  21137451.64000  -1651790.79540  21137455.97640
  18493502.26700  24811147.15500  14410515.07440  24811153.16740
  -4953612.69600  24128239.43700  -3782317.16340  24128243.64440
  -7497734.72700  22161799.42900  -5842384.68340  22161803.91740
  16636337.14100  24370675.79600  12963378.92740  24370678.91340
   -999628.85400  21846371.54600   -778930.78340  21846374.86240
 96  9 13  2  1  0.0030000  0  6 14 15 18 22 25 29
  -2091918.38200  21142757.26500  -1630065.78540  21142761.53040
  18624013.86300  24835982.60100  14512212.35540  24835989.37440
  -5000035.03700  24119405.62400  -3818490.38040  24119409.94840
  -7505456.34900  22160330.03000  -5848401.51040  22160334.22640
  16754316.57700  24393126.82700  13055310.94540  24393130.29640
   -990606.42900  21848088.60800   -771900.32140  21848091.93740
 96  9 13  2  1 30.0030000  0  6 14 15 18 22 25 29
  -2063506.32000  21148163.74100  -1607926.51840  21148168.01940
  18754523.48000  24860817.63200  14613908.08940  24860823.56240
  -5046411.87600  24110580.42100  -3854628.13340  24110584.69840
  -7512632.91100  22158964.35100  -5853993.61540  22158968.62840
  16872359.47800  24415589.42900  13147292.42940  24415592.88640
   -981436.87200  21849833.44400   -764755.20540  21849836.73740
 96  9 13  2  2  0.0030000  0  6 14 15 18 22 25 29
  -2034540.44100  21153675.85100  -1585355.71140  21153680.12840
  18885054.92400  24885657.28000  14715620.85640  24885663.47940
  -5092731.45600  24101766.69400  -3890721.27840  24101771.07740
  -7519257.46400  22157703.65500  -5859155.58440  22157707.93340
  16990491.80600  24438069.20200  13239343.61540  24438072.19040
   -972074.75900  21851615.01500   -757460.04740  21851618.31940
 96  9 13  2  2 30.0030000  0  6 14 15 18 22 25 29
  -2005048.93400  21159288.17100  -1562375.32240  21159292.31940
  19015592.37900  24910497.21800  14817338.29040  24910503.78040
  -5139009.77800  24092959.64000  -3926782.28940  24092964.43340
  -7525361.29800  22156542.10800  -5863911.79840  22156546.32740
  17108695.33400  24460562.83500  13331450.25240  24460566.83140
   -962526.20600  21853432.03000   -750019.61140  21853435.26540
 96  9 13  2  3  0.0030000  0  6 14 15 18 22 25 29
  -1975049.47800  21164996.84300  -1538999.12840  21165001.06240
  19146119.75700  24935336.49900  14919047.84540  24935342.64040
  -5185252.57500  24084159.78000  -3962815.59840  24084164.53840
  -7530958.18800  22155477.04600  -5868272.99340  22155481.41740
  17226935.39600  24483063.42900  13423585.36740  24483067.29640
   -952799.77800  21855282.83500   -742440.57840  21855286.06940
 96  9 13  2  3 30.0030000  0  6 14 15 18 22 25 29
  -1944541.77700  21170802.18700  -1515226.89840  21170806.41740
  19276638.65500  24960173.10100  15020750.84740  24960180.12440
  -5231465.04500  24075365.56900  -3998825.27640  24075369.76540
  -7536030.91000  22154511.72600  -5872225.74240  22154516.08540
  17345213.86400  24505570.56900  13515750.40440  24505574.57740
   -942883.17100  21857169.98300   -734713.34340  21857173.32340
 96  9 13  2  4  0.0030000  0  6 14 15 18 22 25 29
  -1913520.06300  21176705.12400  -1491054.13640  21176709.37840
  19407147.48600  24985008.77200  15122445.96140  24985013.82340
  -5277659.99600  24066575.15500  -4034821.30940  24066580.34740
  -7540565.93800  22153648.83500  -5875759.51440  22153653.42940
  17463542.09400  24528088.05400  13607954.21640  24528092.23740
   -932788.77800  21859090.92100   -726847.57840  21859094.15540
 96  9 13  2  4 30.0030000  0  6 14 15 18 22 25 29
  -1881993.79600  21182704.70200  -1466488.22040  21182708.93340
  19537620.57800  25009836.29600  15224113.25640  25009842.78840
  -5323849.56000  24057785.45200  -4070813.14640  24057789.56540
  -7544555.99800  22152889.57700  -5878868.63040  22152893.94840
  17581902.80700  24550610.71000  13700183.35140  24550614.54240
   -922564.10200  21861036.63200   -718880.29240  21861039.80840
 96  9 13  2  5  0.0030000  0  6 14 15 18 22 25 29
  -1849929.07200  21188806.30400  -1441502.72840  21188810.62840
  19668069.76700  25034659.80400  15325761.92240  25034665.82740
  -5370007.07200  24049002.06900  -4106779.98940  24049006.39440
  -7547977.90000  22152238.29600  -5881535.02940  22152242.58540
  17700323.76500  24573145.71800  13792459.41940  24573150.41740
   -912201.44700  21863008.49900   -710805.49440  21863011.72240
 96  9 13  2  5 30.0030000  0  6 14 15 18 22 25 29
  -1817305.50100  21195014.40500  -1416081.76740  21195018.72940
  19798504.38900  25059481.35100  15427399.19840  25059487.22240
  -5416125.06600  24040226.42100  -4142716.05540  24040231.05040
  -7550827.00700  22151696.30400  -5883755.09740  22151700.65140
  17818830.26300  24595696.91300  13884802.15240  24595700.66340
   -901697.09400  21865007.42900   -702620.27840  21865010.74540
 96  9 13  2  6  0.0030000  0  6 14 15 18 22 25 29
  -1784112.53900  21201330.78000  -1390217.12640  21201335.06940
  19928926.28600  25084299.96800  15529026.58340  25084306.72940
  -5462187.27300  24031460.76500  -4178608.66640  24031465.15940
  -7553105.68800  22151262.39700  -5885530.67740  22151266.67540
  17937418.89400  24618263.37400  13977208.87440  24618266.96040
   -891044.14000  21867034.77200   -694319.27440  21867038.03040
 96  9 13  2  6 30.0030000  0  6 14 15 18 22 25 29
  -1750360.10000  21207753.74900  -1363916.52840  21207758.01540
  20059319.01000  25109112.59300  15630631.25040  25109118.92140
  -5508184.89700  24022707.57700  -4214450.93140  24022712.05440
  -7554831.99400  22150933.99100  -5886875.82940  22150938.38640
  18056060.75100  24640840.32700  14069657.06740  24640844.41740
   -880251.57000  21869088.41300   -685909.47340  21869091.71840
 96  9 13  2  7  0.0030000  0  6 14 15 18 22 25 29
  -1716062.05600  21214280.45200  -1337190.77940  21214284.68340
  20189678.35500  25133919.44400  15732209.88340  25133924.94040
  -5554138.43400  24013962.84300  -4250258.85740  24013967.74140
  -7556016.88900  22150708.60100  -5887799.10740  22150712.97240
  18174733.22600  24663422.82700  14162129.12440  24663426.19040
   -869318.21900  21871168.92900   -677389.97240  21871172.16340
 96  9 13  2  7 30.0030000  0  6 14 15 18 22 25 29
  -1681232.29900  21220908.26500  -1310050.71540  21220912.49540
  20320003.45900  25158719.85800  15833761.85440  25158726.05840
  -5600061.42900  24005224.08500  -4286042.99140  24005228.59740
  -7556643.75700  22150588.98300  -5888287.55440  22150593.44840
  18293419.91200  24686008.37400  14254612.27340  24686013.06240
   -858235.45400  21873277.92100   -668754.05140  21873281.17940
 96  9 13  2  8  0.0030000  0  6 14 15 18 22 25 29
  -1645874.61500  21227636.56200  -1282499.27840  21227640.86240
  20450293.37900  25183513.26500  15935286.41340  25183519.87440
  -5645935.17400  23996494.24100  -4321788.73440  23996498.80040
  -7556694.44200  22150579.33500  -5888327.03240  22150583.67140
  18412117.84700  24708595.25700  14347104.16440  24708599.00740
   -846986.43700  21875418.53800   -659988.57640  21875421.92540
 96  9 13  2  8 30.0030000  0  6 14 15 18 22 25 29
  -1610010.48900  21234461.36600  -1254553.20540  21234465.64440
  20580527.84600  25208295.79600  16036767.73140  25208301.81940
  -5691781.00300  23987770.08500  -4357512.72440  23987775.39440
  -7556184.37400  22150676.56200  -5887929.55840  22150680.71040
  18530817.44300  24731183.47600  14439597.34640  24731187.85840
   -835589.47800  21877587.18700   -651107.82440  21877590.53840
 96  9 13  2  9  0.0030000  0  6 14 15 18 22 25 29
  -1573632.85300  21241383.85800  -1226207.00040  21241388.17140
  20710719.03800  25233070.55400  16138215.38140  25233076.49540
  -5737599.82300  23979050.86600  -4393215.68640  23979056.52640
  -7555092.82800  22150884.17900  -5887078.98140  22150888.44440
  18649531.66900  24753774.18700  14532101.94240  24753778.30040
   -824015.56500  21879789.69400   -642089.18640  21879793.11640
 96  9 13  2  9 30.0030000  0  7  4 14 15 18 22 25 29
      -915.30810  25849495.60100
  -1536737.50000  21248404.70200  -1197457.37640  21248408.86240
  20840854.73800  25257834.19400  16239619.73640  25257841.54640
  -5783383.96500  23970339.07700  -4428891.61640  23970344.15140
  -7553430.98000  22151200.46000  -5885784.01240  22151204.66740
  18768264.54000  24776368.12400  14624621.06140  24776371.00740
   -812277.18300  21882023.50700   -632942.38440  21882026.87040
 96  9 13  2 10  0.0030000  0  7  4 14 15 18 22 25 29
     -6134.56400  25848501.92900
  -1499327.82900  21255523.47600  -1168306.99040  21255527.72940
  20970921.76900  25282585.48300  16340970.61340  25282592.58940
  -5829138.55000  23961631.85800  -4464544.53240  23961636.15940
  -7551225.34600  22151620.03800  -5884065.31840  22151624.35140
  18887011.59900  24798964.93700  14717151.23540  24798968.42940
   -800395.66800  21884284.49900   -623684.06140  21884287.79240
 96  9 13  2 10 30.0030000  0  7  4 14 15 18 22 25 29
    -10856.28100  25847603.54600      -824.45150  25847609.00740
  -1461382.22900  21262744.29600  -1138738.99940  21262748.52640
  21100931.83700  25307325.31900  16442277.09740  25307332.56540
  -5874859.86700  23952931.47600  -4500171.48640  23952936.49140
  -7548460.58600  22152146.22600  -5881910.93340  22152150.43340
  19005783.77700  24821566.65500  14809700.97040  24821570.68740
   -788370.22600  21886572.78000   -614313.57840  21886576.07340
 96  9 13  2 11  0.0030000  0  8  4 14 15 18 19 22 25 29
    -15089.14300  25846797.46800     -4122.78440  25846803.74940
  -1422894.15500  21270068.33500  -1108748.29140  21270072.64740
  21230879.87700  25332054.10100  16543535.23840  25332060.55840
  -5920549.89300  23944236.98300  -4535774.07740  23944241.42540
    -10345.13910  25787515.81900
  -7545128.02400  22152780.37400  -5879314.10940  22152784.65140
  19124565.98000  24844170.11600  14902258.54140  24844173.83140
   -776212.08400  21888886.51500   -604839.69540  21888889.90140
 96  9 13  2 11 30.0030000  0  8  4 14 15 18 19 22 25 29
    -18827.22900  25846087.43700     -7035.49740  25846090.80040
  -1383840.48200  21277499.82700  -1078316.86240  21277504.08140
  21360788.24200  25356774.37400  16644762.45440  25356780.53840
  -5966163.48300  23935556.73300  -4571317.12640  23935560.97640
    -72322.08600  25775721.71800
  -7541202.36400  22153527.39700  -5876255.12940  22153531.78040
  19243401.60200  24866783.64700  14994857.72540  24866786.91740
   -763899.51700  21891229.43700   -595245.48040  21891232.69440
 96  9 13  2 12  0.0030000  0  8  4 14 15 18 19 22 25 29
    -22103.28600  25845463.77200     -9588.32040  25845467.62840
  -1344262.62900  21285031.29600  -1047476.98140  21285035.58540
  21490627.00900  25381482.35800  16745935.47540  25381488.25340
  -6011726.21100  23926886.38200  -4606820.50240  23926890.43740
   -134195.28400  25763948.00700    -11243.09150  25763953.51540
  -7536698.09900  22154384.57700  -5872745.29240  22154389.00740
  19362266.87300  24889403.11600  15087480.01440  24889407.13640
   -751436.40300  21893601.14000   -585533.95940  21893604.30440
 96  9 13  2 12 30.0030000  0  8  4 14 15 18 19 22 25 29
    -24918.49700  25844928.43700    -11781.95340  25844933.22940
  -1304155.73000  21292663.46000  -1016224.85740  21292667.79640
  21620406.43400  25406178.35100  16847062.20940  25406184.86640
  -6057229.11200  23918227.60800  -4642277.29740  23918232.24940
   -195967.52000  25752192.26500    -59377.27540  25752197.40940
  -7531582.89800  22155358.02200  -5868759.39840  22155362.18340
  19481173.84700  24912030.19400  15180134.79140  24912034.37840
   -738788.32700  21896007.92900   -575678.30940  21896011.21040
 96  9 13  2 13  0.0030000  0  8  4 14 15 18 19 22 25 29
    -27292.18300  25844475.36600    -13631.59040  25844480.83940
  -1263540.50300  21300392.37400   -984576.63740  21300396.65140
  21750116.26100  25430861.56200  16948134.76240  25430867.65540
  -6102681.70000  23909579.00700  -4677694.86140  23909583.35440
   -257640.32900  25740456.13200   -107434.00940  25740463.67140
  -7525879.38800  22156443.47600  -5864315.08240  22156447.74140
  19600123.24500  24934665.96000  15272822.63940  24934669.34740
   -725944.36300  21898452.07700   -565670.02140  21898455.41740
 96  9 13  2 13 30.0030000  0  8  4 14 15 18 19 22 25 29
    -29206.67100  25844111.48300    -15123.37840  25844116.74540
  -1222410.56200  21308219.21800   -952527.33640  21308223.53040
  21879761.21800  25455532.35100  17049156.72240  25455538.73740
  -6148078.51100  23900939.93700  -4713068.99340  23900944.07340
   -319202.78900  25728742.03800   -155404.71140  25728748.47240
  -7519584.93100  22157641.14700  -5859410.28740  22157645.36640
  19719128.67500  24957311.24900  15365554.15940  24957314.03840
   -712879.28300  21900938.18700   -555489.42940  21900941.42140
 96  9 13  2 14  0.0030000  0  8  4 14 15 18 19 22 25 29
    -30652.57600  25843836.35800    -16250.05940  25843839.99140
  -1180753.72200  21316146.32700   -920067.46340  21316150.67540
  22009333.65600  25480188.90500  17150122.18440  25480195.81240
  -6193444.72400  23892307.15500  -4748419.25340  23892310.96440
   -380656.20600  25717047.54600   -203290.46840  25717054.33140
  -7512698.07000  22158951.54600  -5854043.88340  22158955.61240
  19838161.51000  24979962.77200  15458307.00840  24979966.71040
   -699610.26800  21903463.21000   -545149.93240  21903466.46840
 96  9 13  2 14 30.0030000  0  8  4 14 15 18 19 22 25 29
    -31631.03700  25843650.54600    -17012.47740  25843653.96840
  -1138555.54000  21324176.21800   -887185.77340  21324180.51940
  22138822.17000  25504829.78800  17251022.30040  25504835.94040
  -6238789.38000  23883677.88200  -4783752.74040  23883682.07740
   -442001.75800  25705373.88200   -251092.16440  25705380.19840
  -7505241.13100  22160370.60800  -5848233.25740  22160374.86240
  19957198.58500  25002614.89700  15551063.15040  25002620.05440
   -686167.27600  21906021.27200   -534674.87040  21906024.40140
 96  9 13  2 15  0.0030000  0  8  4 14 15 18 19 22 25 29
    -32121.55400  25843557.35800    -17394.63240  25843562.53840
  -1095785.64500  21332314.92900   -853858.58240  21332319.26540
  22268228.39400  25529454.62400  17351858.21540  25529459.89740
  -6284101.81300  23875054.82700  -4819061.10040  23875059.65540
   -503225.34000  25693723.39700   -298798.85640  25693730.11240
  -7497219.16400  22161897.21000  -5841982.35740  22161901.46440
  20076240.85900  25025268.06200  15643823.36240  25025270.96840
   -672561.20900  21908610.37400   -524072.73540  21908613.62040
 96  9 13  2 15 30.0030000  0  8  4 14 15 18 19 22 25 29
    -32119.27200  25843557.87400    -17392.90540  25843563.48740
  -1052422.63100  21340566.79600   -820069.22740  21340571.12040
  22397548.68200  25554063.96800  17452627.22840  25554069.94440
  -6329378.02200  23866439.69400  -4854341.23440  23866444.51140
   -564321.21800  25682097.54600   -346405.95940  25682102.06940
  -7488613.73400  22163534.47600  -5835276.80440  22163538.83540
  20195276.67700  25047920.16300  15736578.53840  25047923.81940
   -658812.44600  21911226.88200   -513359.40640  21911230.10440
 96  9 13  2 16  0.0030000  0  8  4 14 15 18 19 22 25 29
    -31610.22700  25843654.71800    -16996.22840  25843660.09740
  -1008448.78900  21348934.56200   -785803.90040  21348938.83940
  22526798.55400  25578659.68700  17553341.32540  25578665.30040
  -6374598.53000  23857834.26500  -4889577.95740  23857838.64740
   -625273.86700  25670497.74100   -393901.47840  25670504.51540
  -7479419.30400  22165284.36600  -5828112.29640  22165288.86640
  20314323.71600  25070573.44400  15829342.48840  25070577.73340
   -644908.43800  21913872.66300   -502525.10940  21913875.88640
 96  9 13  2 16 30.0030000  0  8  4 14 15 18 19 22 25 29
    -30608.41400  25843844.21000    -16215.57840  25843850.55040
   -963880.11900  21357415.68700   -751075.07040  21357420.06940
  22655972.46200  25603240.74900  17653996.27840  25603246.79640
  -6419754.81600  23849241.38200  -4924764.64540  23849245.96440
   -686077.76600  25658928.12400   -441281.09840  25658934.96840
  -7469649.53000  22167143.27200  -5820499.46440  22167147.58540
  20433399.69900  25093233.03800  15922128.95840  25093237.31540
   -630830.38900  21916551.55400   -491555.19640  21916554.76540
 96  9 13  2 17  0.0030000  0  8  4 14 15 18 19 22 25 29
    -29113.72700  25844129.00700    -15050.93540  25844134.15140
   -918734.59800  21366006.60100   -715896.75040  21366011.00740
  22785075.19500  25627807.78800  17754595.72440  25627813.74140
  -6464844.30500  23840660.67900  -4959899.29340  23840664.78040
   -746715.63400  25647388.88200   -488531.32340  25647395.02240
  -7459291.64800  22169114.46800  -5812428.37140  22169118.69840
  20552514.92100  25115899.64000  16014946.01740  25115903.13240
   -616562.37900  21919266.83500   -480437.26240  21919270.12840
 96  9 13  2 17 30.0030000  0  8  4 14 15 18 19 22 25 29
    -27163.55300  25844499.85800    -13531.28740  25844505.22640
   -873074.30500  21374695.64000   -680317.30640  21374700.06940
  22914072.82100  25652355.09300  17855113.27540  25652362.22240
  -6509889.01200  23832089.50700  -4994999.03540  23832093.92540
   -807224.77700  25635874.04600   -535681.25440  25635880.85440
  -7448373.39500  22171191.99900  -5803920.62040  22171196.15940
  20671625.71400  25138566.07700  16107759.65140  25138570.50740
   -602133.27000  21922012.31200   -469193.79440  21922015.61640
 96  9 13  2 18  0.0030000  0  8  4 14 15 18 19 22 25 29
    -24735.68500  25844962.70200    -11639.44540  25844967.17940
   -826897.92200  21383482.81900   -644335.71240  21383487.24940
  23042984.19300  25676886.86600  17955563.61840  25676894.97940
  -6554859.34100  23823531.81200  -5030040.82340  23823536.49940
   -867586.65100  25624387.34300   -582716.42340  25624392.78040
  -7436874.97800  22173380.11600  -5794960.79540  22173384.37040
  20790755.22400  25161235.60800  16200587.81840  25161239.15940
   -587506.78800  21924795.64700   -457796.53340  21924798.81240
 96  9 13  2 18 30.0030000  0  8  4 14 15 18 19 22 25 29
    -21808.32000  25845518.98300     -9358.37940  25845524.15140
   -780203.74700  21392368.34300   -607950.64240  21392372.76140
  23171817.37700  25701403.06900  18055953.05040  25701408.81240
  -6599738.67400  23814991.62400  -5065011.71040  23814995.86640
   -927781.75700  25612932.55400   -629621.66640  25612938.31940
  -7424759.32300  22175685.51500  -5785520.00840  22175689.61640
  20909907.06500  25183908.97600  16293433.40740  25183912.42140
   -572686.45400  21927615.89700   -446248.20940  21927619.10840
 96  9 13  2 19  0.0030000  0  8  4 14 15 18 19 22 25 29
    -18392.09000  25846170.11600     -6696.35540  25846175.67140
   -733003.35700  21401350.34300   -571171.12440  21401354.62040
  23300553.33300  25725900.42900  18156266.71040  25725906.85140
  -6644551.38800  23806463.75700  -5099930.69840  23806467.71840
   -987843.62900  25601502.84300   -676423.03340  25601508.19840
  -7412033.57200  22178107.10100  -5775603.82240  22178111.24940
  21029044.03000  25206580.58500  16386267.41340  25206584.69840
   -557700.08400  21930467.85800   -434570.51540  21930471.06940
 96  9 13  2 19 30.0030000  0  8  4 14 15 18 19 22 25 29
    -14472.17500  25846915.47600     -3641.90340  25846919.91740
   -685268.05600  21410434.03000   -533974.79040  21410438.28440
  23429203.59700  25750381.96000  18256513.55840  25750387.55040
  -6689281.07900  23797952.00700  -5134784.97340  23797956.62440
  -1047768.18000  25590100.03800   -723117.44440  25590104.60840
  -7398685.62400  22180647.21000  -5765202.80440  22180651.48740
  21148192.58400  25229253.43700  16479110.44840  25229257.14040
   -542532.01200  21933354.30400   -422751.23440  21933357.62040
 96  9 13  2 20  0.0030000  0  8  4 14 15 18 19 22 25 29
    -10064.46000  25847755.27200      -207.28840  25847758.34340
   -636998.70500  21419619.41300   -496362.31040  21419623.67940
  23557745.29800  25774842.71800  18356675.85840  25774846.90140
  -6733964.52000  23789448.50700  -5169603.21540  23789453.05440
  -1107570.48500  25578719.83500   -769716.53740  25578725.41340
  -7384741.24600  22183300.70200  -5754337.03640  22183305.02640
  21267352.18200  25251929.12400  16571962.08340  25251933.06240
   -527196.19100  21936272.63200   -410801.23540  21936275.90140
 96  9 13  2 20 30.0030000  0  8  4 14 15 18 19 22 25 29
     -5165.70900  25848687.10100      3609.90640  25848691.82340
   -588177.71300  21428909.67900   -458319.98140  21428913.99140
  23686183.01000  25799283.10800  18456757.11140  25799289.10840
  -6778606.35400  23780953.79600  -5204389.04340  23780958.12040
  -1167247.07200  25567363.57700   -816217.73440  25567368.61640
  -7370206.84100  22186066.49100  -5743011.50540  22186070.87440
  21386530.92400  25274607.50700  16664828.64440  25274611.59740
   -511683.63100  21939224.44400   -398713.51940  21939227.71440
 96  9 13  2 21  0.0030000  0  8  4 14 15 18 19 22 25 29
       228.42700  25849712.19400      7813.14540  25849719.05440
   -538787.81700  21438308.16300   -419834.35440  21438312.51140
  23814527.61000  25823706.48300  18556765.85340  25823712.91740
  -6823191.67600  23772469.85800  -5239130.82440  23772474.56940
  -1226782.94400  25556034.61600   -862609.20740  25556040.65140
  -7355087.68200  22188943.48300  -5731230.32740  22188947.80840
  21505743.02900  25297293.31200  16757721.22240  25297297.46040
   -495963.57600  21942215.97600   -386464.12040  21942219.25740
 96  9 13  2 21 30.0040000  0  8  4 14 15 18 19 22 25 29
      6134.93200  25850835.89500     12415.62140  25850840.66440
   -488830.51200  21447814.78500   -380906.58940  21447819.05140
  23942781.44800  25848112.81600  18656703.83640  25848118.87540
  -6867698.66000  23764000.14500  -5273811.56340  23764004.73840
  -1286160.35800  25544735.63700   -908877.27240  25544742.01240
  -7339379.53800  22191932.52700  -5718990.17940  22191936.87540
  21624993.82000  25319985.45700  16850643.87340  25319988.94940
   -480033.04000  21945247.40200   -374050.71040  21945250.64840
 96  9 13  2 22  0.0040000  0  8  4 14 15 18 19 22 25 29
     12546.12200  25852057.62100     17411.38240  25852062.98840
   -438326.16100  21457425.53500   -341552.55440  21457429.83640
  24070915.57100  25872495.39500  18756548.52140  25872499.87140
  -6912134.44000  23755544.34800  -5308436.82240  23755548.55540
  -1345375.97100  25533467.23000   -955019.23140  25533471.80140
  -7323097.34000  22195030.95700  -5706302.74240  22195035.22340
  21744239.02700  25342677.10500  16943562.24240  25342681.21940
   -463904.10600  21948316.34000   -361482.70740  21948319.76240
 96  9 13  2 22 30.0040000  0  8  4 14 15 18 19 22 25 29
     19474.00500  25853374.53500     22809.74240  25853379.64540
   -387257.51400  21467143.55100   -301758.80240  21467147.94540
  24198951.56400  25896860.18400  18856316.78240  25896866.73440
  -6956464.85700  23747108.43400  -5342979.97440  23747112.57040
  -1404403.31400  25522234.41000  -1001014.52140  25522240.25840
  -7306202.78700  22198246.05100  -5693138.13940  22198250.15240
  21863488.13600  25365369.99600  17036483.61440  25365372.78540
   -447555.73600  21951427.38700   -348743.70240  21951430.76240
 96  9 13  2 23  0.0040000  0  8  4 14 15 18 19 22 25 29
     26895.86200  25854788.29300     28592.99240  25854791.83240
   -335652.72500  21476963.68400   -261547.28640  21476967.97340
  24326858.16100  25921200.00400  18955984.16740  25921205.68740
  -7000710.00200  23738688.77000  -5377456.68140  23738693.27040
  -1463258.12800  25511034.78500  -1046875.31040  25511040.58640
  -7288698.86200  22201576.91800  -5679498.70640  22201580.93740
  21982702.02200  25388055.39500  17129377.56140  25388058.11340
   -431017.05200  21954574.72300   -335856.41540  21954577.93440
 96  9 13  2 23 30.0040000  0  8  4 14 15 18 19 22 25 29
     34804.85400  25856292.75400     34755.85240  25856298.13340
   -283500.81400  21486887.83200   -220909.43740  21486892.03940
  24454631.13300  25945514.82400  19055547.45040  25945522.39840
  -7044882.23600  23730283.33200  -5411876.57040  23730287.60940
  -1521944.55600  25499866.30100  -1092604.94440  25499872.39540
  -7270581.43500  22205024.71500  -5665381.21340  22205028.77040
  22101885.45300  25410735.55100  17222247.76940  25410738.29340
   -414296.44100  21957756.61300   -322827.36340  21957759.85940
 96  9 13  2 24  0.0040000  0  8  4 14 15 18 19 22 25 29
     43177.70900  25857884.87100     41280.15840  25857892.00040
   -230795.78800  21496917.37100   -179840.59240  21496921.74240
  24582272.40200  25969803.18400  19155008.11840  25969809.71140
  -7088997.93000  23721888.16000  -5446252.42140  23721892.62540
  -1580466.13900  25488730.68400  -1138206.08940  25488736.74240
  -7251843.01800  22208590.48800  -5650779.83740  22208594.46140
  22221047.73100  25433411.15200  17315101.49140  25433414.82040
   -397378.14300  21960976.00400   -309644.27040  21960979.30940
 96  9 13  2 24 30.0040000  0  8  4 14 15 18 19 22 25 29
     52045.71800  25859574.23800     48190.28740  25859578.32840
   -177508.40000  21507057.59000   -138317.95840  21507061.97340
  24709809.99300  25994074.43400  19254388.02640  25994080.77340
  -7133032.63100  23713508.42600  -5480565.14740  23713512.94940
  -1638806.00200  25477628.36300  -1183665.63640  25477635.18440
  -7232449.25100  22212281.02000  -5635667.79540  22212285.26240
  22340232.63500  25456090.80100  17407972.85940  25456094.76240
   -380244.30900  21964236.38700   -296293.22340  21964239.58640
 96  9 13  2 25  0.0040000  0  7  4 14 18 19 22 25 29
     61408.04300  25861354.52700     55485.60940  25861359.25040
   -123647.66900  21517306.83200    -96348.56640  21517311.14540
  -7176996.65400  23705142.66000  -5514822.80440  23705146.85540
  -1696984.89800  25466557.52000  -1228999.75440  25466563.61340
  -7212428.98200  22216090.66800  -5620067.57140  22216094.88740
  22459439.42700  25478774.80900  17500861.30640  25478778.79340
   -362912.04600  21967534.77700   -282787.55940  21967538.09440
 96  9 13  2 25 30.0040000  0  7  4 14 18 19 22 25 29
     71254.71000  25863228.52000     63158.33240  25863234.26240
    -69228.74100  21527662.51200    -53944.21440  21527666.83640
  -7220907.55000  23696786.30100  -5549039.05740  23696790.78940
  -1755028.87100  25455512.27700  -1274228.75440  25455517.89140
  -7191811.50700  22220013.91800  -5604001.99740  22220018.14840
  22578667.96500  25501463.33200  17593766.63440  25501466.67240
   -345396.57900  21970867.71500   -269139.13940  21970870.96140
 96  9 13  2 26  0.0040000  0  7  4 14 18 19 22 25 29
     81577.70500  25865193.03500     71202.24040  25865198.46140
    -14288.78600  21538117.21500    -11133.86140  21538121.55140
  -7264779.22300  23688438.05100  -5583224.76140  23688442.72740
  -1812961.23600  25444488.52000  -1319370.78940  25444495.46140
  -7170613.55900  22224047.78500  -5587484.10040  22224051.98040
  22697893.14600  25524151.23800  17686669.39840  25524156.48840
   -327729.16000  21974229.69100   -255372.31540  21974232.91440
 96  9 13  2 26 30.0040000  0  7  4 14 18 19 22 25 29
     92434.87500  25867258.76200     79662.37940  25867262.44140
     41215.04900  21548679.23800     32115.87940  21548683.57440
  -7308565.01600  23680105.88700  -5617343.53040  23680110.22340
  -1870749.21400  25433490.48000  -1364400.32840  25433495.95340
  -7148795.25100  22228199.61300  -5570482.80340  22228203.73840
  22817158.15700  25546846.70700  17779603.19540  25546850.12940
   -309876.50900  21977626.89500   -241461.15640  21977630.19940
 96  9 13  2 27  0.0040000  0  7  4 14 18 19 22 25 29
    103824.92300  25869427.41000     88537.73040  25869431.80540
     97298.12700  21559351.15200     75816.96940  21559355.52340
  -7352258.74400  23671791.30100  -5651390.57340  23671795.77740
  -1928375.39300  25422525.35500  -1409303.75340  25422532.70740
  -7126337.15400  22232473.13700  -5552982.97240  22232477.32040
  22936460.02200  25569549.03500  17872565.69240  25569554.41440
   -291817.98100  21981063.48800   -227389.56840  21981066.73440
 96  9 13  2 27 30.0040000  0  7  4 14 18 19 22 25 29
    115672.48300  25871680.80100     97769.59340  25871686.41440
    153894.35800  21570121.24600    119917.92940  21570125.65240
  -7395940.23500  23663479.19100  -5685428.07440  23663483.32840
  -1985910.92800  25411576.84800  -1454136.56440  25411583.24640
  -7103299.42200  22236857.18400  -5535031.47740  22236861.26240
  23055722.50700  25592243.96500  17965497.50540  25592247.25840
   -273618.00300  21984526.71500   -213207.76240  21984529.96140
 96  9 13  2 28  0.0040000  0  7  4 14 18 19 22 25 29
    127979.59900  25874024.40200    107359.55240  25874028.91440
    211021.93900  21580992.37100    164432.91740  21580996.78940
  -7439588.79000  23655172.92600  -5719439.90140  23655176.88740
  -2043341.18100  25400647.80900  -1498887.32840  25400654.30140
  -7079672.44600  22241353.31600  -5516620.83440  22241357.43040
  23174939.02600  25614930.16000  18058393.51340  25614934.34440
   -255250.14900  21988021.98800   -198895.14540  21988025.25840
 96  9 13  2 28 30.0040000  0  7  4 14 18 19 22 25 29
    140771.09700  25876457.31600    117326.93340  25876463.65640
    268725.99800  21591973.05900    209397.11740  21591977.39540
  -7483167.52900  23646880.45700  -5753397.34740  23646884.86340
  -2100616.49100  25389748.82400  -1543517.36240  25389755.51640
  -7055427.95400  22245966.91000  -5497729.00940  22245971.04740
  23294125.24300  25637610.00400  18151265.90940  25637612.93440
   -236657.72100  21991559.95700   -184407.53140  21991563.30940
 96  9 13  2 29  0.0040000  0  7  4 14 18 19 22 25 29
    154033.78100  25878981.55900    127661.53840  25878985.98840
    326996.54700  21603061.73000    254802.73440  21603066.10240
  -7526668.77400  23638602.05900  -5787294.39740  23638606.41840
  -2157722.14000  25378881.36300  -1588015.18140  25378888.20740
  -7030588.61900  22250693.43400  -5478373.66840  22250697.59440
  23413268.33700  25660282.94900  18244104.66940  25660286.82840
   -217838.93400  21995140.92600   -169743.53540  21995144.10240
 96  9 13  2 29 30.0040000  0  7  4 14 18 19 22 25 29
    167782.48500  25881598.05900    138374.81440  25881601.82040
    385823.81100  21614255.98800    300642.15740  21614260.31240
  -7570085.10700  23630340.33200  -5821125.28040  23630344.52740
  -2214663.52100  25368046.03500  -1632385.03840  25368051.98840
  -7005165.04100  22255531.44100  -5458563.06940  22255535.56640
  23532364.15400  25682946.19900  18336906.64840  25682949.97340
   -198788.48900  21998766.15200   -154899.02540  21998769.49240
 96  9 13  2 30  0.0040000  0  7  4 14 18 19 22 25 29
    182011.19700  25884304.37900    149462.10840  25884309.09040
    445185.73500  21625552.29300    346898.19740  21625556.69940
  -7613418.45200  23622094.39500  -5854891.50240  23622098.63740
  -2271437.85500  25357242.20700  -1676624.69240  25357248.89840
  -6979159.49200  22260480.33200  -5438298.99040  22260484.28140
  23651392.31900  25705596.88700  18429655.88940  25705602.26640
   -179505.25800  22002435.62100   -139873.12640  22002438.84440
 96  9 13  2 30 30.0040000  0  7  4 14 18 19 22 25 29
    196720.19600  25887104.24600    160923.64240  25887108.74640
    505063.04500  21636946.52000    393555.83840  21636950.82040
  -7656678.05000  23613862.44100  -5888600.24940  23613866.84840
  -2328046.25300  25346470.32400  -1720735.03440  25346475.84440
  -6952565.85500  22265540.61300  -5417576.66240  22265544.53940
  23770364.98500  25728235.55100  18522361.87440  25728237.53140
   -160002.92100  22006146.83200   -124676.49840  22006150.23040
 96  9 13  2 31  0.0040000  0  7  4 14 18 19 22 25 29
    211924.84100  25889997.64500    172771.42740  25890001.57040
    565462.99300  21648440.35500    440620.73040  21648444.71540
  -7699852.88400  23605645.94100  -5922242.95340  23605650.23040
  -2384492.19400  25335728.06600  -1764718.84040  25335734.17240
  -6925359.73200  22270717.91800  -5396377.06840  22270722.09040
  23889309.46500  25750870.44900  18615045.92240  25750874.56240
   -140282.77900  22009899.49600   -109310.14440  22009902.87140
 96  9 13  2 31 30.0040000  0  7  4 14 18 19 22 25 29
    227627.62500  25892984.97300    185007.35940  25892989.78940
    626384.90800  21660033.34800    488092.33640  21660037.67240
  -7742957.72000  23597443.59000  -5955831.11640  23597447.96140
  -2440784.57600  25325016.41800  -1808582.96140  25325022.25440
  -6897525.05900  22276014.64500  -5374687.69740  22276018.78140
  24008226.02900  25773499.48000  18707708.19940  25773501.89540
   -120357.54300  22013691.19900    -93783.98440  22013694.39840
 96  9 13  2 32  0.0040000  0  7  4 14 18 19 22 25 29
    243783.85200  25896059.82400    197596.64740  25896065.91840
    687794.27600  21671719.23000    535943.79340  21671723.61340
  -7786009.04700  23589251.29300  -5989377.57840  23589255.06640
  -2496941.48200  25314330.09800  -1852341.52140  25314334.38740
  -6869099.82400  22281423.85500  -5352538.14640  22281427.98040
  24127092.58500  25796119.09800  18800331.53140  25796122.26240
   -100268.22700  22017514.11300    -78129.95940  22017517.37140
 96  9 13  2 32 30.0040000  0  7  4 14 18 19 22 25 29
    260386.10700  25899219.67600    210533.45240  25899224.75040
    749694.98900  21683498.37900    584178.10540  21683502.63340
  -7829005.94900  23581069.07400  -6022881.63440  23581072.96540
  -2552958.63400  25303669.98000  -1895991.20140  25303675.44140
  -6840099.97500  22286942.16000  -5329940.84040  22286946.28540
  24245923.68100  25818731.78500  18892927.22540  25818734.65640
    -80031.87700  22021364.82400    -62361.37040  22021368.04740
 96  9 13  2 33  0.0040000  0  7  4 14 18 19 22 25 29
    277479.19100  25902472.84000    223852.73640  25902476.75440
    812134.55300  21695380.39500    632832.30740  21695384.74240
  -7871900.13800  23572906.69900  -6056305.65140  23572910.85940
  -2608788.70500  25293046.39500  -1939495.08340  25293052.34840
  -6810490.09100  22292576.80100  -5306868.19340  22292580.87940
  24364753.85300  25841343.98800  18985522.14740  25841350.88340
    -59610.53300  22025251.00400    -46448.62640  22025254.28540
 96  9 13  2 33 30.0040000  0  7  4 14 18 19 22 25 29
    295051.70600  25905815.56600    237545.57240  25905821.14540
    875102.23300  21707362.66000    681898.02940  21707367.05540
  -7914699.80400  23564761.89500  -6089656.00640  23564765.90240
  -2664437.44100  25282456.52000  -1982857.67940  25282461.54740
  -6780298.59900  22298322.19900  -5283342.33740  22298326.12540
  24483565.02500  25863953.27700  19078102.34840  25863958.41040
    -39008.84200  22029171.34800    -30395.35140  22029174.55940
 96  9 13  2 34  0.0040000  0  7  4 14 18 19 22 25 29
    313097.50500  25909249.35500    251607.28040  25909255.60240
    938594.68200  21719444.87900    731372.66040  21719449.25040
  -7957407.66200  23556634.90200  -6122934.83740  23556639.06240
  -2719916.91000  25271898.85500  -2026088.34240  25271905.54740
  -6749539.67600  22304175.16000  -5259374.32740  22304179.08640
  24602347.14900  25886557.33200  19170659.85540  25886559.99240
    -18234.42400  22033124.62100    -14207.48540  22033127.86740
 96  9 13  2 34 30.0040000  0  7  4 14 18 19 22 25 29
    331641.95100  25912778.27000    266057.46040  25912783.23840
   1002641.35800  21731632.39500    781279.15240  21731636.69540
  -8000026.13100  23548525.02000  -6156144.01340  23548529.10940
  -2775225.25200  25261374.58200  -2069185.68840  25261379.59840
  -6718184.44900  22310141.99600  -5234941.66840  22310146.09840
  24721118.28500  25909159.12900  19263208.81840  25909163.77040
      2736.77900  22037115.31600      2133.72040  22037118.56240
 96  9 13  2 35  0.0040000  0  7  4 14 18 19 22 25 29
    350692.73300  25916403.37100    280902.27040  25916409.57040
   1067237.71600  21743925.00400    831613.97440  21743929.31640
  -8042557.88400  23540431.48800  -6189285.61540  23540435.57840
  -2830388.06500  25250877.16800  -2112169.65940  25250883.42640
  -6686226.03000  22316223.28500  -5210038.99340  22316227.35240
  24839866.00100  25931755.55900  19355739.54640  25931758.50040
     23905.83300  22041143.55900     18629.09640  22041146.77040
 96  9 13  2 35 30.0040000  0  6  4 14 18 19 22 29
    370252.92400  25920125.94900    296143.93240  25920129.45340
   1132383.18200  21756321.77700    882376.67140  21756326.17240
  -8085001.13200  23532354.80900  -6222358.25340  23532358.93440
  -2885404.24700  25240408.09000  -2155039.33240  25240413.24640
  -6653647.60700  22322422.97300  -5184653.19340  22322427.21540
     45278.65800  22045210.55100     35283.25140  22045213.80940
 96  9 13  2 36  0.0040000  0  6  4 14 18 19 22 29
    390325.35500  25923946.07400    311784.80440  25923951.74640
   1198061.56600  21768819.93400    933554.62740  21768824.29340
  -8127366.70100  23524292.84800  -6255370.35540  23524297.41840
  -2940277.47600  25229965.60500  -2197797.61940  25229972.05140
  -6620425.99600  22328744.87900  -5158766.20940  22328748.93440
     66859.77600  22049317.48800     52099.71540  22049320.66440
 96  9 13  2 36 30.0040000  0  6  4 14 18 19 22 29
    410878.39100  25927856.94100    327800.14440  25927863.52740
   1264253.24700  21781415.82400    985132.56040  21781420.24240
  -8169674.65900  23516241.84800  -6288337.57540  23516246.37140
  -2995021.12400  25219548.27000  -2240454.96940  25219553.97740
  -6586571.85500  22335187.07400  -5132386.34140  22335191.07040
     88636.43400  22053461.23000     69068.54740  22053464.48840
 96  9 13  2 37  0.0040000  0  6  4 14 18 19 22 29
    431903.08200  25931856.87900    344182.99140  25931860.98040
   1330943.94100  21794106.47300   1037099.33140  21794110.90240
  -8211915.48800  23508203.68400  -6321252.48440  23508207.82040
  -3049614.43400  25209159.23000  -2282995.14640  25209164.92640
  -6552087.29000  22341749.23800  -5105515.23740  22341753.38740
    110611.93300  22057643.01200     86192.32140  22057646.30540
 96  9 13  2 37 30.0040000  0  6  4 14 18 19 22 29
    453392.33100  25935946.90200    360927.91040  25935952.25840
   1398149.39900  21806895.25400   1089467.22240  21806899.64840
  -8254086.30400  23500178.98000  -6354112.83640  23500183.46940
  -3104034.00100  25198803.48000  -2325399.96440  25198809.11740
  -6516976.56500  22348430.46500  -5078156.21740  22348434.47340
    132800.55600  22061865.50400    103482.16540  22061868.73840
 96  9 13  2 38  0.0040000  0  6  4 14 18 19 22 29
    475325.97400  25940121.80100    378019.03540  25940126.48840
   1465880.57500  21819784.10500   1142244.75440  21819788.53540
  -8296194.87400  23492165.97300  -6386924.67740  23492170.03940
  -3158295.52000  25188478.29300  -2367681.57740  25188484.57440
  -6481274.51800  22355224.41800  -5050336.42740  22355228.40240
    155200.15600  22066127.88700    120936.40840  22066131.09840
 96  9 13  2 38 30.0040000  0  6  4 14 18 19 22 29
    497683.10900  25944375.25400    395440.11740  25944376.57840
   1534149.22700  21832775.26200   1195441.10040  21832779.59840
  -8338229.67400  23484167.01200  -6419679.03940  23484170.86740
  -3212395.07100  25178183.58200  -2409836.99540  25178189.31240
  -6445005.92800  22362126.03500  -5022075.17040  22362129.98440
    177805.38800  22070429.48800    138550.88740  22070432.78140
 96  9 13  2 39  0.0040000  0  6  4 14 18 19 22 29
    520509.31800  25948718.73800
   1602973.22600  21845872.07400   1249070.18140  21845876.50440
  -8380156.86000  23476188.30900  -6452349.53940  23476192.12940
  -3266307.97400  25167924.02700  -2451847.03740  25167930.36740
  -6408149.70700  22369139.37100  -4993356.02540  22369143.40240
    200653.97100  22074777.51200    156354.98540  22074780.72340
 96  9 13  2 39 30.0040000  0  6  4 14 18 19 22 29
    543780.46800  25953147.31600      7900.23950  25953157.28140
   1672333.74100  21859070.87100   1303117.33440  21859075.37140
  -8422013.27900  23468223.57400  -6484964.90140  23468227.52340
  -3320085.80300  25157690.31600  -2493751.76440  25157695.95340
  -6370739.20100  22376258.41800  -4964204.96540  22376262.30940
    223705.43800  22079164.06600    174317.18040  22079167.37140
 96  9 13  2 40  0.0040000  0  6  4 14 18 19 22 29
    567490.35800  25957659.18400     26375.41540  25957662.86340
   1742198.46400  21872365.61300   1357557.36940  21872370.00840
  -8463813.21200  23460268.98000  -6517536.24240  23460272.55540
  -3373753.44600  25147477.75400  -2535570.65740  25147483.68440
  -6332774.42100  22383482.86300  -4934622.00440  22383486.89540
    246943.08900  22083586.03500    192424.45040  22083589.31640
 96  9 13  2 40 30.0040000  0  6  4 14 18 19 22 29
    591642.09400  25962256.30100     45194.93040  25962260.56640
   1812524.23500  21885748.22300   1412356.67240  21885752.68740
  -8505569.65600  23452323.18400  -6550073.71040  23452326.73440
  -3427314.04700  25137285.25400  -2577306.10640  25137291.66440
  -6294252.53200  22390813.39500  -4904604.93740  22390817.43740
    270343.03600  22088038.81600    210658.18440  22088042.06240
 96  9 13  2 41  0.0040000  0  6  4 14 18 19 22 29
    616300.63900  25966947.82400     64409.40140  25966951.37540
   1883350.52300  21899225.98800   1467545.98140  21899230.28940
  -8547242.73600  23444392.80900  -6582546.21740  23444397.20340
  -3480732.56300  25127119.80100  -2618930.88640  25127124.95740
  -6255125.12000  22398259.08200  -4874116.03140  22398263.14840
    293934.74200  22092528.27000    229041.34340  22092531.63340
 96  9 13  2 41 30.0040000  0  6  4 14 18 19 22 29
    641459.73000  25971736.16800     84013.84140  25971739.93040
   1954692.31500  21912802.08200   1523136.98540  21912806.50040
  -8588831.40300  23436479.09800  -6614952.94440  23436483.25840
  -3534010.82700  25116981.94900  -2660446.35740  25116988.34840
  -6215383.42100  22405821.84800  -4843148.46240  22405825.94940
    317708.69400  22097052.21500    247566.50640  22097055.52040
 96  9 13  2 42  0.0040000  0  6  4 14 18 19 22 29
    667117.71300  25976616.86300    104007.08840  25976621.25840
   2026535.58300  21926473.37100   1579118.74340  21926477.67240
  -8630322.96800  23428583.25400  -6647284.01040  23428586.95740
  -3587133.28800  25106872.66800  -2701840.44940  25106879.25440
  -6175027.00400  22413501.28500  -4811701.89040  22413505.34040
    341679.29900  22101613.69100    266244.90540  22101617.03140
 96  9 13  2 42 30.0040000  0  6  4 14 18 19 22 29
    693303.26700  25981600.95700    124411.39740  25981606.26640
   2098923.22400  21940248.19100   1635524.70140  21940252.53940
  -8671686.27000  23420712.11300  -6679515.14240  23420716.16840
  -3640063.45000  25096800.31600  -2743084.65140  25096806.52740
  -6134041.01700  22421300.62900  -4779764.74140  22421304.64840
    365875.44300  22106218.22300    285099.05540  22106221.41040
 96  9 13  2 43  0.0040000  0  6  4 14 18 19 22 29
    719998.74200  25986680.46500    145213.05940  25986685.07040
   2171863.88900  21954128.40200   1692361.57640  21954132.87940
  -8712936.38800  23412862.56600  -6711658.04840  23412866.65640
  -3692817.01800  25086761.48000  -2784191.28940  25086767.68040
  -6092441.67200  22429216.75400  -4747349.65640  22429220.76240
    390299.59200  22110865.80900    304130.86440  22110868.94940
 96  9 13  2 43 30.0040000  0  6  4 14 18 19 22 29
    747183.92400  25991852.94100    166396.31040  25991857.95740
   2245345.62800  21968111.34000   1749620.07440  21968115.81640
  -8754084.52500  23405032.20700  -6743721.51640  23405036.02740
  -3745387.31800  25076757.61300  -2825155.08240  25076763.14540
  -6050243.06300  22437246.95700  -4714467.60840  22437251.04740
    414967.42100  22115560.00400    323352.55440  22115563.22740
 96  9 13  2 44  0.0040000  0  6  4 14 18 19 22 29
    774829.82600  25997113.83200    187938.56840  25997119.90240
   2319335.19100  21982191.12100   1807274.28240  21982195.64540
  -8795159.02500  23397215.79300  -6775727.59140  23397219.88340
  -3797790.55900  25066786.05100  -2865988.73440  25066792.52040
  -6007481.79800  22445383.86300  -4681147.12440  22445387.89540
    439858.43800  22120296.43400    342748.16440  22120299.70340
 96  9 13  2 44 30.0040000  0  6  4 14 18 19 22 29
    802952.88300  26002466.02700    209852.60740  26002470.48040
   2393846.82000  21996370.19900   1865335.28840  21996374.74640
  -8836153.57400  23389414.73000  -6807671.37140  23389419.19540
  -3850023.07700  25056846.25400  -2906689.35440  25056852.11340
  -5964147.80600  22453630.12100  -4647380.36740  22453634.16440
    464979.16900  22125076.73800    362322.76140  22125079.93740
 96  9 13  2 45  0.0040000  0  6  4 14 18 19 22 29
    831533.24500  26007905.35500    232122.98840  26007909.72740
   2468863.34000  22010645.41800   1923789.71940  22010649.82440
  -8877069.45000  23381628.77000  -6839553.84140  23381632.93040
  -3902080.48100  25046940.16800  -2947253.50140  25046945.38340
  -5920242.84000  22461984.92600  -4613168.68240  22461989.00440
    490328.14800  22129900.74600    382075.22740  22129903.91040
 96  9 13  2 45 30.0040000  0  6  4 14 18 19 22 29
    860564.75400  26013430.86300    254744.93140  26013435.22340
   2544384.14700  22025016.66800   1982637.10340  22025021.08640
  -8917891.68500  23373860.52700  -6871363.34440  23373864.53540
  -3953964.37900  25037066.47300  -2987682.46940  25037072.81240
  -5875760.28300  22470449.61300  -4578506.93740  22470453.63340
    515904.54800  22134767.59800    402004.89540  22134770.82040
 96  9 13  2 46  0.0040000  0  6  4 14 18 19 22 29
    890056.21000  26019041.51200    277725.29540  26019046.52740
   2620429.77100  22039487.63700   2041893.42940  22039491.89140
  -8958600.38900  23366113.73000  -6903084.37840  23366117.82040
  -4005669.50100  25027227.80100  -3027972.11240  25027232.82840
  -5830670.05700  22479030.12100  -4543371.67640  22479034.09440
    541712.61500  22139678.77700    422115.08740  22139681.96540
 96  9 13  2 46 30.0040000  0  6  4 14 18 19 22 29
    919984.05600  26024737.29300    301045.66040  26024742.30940
   2696978.84000  22054054.44900   2101542.05240  22054058.82040
  -8999203.04400  23358387.46500  -6934722.79140  23358391.71940
  -4057209.87300  25017420.05100  -3068133.37440  25017426.32040
  -5784986.78900  22487723.46500  -4507774.30640  22487727.32040
    567732.62000  22144630.15200    442390.42740  22144633.41040
 96  9 13  2 47  0.0040000  0  6  4 14 18 19 22 29
    950340.90800  26030513.37900    324700.36240  26030516.64840
   2774046.29300  22068719.86300   2161594.60840  22068724.23440
  -9039688.24000  23350683.36300  -6966269.66540  23350687.62940
  -4108571.86000  25007645.70700  -3108155.64340  25007650.47740
  -5738698.17200  22496531.85500  -4471705.23540  22496535.87540
    593978.42500  22149624.56600    462841.71040  22149627.77740
 96  9 13  2 47 30.0040000  0  6  4 14 18 19 22 29
    981142.83700  26036374.13700    348701.80740  26036378.18040
   2851643.68300  22083486.03500   2222060.10440  22083490.48840
  -9080046.37900  23343003.44100  -6997717.55140  23343007.55540
  -4159759.79900  24997905.47300  -3148042.29640  24997910.81640
  -5691785.25800  22505459.01200  -4435149.70440  22505462.92640
    620450.42900  22154662.00400    483469.25740  22154665.25040
 96  9 13  2 48  0.0040000  0  6  4 14 18 19 22 29
   1012397.63600  26042322.45700    373056.20740  26042328.80940
   2929767.52100  22098352.60500   2282935.82040  22098357.10540
  -9120278.01200  23335347.76200  -7029066.85640  23335351.80540
  -4210760.77900  24988199.04300  -3187783.23940  24988204.52740
  -5644257.37000  22514503.27700  -4398114.96840  22514507.28540
    647148.55400  22159742.57400    504273.00040  22159745.91440
 96  9 13  2 48 30.0040000  0  6  4 14 18 19 22 29
   1044099.90400  26048355.62100    397759.27740  26048359.32440
   3008391.51600  22113314.05900   2344201.26340  22113318.46540
  -9160395.84600  23327713.15200  -7060327.46740  23327717.39540
  -4261592.25100  24978527.41800  -3227392.11140  24978533.54740
  -5596145.83000  22523658.59000  -4360625.43940  22523662.68040
    674051.50900  22164861.89500    525236.35240  22164865.11740
 96  9 13  2 49  0.0050000  0  6  4 14 18 19 22 29
   1076268.69200  26054476.34500    422825.85040  26054481.20840
   3087527.93700  22128373.32100   2405866.00540  22128377.70440
  -9200393.41600  23320102.24300  -7091494.37840  23320106.36840
  -4312259.60000  24968884.79800  -3266873.09540  24968889.95440
  -5547434.81300  22532927.87600  -4322668.78740  22532931.89540
    701176.33400  22170023.71200    546372.59140  22170026.91140
 96  9 13  2 49 30.0050000  0  6  4 14 18 19 22 29
   1108900.89700  26060686.89200    448253.52540  26060690.26740
   3167150.65800  22143525.15700   2467909.68040  22143529.42340
  -9240284.68800  23312510.78200  -7122578.47040  23312514.75540
  -4362775.70200  24959271.69600  -3306236.22940  24959276.68840
  -5498149.69200  22542306.57100  -4284264.77740  22542310.59140
    728499.01000  22175222.93100    567662.99840  22175226.10640
 96  9 13  2 50  0.0050000  0  6  4 14 18 19 22 29
   1141981.89300  26066982.75100    474030.91740  26066987.77840
   3247226.75400  22158763.04800   2530306.63340  22158767.48940
  -9280092.52900  23304935.93800  -7153597.54540  23304940.23940
  -4413169.91700  24949682.38400  -3345504.37540  24949687.73940
  -5448329.31200  22551787.05600  -4245443.68940  22551791.06340
    756004.88300  22180457.00900    589096.15140  22180460.32540
 96  9 13  2 50 30.0050000  0  6  4 14 18 19 22 29
   1175552.79900  26073371.04000    500190.04640  26073374.68540
   3327775.75300  22174091.03200   2593072.09040  22174095.49740
  -9319785.96900  23297382.54800  -7184527.48740  23297386.32140
  -4463413.84200  24940120.82100  -3384655.40640  24940125.97840
  -5397924.43400  22561378.84500  -4206167.14440  22561382.74740
    783735.97300  22185734.27400    610704.80740  22185737.46240
 96  9 13  2 51  0.0050000  0  6  4 14 18 19 22 29
   1209590.28600  26079847.60300    526712.78240  26079852.67740
   3408784.36300  22189506.37600   2656195.68240  22189510.79440
  -9359388.22400  23289846.35300  -7215386.37740  23289850.03240
  -4513518.65900  24930586.60300  -3423698.02440  24930592.79040
  -5346953.01300  22571078.32900  -4166449.13740  22571082.39540
    811681.39100  22191052.09500    632480.46740  22191055.27040
 96  9 13  2 51 30.0050000  0  6  4 14 18 19 22 29
   1244101.73100  26086414.93100    553604.78740  26086421.10640
   3490272.51200  22205013.18100   2719692.93140  22205017.56340
  -9398895.99700  23282328.40700  -7246171.61840  23282332.25140
  -4563456.48100  24921083.65700  -3462610.56040  24921088.79040
  -5295421.34500  22580884.55600  -4126294.57440  22580888.50540
    839848.28600  22196412.05600    654428.70540  22196415.19640
 96  9 13  2 52  0.0050000  0  6  4 14 18 19 22 29
   1279085.58400  26093071.86800    580864.85340  26093077.31740
   3572245.26500  22220612.22800   2783567.79940  22220616.58740
  -9438310.07900  23274827.94600  -7276883.86340  23274831.79040
  -4613213.93900  24911615.16500  -3501382.52540  24911620.89540
  -5243326.67100  22590797.74300  -4085701.30940  22590801.64540
    868248.99000  22201816.73500    676559.13140  22201819.86440
 96  9 13  2 52 30.0050000  0  6  4 14 18 19 22 29
   1314525.90700  26099815.11800    608480.70040  26099820.80240
   3654718.15400  22236306.09500   2847832.38340  22236310.51340
  -9477630.26400  23267345.60300  -7307522.96240  23267349.41140
  -4662773.55400  24902184.45400  -3540000.34240  24902190.89940
  -5190661.10300  22600819.61000  -4044663.18940  22600823.61840
    896888.79500  22207266.42300    698875.87140  22207269.59940
 96  9 13  2 53  0.0050000  0  6  4 14 18 19 22 29
   1350403.56600  26106642.10300    636437.27240  26106646.22840
   3737698.95200  22252096.82100   2912492.74140  22252101.14540
  -9516872.42100  23259878.30600  -7338101.23840  23259882.10340
  -4712144.09200  24892789.07900  -3578470.79340  24892793.88440
  -5137440.92100  22610947.00900  -4003192.89640  22610950.89940
    925758.09100  22212760.18100    721371.43540  22212763.36840
 96  9 13  2 53 30.0050000  0  6  4 14 18 19 22 29
   1386740.58300  26113557.12600    664751.82440  26113565.34540
   3821196.51700  22267985.89200   2977555.78140  22267990.25140
  -9556014.78500  23252429.57900  -7368601.76340  23252433.45840
  -4761309.38500  24883433.34500  -3616781.33240  24883438.24340
  -5083629.84100  22621186.94600  -3961262.17440  22621190.90740
    954885.79500  22218302.82100    744068.35940  22218305.96240
 96  9 13  2 54  0.0050000  0  6  4 14 18 19 22 29
   1423519.14200  26120555.57100    693410.41840  26120559.63840
   3905176.34200  22283966.88400   3042994.59740  22283971.24340
  -9595061.96900  23244999.23500  -7399028.11440  23245003.19640
  -4810308.96500  24874108.96200  -3654962.74940  24874114.59940
  -5029224.74800  22631539.82100  -3918868.57840  22631543.75940
    984264.16500  22223893.38400    766960.60440  22223896.59540
 96  9 13  2 54 30.0050000  0  6  4 14 18 19 22 29
   1460749.72800  26127640.50100    722421.25240  26127646.41940
   3989647.08700  22300041.11000   3108815.95240  22300045.56340
  -9633986.07700  23237591.89900  -7429358.56240  23237595.81340
  -4859139.42600  24864816.58700  -3693012.38240  24864822.48140
  -4974206.58400  22642009.35300  -3875997.27040  22642013.27840
   1013909.61000  22229534.79800    790060.96140  22229538.02040
 96  9 13  2 55  0.0050000  0  6  4 14 18 19 22 29
   1498422.04200  26134810.99300    751776.27440  26134815.31740
   4074578.14600  22316202.75900   3174995.99940  22316207.14240
  -9672803.63200  23230205.24300  -7459605.98240  23230208.92340
  -4907834.76100  24855550.49300  -3730956.73040  24855556.16540
  -4918593.32400  22652592.22000  -3832662.24440  22652596.21640
   1043796.23900  22235222.03200    813349.25340  22235225.19640
 96  9 13  2 55 30.0050000  0  6  4 14 18 19 22 29
   1536553.62400  26142066.75100    781489.14940  26142070.44240
   4159984.51900  22332455.18100   3241546.41340  22332459.48140
  -9711481.90900  23222844.79800  -7489744.87740  23222848.98140
  -4956373.07500  24846313.50900  -3768778.70440  24846319.84940
  -4862375.53900  22663290.27400  -3788856.16740  22663294.23540
   1073938.40200  22240957.86800    836836.66240  22240961.10340
 96  9 13  2 56  0.0050000  0  6  4 14 18 19 22 29
   1575132.57000  26149407.57100    811550.66140  26149411.54440
   4245870.62900  22348798.67300   3308470.65740  22348803.20840
  -9750012.69300  23215513.06300  -7519768.84440  23215516.86040
  -5004756.45000  24837106.22800  -3806479.97040  24837111.22040
  -4805581.18200  22674097.67300  -3744600.80540  22674101.62240
   1104323.11900  22246739.76700    860513.07140  22246742.91940
 96  9 13  2 56 30.0050000  0  6  4 14 18 19 22 29
   1614168.37700  26156835.10300    841968.15640  26156838.47840
   4332256.30400  22365237.41500   3375784.16840  22365241.85640
  -9788388.33600  23208210.01700  -7549671.91440  23208214.10640
  -5052951.76500  24827935.30600  -3844034.69340  24827939.80640
  -4748205.52000  22685016.01700  -3699892.48640  22685019.67340
   1134951.61500  22252568.32100    884379.43940  22252571.49740
 96  9 13  2 57  0.0050000  0  6  4 14 18 19 22 29
   1653629.56800  26164345.50100    872717.14140  26164351.73540
   4419117.27500  22381766.56300   3443468.03640  22381771.04040
  -9826648.96500  23200929.29800  -7579485.36340  23200933.41140
  -5100985.46600  24818794.56300  -3881463.47540  24818798.74740
  -4690284.13900  22696038.07100  -3654758.92640  22696041.95040
   1165784.83600  22258435.50900    908405.33440  22258438.72040
 96  9 13  2 57 30.0050000  0  6  4 14 18 19 22 29
   1693537.04400  26171939.94600    903813.83740  26171942.86440
   4506494.67200  22398393.92300   3511554.31840  22398398.31740
  -9864757.06200  23193677.78200  -7609179.96040  23193681.57940
  -5148810.89500  24809693.73500  -3918729.96240  24809700.20440
  -4631805.56400  22707166.21200  -3609191.18740  22707170.11440
   1196859.56300  22264348.93100    932619.41740  22264352.07140
 96  9 13  2 58  0.0050000  0  6  4 14 18 19 22 29
   1733846.34800  26179609.93800    935223.63340  26179614.07540
   4594355.42400  22415113.14200   3580017.24540  22415117.61840
  -9902749.85800  23186447.86000  -7638784.71440  23186451.86840
  -5196465.79100  24800625.44600  -3955863.59340  24800631.00140
  -4572798.99800  22718394.75900  -3563212.03640  22718398.66140
   1228143.03900  22270302.02400    956996.15140  22270305.21240
 96  9 13  2 58 30.0050000  0  6  4 14 18 19 22 29
   1774562.21700  26187358.21200    966950.28940  26187362.22040
   4682699.46500  22431924.61000   3648856.75640  22431929.02840
  -9940631.90600  23179239.00100  -7668303.16440  23179243.20840
  -5243946.89200  24791589.72000  -3992861.78740  24791595.57940
  -4513249.60200  22729726.48500  -3516809.89340  22729730.48140
   1259642.39800  22276296.05600    981541.11940  22276299.36040
 96  9 13  2 59  0.0050000  0  6  4 14 18 19 22 29
   1815697.16900  26195186.67300    999003.47540  26195192.14540
   4771528.97100  22448828.25100   3718074.55040  22448832.59940
  -9978386.28700  23172054.48500  -7697722.13740  23172058.52840
  -5291248.59000  24782588.54000  -4029720.18940  24782593.36840
  -4453145.19500  22741164.17300  -3469975.27440  22741168.01740
   1291382.41200  22282335.89200   1006273.60540  22282339.11440
 96  9 13  2 59 30.0050000  0  6  4 14 18 19 22 29
   1857266.26600  26203094.79000   1031394.96740  26203101.59940
   4860840.63400  22465823.57100   3787668.04840  22465828.10640
 -10015990.51700  23164898.82100  -7727024.11040  23164902.77040
  -5338360.01500  24773623.73500  -4066430.32940  24773629.41940
  -4392475.35400  22752709.14200  -3422700.06240  22752713.16140
   1323378.90100  22288424.86800   1031205.94840  22288428.07940
 96  9 13  3  0  0.0050000  0  6  4 14 18 19 22 29
   1899300.27600  26211094.09500   1064148.69640  26211098.10340
   4950625.90500  22482909.18100   3857630.58740  22482913.75140
 -10053432.95900  23157773.57900  -7756200.01740  23157777.24740
  -5385272.53500  24764696.66500  -4102985.47140  24764701.56340
  -4331197.28800  22764370.07900  -3374950.90440  22764374.02840
   1355642.07200  22294564.26700   1056346.08640  22294567.46640
 96  9 13  3  0 30.0050000  0  6  4 14 18 19 22 29
   1941799.95500  26219182.29000   1097265.28940  26219186.63840
   5040863.85300  22500080.94600   3927945.87040  22500085.52840
 -10090721.89300  23150677.97000  -7785256.31040  23150681.91940
  -5431987.07200  24755807.11000  -4139386.36440  24755812.02040
  -4269315.04200  22776145.61800  -3326730.96240  22776149.56740
   1388159.85500  22300752.10300   1081684.62640  22300755.32540
 96  9 13  3  1  0.0050000  0  6  4 14 18 19 22 29
   1984772.84900  26227359.89900   1130750.64340  26227364.44640
   5131566.06000  22517340.89200   3998622.90140  22517345.33340
 -10127845.62600  23143613.47800  -7814183.87040  23143617.47440
  -5478497.22700  24746956.49300  -4175627.97640  24746961.84940
  -4206831.75600  22788035.79000  -3278042.67640  22788039.77440
   1420944.19200  22306990.73500   1107230.87440  22306994.00540
 96  9 13  3  1 30.0050000  0  6  4 14 18 19 22 29
   2028208.27400  26235624.82900   1164596.39640  26235630.26740
   5222726.80200  22534688.30600   4069657.24540  22534692.71240
 -10164815.30700  23136578.36800  -7842991.39240  23136582.34140
  -5524821.17300  24738140.93800  -4211724.49240  24738145.76740
  -4143767.45400  22800036.58700  -3228901.64840  22800040.51340
   1453972.91300  22313275.86000   1132967.54340  22313279.08340
 96  9 13  3  2  0.0050000  0  6  4 14 18 19 22 29
   2072093.53400  26243975.43100   1198792.69040  26243980.45840
   5314343.24900  22552122.18800   4141046.67840  22552126.70040
 -10201650.17700  23129568.67300  -7871693.87040  23129572.50540
  -5570969.31900  24729359.15700  -4247684.03940  24729363.96240
  -4080124.91300  22812147.43800  -3179310.04840  22812151.35340
   1487243.17400  22319607.00100   1158892.43040  22319610.22440
 96  9 13  3  2 30.0050000  0  6  4 14 18 19 22 29
   2116401.20000  26252407.28200   1233318.15340  26252410.47040
   5406418.55100  22569643.62600   4212793.66240  22569647.91540
 -10238364.48600  23122582.29000  -7900302.40940  23122586.15740
  -5616959.67100  24720607.32100  -4283520.61440  24720612.51340
  -4015936.72800  22824361.99300  -3129293.27240  22824365.96640
   1520757.14200  22325984.61800   1185007.21740  22325987.86440
 96  9 13  3  3  0.0050000  0  6  4 14 18 19 22 29
   2161141.60500  26260921.25100   1268180.74240  26260926.33740
   5498953.23500  22587252.37600   4284898.60740  22587256.91140
 -10274951.85900  23115619.86800  -7928812.03140  23115623.84140
  -5662787.77200  24711886.54000  -4319230.76040  24711891.54440
  -3951207.62500  22836679.43800  -3078854.99440  22836683.35340
   1554531.69900  22332411.64900   1211325.05840  22332414.87240
 96  9 13  3  3 30.0050000  0  6  4 14 18 19 22 29
   2206320.14300  26269519.89200   1303384.77240  26269523.45440
   5591953.31900  22604949.74300   4357366.20540  22604954.17340
 -10311402.75400  23108683.54800  -7957215.31040  23108687.31040
  -5708427.82100  24703201.68800  -4354794.37540  24703207.09140
  -3885921.67400  22849103.08700  -3027982.81140  22849107.16540
   1588577.26600  22338890.24300   1237854.07940  22338893.44240
 96  9 13  3  4  0.0050000  0  6  4 14 18 19 22 29
   2251926.11500  26278196.86000   1338921.90740  26278201.84140
   5685416.74400  22622735.26700   4430194.83640  22622739.81340
 -10347717.95800  23101772.94600  -7985512.84840  23101776.63840
  -5753860.38600  24694556.28200  -4390196.30440  24694561.97840
  -3820076.71200  22861632.67300  -2976675.03940  22861636.61040
   1622897.12500  22345421.12600   1264596.83240  22345424.30240
 96  9 13  3  4 30.0050000  0  6  4 14 18 19 22 29
   2297945.19700  26286955.14900   1374780.92940  26286960.15340
   5779338.27200  22640607.81300   4503380.44040  22640612.37240
 -10383898.17000  23094888.19600  -8013705.20140  23094892.07540
  -5799082.43000  24685950.63400  -4425434.20940  24685956.11840
  -3753693.56600  22874265.08700  -2924947.89940  22874269.01340
   1657477.92200  22352001.81300   1291542.91240  22352004.96640
 96  9 13  3  5  0.0050000  0  6  4 14 18 19 22 29
   2344374.00200  26295788.61800   1410959.17140  26295793.37640
   5873713.45600  22658567.09500   4576919.54140  22658571.60640
 -10419929.55600  23088031.62600  -8041781.58640  23088035.59940
  -5844088.93600  24677386.29800  -4460504.17340  24677391.44240
  -3686763.36900  22887001.49300  -2872794.48740  22887005.46640
   1692304.20900  22358628.82900   1318680.29040  22358632.04040
 96  9 13  3  5 30.0050000  0  6  4 14 18 19 22 29
   2391207.09400  26304701.61000   1447452.48540  26304707.42340
   5968555.22300  22676614.72800   4650822.21940  22676619.07540
 -10455808.49200  23081204.07100  -8069739.17640  23081207.95040
  -5888886.05000  24668861.39200  -4495410.94740  24668866.09140
  -3619284.90800  22899842.24300  -2820213.86340  22899846.07540
   1727362.40100  22365300.36000   1345998.37140  22365303.45440
 96  9 13  3  6  0.0050000  0  6  4 14 18 19 22 29
   2438450.93300  26313691.80600   1484265.87040  26313695.98940
   6063853.47300  22694749.26700   4725080.58940  22694753.69640
 -10491526.35000  23074407.30600  -8097571.25640  23074410.95040
  -5933498.09100  24660372.07100  -4530173.51240  24660377.02840
  -3551256.63400  22912787.71200  -2767204.80840  22912791.64940
   1762642.78000  22372013.87600   1373489.58140  22372017.00540
 96  9 13  3  6 30.0050000  0  6  4 14 18 19 22 29
   2486120.87400  26322763.09500   1521411.28540  26322768.98940
   6159616.05400  22712972.47000   4799700.77440  22712977.00540
 -10527066.45300  23067643.93800  -8125264.82740  23067647.84140
  -5977941.38100  24651914.75100  -4564804.59340  24651919.95440
  -3482681.38600  22925836.99300  -2713769.54340  22925840.97840
   1798166.33900  22378773.73500   1401170.28040  22378776.82940
 96  9 13  3  7  0.0050000  0  6  4 14 18 19 22 29
   2534219.73700  26331914.62600   1558890.88540  26331920.28640
   6255825.98900  22731280.60300   4874669.55040  22731285.24340
 -10562429.04100  23060914.85300  -8152820.06240  23060918.80240
  -6022241.80400  24643484.64900  -4599324.33840  24643489.78240
  -3413569.10900  22938988.43800  -2659915.81340  22938992.32940
   1833932.88100  22385579.79000   1429040.31840  22385582.89540
 96  9 13  3  7 30.0050000  0  6  4 14 18 19 22 29
   2582750.92100  26341151.41500   1596707.40340  26341155.97440
   6352484.64000  22749674.28200   4949987.97640  22749678.89940
 -10597620.96900  23054218.15700  -8180242.33140  23054221.89540
  -6066397.15200  24635082.07900  -4633731.05440  24635087.71640
  -3343928.64600  22952240.87600  -2605650.51040  22952244.87240
   1869956.20100  22392434.93100   1457110.44640  22392438.01340
 96  9 13  3  8  0.0050000  0  6  4 14 18 19 22 29
   2631695.69600  26350465.25100   1634846.16040  26350468.74340
   6449577.84800  22768150.28200   5025645.02140  22768154.65340
 -10632643.80600  23047553.27400  -8207532.83740  23047557.04840
  -6110409.50100  24626706.83700  -4668026.31340  24626711.61840
  -3273758.66500  22965593.54800  -2550972.59140  22965597.29840
   1906254.30600  22399342.25900   1485394.68540  22399345.38840
 96  9 13  3  8 30.0050000  0  6  4 14 18 19 22 29
   2681021.60100  26359851.86000   1673281.89040  26359856.06740
   6547084.85600  22786705.22800   5101624.49440  22786709.72840
 -10667530.59800  23040914.41500  -8234717.32940  23040918.09540
  -6154286.14800  24618356.89900  -4702215.85840  24618361.88040
  -3203081.92100  22979043.18100  -2495899.79940  22979046.97840
   1942823.65200  22406301.13400   1513890.28340  22406304.31040
 96  9 13  3  9  0.0050000  0  6  4 14 18 19 22 29
   2730733.85000  26369309.97800   1712018.68640  26369315.82540
   6645020.51700  22805341.64900   5177937.99940  22805346.12640
 -10702273.32500  23034303.34500  -8261789.56440  23034306.96640
  -6197994.28000  24610039.79000  -4736274.07640  24610045.25140
  -3131868.47700  22992594.64900  -2440408.79140  22992598.49340
   1979670.30900  22413312.57900   1542601.97040  22413315.60340
 96  9 13  3  9 30.0050000  0  6  4 14 18 19 22 29
   2780826.84200  26378843.53200   1751052.12740  26378850.23540
   6743390.86000  22824061.05600   5254590.20240  22824065.62640
 -10736883.00500  23027717.36000  -8288758.13040  23027721.22840
  -6241514.62400  24601757.86800  -4770185.97340  24601763.01340
  -3060101.47600  23006251.41500  -2384486.44940  23006255.16540
   2016798.96600  22420377.92300   1571533.39740  22420381.05240
 96  9 13  3 10  0.0050000  0  6  4 14 18 19 22 29
   2831319.63600  26388452.54800   1790397.18040  26388459.67740
   6842197.08600  22842863.28200   5331582.06140  22842867.80640
 -10771339.87400  23021160.39900  -8315607.62140  23021164.07940
  -6284837.64300  24593513.82900  -4803944.11940  24593520.02840
  -2987772.95600  23020014.91500  -2328126.55640  23020018.79440
   2054231.94400  22427501.32900   1600701.95440  22427504.51740
 96  9 13  3 10 30.0050000  0  6  4 14 18 19 22 29
   2882214.38000  26398137.15700   1830055.42140  26398141.41140
   6941434.18700  22861747.34500   5408909.65840  22861751.92740
 -10805656.29500  23014630.05600  -8342347.67240  23014633.82940
  -6327968.16700  24585306.67300  -4837552.25940  24585311.33740
  -2914907.78500  23033880.74300  -2271348.49440  23033884.47040
   2091948.03700  22434678.40700   1630091.12240  22434681.54840
 96  9 13  3 11  0.0050000  0  6  4 14 18 19 22 29
   2933508.90800  26407897.87600   1870025.20040  26407903.16140
   7041097.24900  22880712.75900   5486569.17740  22880717.36440
 -10839833.46300  23008126.31300  -8368979.21340  23008130.04040
  -6370922.80600  24577132.22800  -4871023.34540  24577136.68140
  -2841521.39900  23047845.59500  -2214164.28440  23047849.28640
   2129933.50900  22441906.81300   1659690.19740  22441909.98940
 96  9 13  3 11 30.0050000  0  6  4 14 18 19 22 29
   2985215.21800  26417737.59500   1910315.81240  26417742.76340
   7141175.03900  22899756.83700   5564551.85540  22899761.33740
 -10873862.95500  23001650.86000  -8395495.68540  23001654.61040
  -6413710.29200  24568989.93100  -4904364.19140  24568994.45440
  -2767622.50000  23061908.15700  -2156580.72040  23061911.90740
   2168191.75400  22449187.14900   1689501.81740  22449190.23140
 96  9 13  3 12  0.0050000  0  6  4 14 18 19 22 29
   3037339.88500  26427656.66500   1950932.40240  26427660.23940
   7241676.61500  22918881.73500   5642864.77040  22918886.08340
 -10907714.04100  22995209.34500  -8421873.13840  22995213.17740
  -6456323.53200  24560880.77400  -4937569.25340  24560885.13440
  -2693215.89400  23076067.23500  -2098601.53740  23076070.99740
   2206716.15600  22456517.98500   1719520.83640  22456521.09140
 96  9 13  3 12 30.0050000  0  6  4 14 18 19 22 29
   3089863.82200  26437651.81300   1991860.12140  26437656.32540
   7342604.35600  22938087.76700   5721509.75540  22938092.19640
 -10941392.66200  22988800.16500  -8448116.20040  22988803.95040
  -6498769.76400  24552803.51700  -4970644.18040  24552808.39240
  -2618299.32800  23090323.22800  -2040224.98040  23090327.04840
   2245485.66400  22463895.62600   1749730.84240  22463898.80240
 96  9 13  3 13  0.0050000  0  6  4 14 18 19 22 29
   3142783.32600  26447722.28200   2033096.06140  26447727.26340
   7443947.12700  22957372.54000   5800478.14140  22957377.05240
 -10974879.83200  22982427.89200  -8474210.08240  22982431.56040
  -6541051.46300  24544757.81300  -5003590.89440  24544762.43140
  -2542863.62300  23104678.35300  -1981443.90440  23104682.22040
   2284500.99900  22471319.91500   1780132.40540  22471322.99740
 96  9 13  3 13 30.0050000  0  6  4 14 18 19 22 29
   3196091.08000  26457865.90700   2074634.57340  26457869.59940
   7545702.40900  22976735.84500   5879767.96940  22976740.36840
 -11008160.85300  22976094.44600  -8500143.32840  22976098.22040
  -6583142.59000  24536748.32100  -5036389.11040  24536753.22040
  -2466898.43800  23119133.98500  -1922250.24540  23119137.85340
   2323767.89000  22478792.32900   1810729.98540  22478795.34140
 96  9 13  3 14  0.0050000  0  6  4 14 18 19 22 29
   3249783.67800  26468083.43100   2116472.97840  26468089.34940
   7647891.41400  22996181.74300   5959395.76940  22996186.27840
 -11041230.29100  22969801.67300  -8525911.70740  22969805.32940
  -6625022.67900  24528778.35300  -5069022.89740  24528782.89940
  -2390390.61400  23133693.08700  -1862633.74940  23133697.11840
   2363302.59500  22486315.49300   1841536.25340  22486318.61040
 96  9 13  3 14 30.0050000  0  6  4 14 18 19 22 29
   3303867.51000  26478374.46200   2158616.18340  26478380.35640
   7750522.36800  23015711.67300   6039367.92540  23015716.17340
 -11074084.18600  22963549.87600  -8551512.13340  22963553.56740
  -6666683.32600  24520851.05600  -5101485.68540  24520855.68540
  -2313318.47000  23148359.13400  -1802577.52840  23148362.94240
   2403134.23200  22493895.30600   1872573.89240  22493898.45840
 96  9 13  3 15  0.0050000  0  6  4 14 18 19 22 29
   3358328.30200  26488738.45400   2201053.17540  26488743.44640
   7853557.12000  23035318.66500   6119654.73140  23035323.23540
 -11106759.03200  22957332.06300  -8576973.03140  22957335.81340
  -6708140.37200  24512961.61800  -5133789.82240  24512966.56340
  -2235716.32100  23163126.39200  -1742108.31440  23163130.34140
   2443240.61500  22501527.30600   1903825.62540  22501530.38840
 96  9 13  3 15 30.0050000  0  6  4 14 18 19 22 29
   3413177.59900  26499175.45400   2243792.86340  26499182.05240
   7957000.85100  23055003.36800   6200260.23740  23055007.99740
 -11139273.72300  22951144.62600  -8602309.13940  22951148.43540
  -6749384.79300  24505113.07100  -5165928.27940  24505118.39240
  -2157580.43300  23177995.34500  -1681223.19440  23177999.25940
   2483623.71900  22509211.87600   1935292.98640  22509214.86440
 96  9 13  3 16  0.0050000  0  6  4 14 18 19 22 29
   3468413.04500  26509687.53200   2286833.46740  26509691.04840
   8060849.14600  23074764.95400   6281180.97540  23074769.70040
 -11171645.61300  22944984.53200  -8627533.97440  22944988.17740
  -6790440.62100  24497300.30600  -5197919.79540  24497305.35640
  -2078922.22100  23192963.30600  -1619931.07540  23192967.04440
   2524265.75000  22516945.95400   1966962.10140  22516949.02440
 96  9 13  3 16 30.0050000  0  6  4 14 18 19 22 29
   3524048.08900  26520274.11000   2330185.41840  26520278.45840
   8165090.86500  23094601.72000   6362408.28240  23094606.48940
 -11203864.92000  22938853.55600  -8652639.91540  22938857.22440
  -6831313.94700  24489522.18800  -5229769.07540  24489526.84140
  -1999748.18900  23208029.93800  -1558237.01440  23208033.78240
   2565161.91800  22524728.07100   1998829.25140  22524731.16540
 96  9 13  3 17  0.0050000  0  6  4 14 18 19 22 29
   3580096.83400  26530940.18800   2373859.76140  26530945.08740
   8269724.44500  23114512.78200   6443940.93440  23114517.20040
 -11235934.70600  22932750.77400  -8677629.33940  22932754.45440
  -6872009.85500  24481778.05600  -5261480.13340  24481782.54440
  -1920073.79000  23223191.19600  -1496153.05640  23223195.27440
   2606315.12400  22532559.26700   2030896.68140  22532562.45440
 96  9 13  3 17 30.0050000  0  6  4 14 18 19 22 29
   3636529.94400  26541679.29000   2417833.54340  26541688.04840
   8374752.83600  23134499.03200   6525781.23540  23134503.68540
 -11267848.10900  22926677.68100  -8702496.91540  22926681.38440
  -6912537.34400  24474066.14200  -5293059.95640  24474071.26340
  -1839908.36300  23238446.07100  -1433686.48240  23238449.91540
   2647729.52800  22540440.07900   2063167.65140  22540443.12640
 96  9 13  3 18  0.0050000  0  6  4 14 18 19 22 29
   3693331.04600  26552486.96200   2462094.16340  26552492.81040
   8480184.26000  23154562.10300   6607935.57740  23154566.72040
 -11299578.19700  22920639.79000  -8727221.64740  22920643.49340
  -6952897.07000  24466385.79000  -5324509.05440  24466390.13840
  -1759263.91000  23253792.43100  -1370846.63840  23253796.22840
   2689424.31900  22548374.41500   2095657.10240  22548377.59140
 96  9 13  3 18 30.0060000  0  6  4 14 18 19 22 29
   3750514.04900  26563369.37300   2506652.34340  26563375.67840
   8586017.63600  23174701.45100   6690403.14140  23174705.89340
 -11331111.28200  22914639.02900  -8751792.86740  22914642.75640
  -6993079.79700  24458739.14600  -5355820.22440  24458743.17840
  -1678151.38000  23269227.59200  -1307642.06540  23269231.44740
   2731431.68000  22556368.25600   2128390.11540  22556371.38540
 96  9 13  3 19  0.0060000  0  6  4 14 18 19 22 29
   3808056.91600  26574320.26400   2551490.91140  26574325.65440
   8692241.10400  23194915.14600   6773174.65940  23194919.88140
 -11362454.17600  22908674.77900  -8776215.89140  22908678.56440
  -7033077.37000  24451128.06100  -5386987.11740  24451132.88940
  -1596587.10800  23284748.60700  -1244085.48040  23284752.82640
   2773740.66500  22564419.26400   2161358.16240  22564422.32240
 96  9 13  3 19 30.0060000  0  6  4 14 18 19 22 29
   3865946.33900  26585335.91200   2596599.55240  26585340.95140
   8798859.28500  23215203.69300   6856253.75240  23215208.41640
 -11393592.92700  22902749.34200  -8800479.83540  22902753.05740
  -7072871.06000  24443555.56800  -5417995.15440  24443560.58440
  -1514549.88400  23300359.85700  -1180160.36240  23300363.79540
   2816352.40200  22572528.03700   2194562.11440  22572531.16640
 96  9 13  3 20  0.0060000  0  7  3  4 14 18 19 22 29
    -15964.12810  26558843.85700
   3924188.57800  26596419.06800   2641983.04040  26596425.46740
   8905857.07300  23235564.63900   6939628.64040  23235569.24440
 -11424529.74000  22896862.19300  -8824586.43340  22896865.94340
  -7112484.89100  24436016.95100  -5448863.03440  24436021.69740
  -1432053.83100  23316058.23200  -1115877.71040  23316062.04140
   2859253.72800  22580691.74800   2227991.72040  22580694.83040
 96  9 13  3 20 30.0060000  0  7  3  4 14 18 19 22 29
    -59440.02800  26550570.57600
   3982827.75200  26607577.34200   2687675.92240  26607582.18240
   9013250.30700  23256000.82600   7023311.67240  23256005.53740
 -11455249.71600  22891016.44300  -8848524.06140  22891020.14640
  -7151892.48000  24428518.33400  -5479570.20540  24428523.12740
  -1349062.14200  23331851.11500  -1051208.85140  23331854.90040
   2902456.43700  22588912.97500   2261656.17040  22588916.23240
 96  9 13  3 21  0.0060000  0  6  3 14 18 19 22 29
   -102845.79300  26542310.96700
   9121026.53800  23276510.44300   7107293.14240  23276515.00240
 -11485774.04000  22885207.82600  -8872309.23340  22885211.55340
  -7191120.86600  24421053.20900  -5510137.74540  24421057.89640
  -1265564.76900  23347740.17000   -986145.95640  23347743.90840
   2945922.19200  22597184.35000   2295525.59140  22597187.53740
 96  9 13  3 21 30.0060000  0  6  3 14 18 19 22 29
   -146158.05500  26534069.80300    -28118.09350  26534074.59640
   9229191.58500  23297093.25600   7191577.59340  23297097.90840
 -11516089.54300  22879438.77900  -8895931.68740  22879442.52940
  -7230175.91900  24413621.27900  -5540570.21640  24413626.09640
  -1181545.82900  23363728.38900   -920676.64540  23363732.26840
   2989670.46200  22605509.32600   2329615.15440  22605512.49040
 96  9 13  3 22  0.0060000  0  6  3 14 18 19 22 29
   -189384.68700  26525842.88100    -61801.09540  26525846.71340
   9337740.78900  23317749.38900   7276161.36740  23317754.04140
 -11546188.74400  22873711.24000  -8919385.59640  22873715.10740
  -7269058.36500  24406221.92000  -5570868.19740  24406226.71340
  -1097014.89700  23379814.17000   -854808.37940  23379818.03740
   3033709.65400  22613889.77900   2363931.40840  22613892.94340
 96  9 13  3 22 30.0060000  0  6  3 14 18 19 22 29
   -232525.64100  26517633.74000    -95417.41640  26517638.42840
   9446660.35600  23338476.08400   7361033.75040  23338480.78340
 -11576081.92000  22868022.73200  -8942678.96640  22868026.56440
  -7307757.06600  24398857.80300  -5601022.99540  24398862.29140
  -1011961.11800  23395999.08400   -788532.69540  23396002.99840
   3078033.90200  22622324.26400   2398469.78440  22622327.39340
 96  9 13  3 23  0.0060000  0  6  3 14 18 19 22 29
   -275572.96600  26509441.77100   -128960.77140  26509445.60340
   9555937.92400  23359271.13100   7446185.09940  23359275.83040
 -11605775.57900  22862372.20100  -8965816.86640  22862375.88140
  -7346285.30400  24391526.03700  -5631044.97640  24391530.87740
   -926403.30000  23412280.38900   -721864.25940  23412284.58440
   3122642.34000  22630813.09200   2433229.61740  22630816.23240
 96  9 13  3 23 30.0060000  0  6  3 14 18 19 22 29
   -318508.70900  26501271.42000   -162417.15440  26501273.70540
   9665571.73800  23380133.65400   7531614.03740  23380138.20140
 -11635251.09100  22856763.27900  -8988784.78340  22856766.98240
  -7384624.42500  24384230.72500  -5660919.60340  24384235.81140
   -840370.46200  23428651.99800   -654825.67340  23428656.00640
   3167550.00600  22639358.59200   2468222.60740  22639361.76840
 96  9 13  3 24  0.0060000  0  6  3 14 18 19 22 29
   -361348.49800  26493118.84200   -195798.75440  26493123.93940
   9775551.05600  23401062.35700   7617312.19340  23401067.08040
 -11664524.95500  22851192.32600  -9011595.56940  22851196.05340
  -7422778.28200  24376970.27900  -5690649.86540  24376975.11940
   -753883.49500  23445109.73200   -587433.22440  23445113.43640
   3212726.65500  22647955.47500   2503425.19440  22647958.63940
 96  9 13  3 24 30.0060000  0  6  3 14 18 19 22 29
   -404060.18700  26484991.06100   -229080.57340  26484995.53740
   9885913.40400  23422063.24000   7703308.82040  23422067.67040
 -11693588.21500  22845662.01400  -9034242.25040  22845665.63540
  -7460732.02700  24369747.69300  -5720224.16640  24369752.90840
   -666917.39900  23461658.88900   -519667.42840  23461662.82640
   3258180.29900  22656604.84200   2538843.61840  22656607.98240
 96  9 13  3 25  0.0060000  0  6  3 14 18 19 22 29
   -446672.92700  26476882.27100   -262285.27740  26476888.21340
   9996658.52000  23443137.67000   7789603.70740  23443142.06440
 -11722442.56900  22840171.06800  -9056726.14740  22840174.80740
  -7498488.39500  24362562.81800  -5749644.66840  24362567.27140
   -579492.72600  23478295.30300   -451544.29940  23478298.97140
   3303906.80600  22665306.47500   2574474.66340  22665309.46340
 96  9 13  3 25 30.0060000  0  6  3 14 18 19 22 29
   -489186.02900  26468792.79500   -295412.30740  26468796.26440
  10107798.57400  23464286.81800   7876206.34140  23464291.21340
 -11751080.67100  22834721.60000  -9079041.54040  22834725.12740
  -7536027.62200  24355419.32600  -5778895.97240  24355423.83840
   -491596.80300  23495021.24000   -383053.96040  23495025.03740
   3349911.75100  22674060.96700   2610322.67640  22674063.92040
 96  9 13  3 26  0.0060000  0  6  3 14 18 19 22 29
   -531586.40900  26460724.31800   -328451.52340  26460730.01440
  10219336.37300  23485511.77900   7963118.90540  23485516.30340
 -11779506.76700  22829312.23200  -9101191.73240  22829315.87740
  -7573349.56300  24348316.95900  -5807977.97740  24348321.69340
   -403202.74100  23511842.08400   -314175.46340  23511845.84640
   3396207.90200  22682870.70900   2646397.60740  22682873.75640
 96  9 13  3 26 30.0060000  0  6  3 14 18 19 22 29
   -573901.78400  26452671.56800   -361424.50140  26452676.70140
  10331239.41800  23506806.31100   8050316.07940  23506811.04540
 -11807732.51300  22823940.94300  -9123185.80340  22823944.56440
  -7610480.70400  24341251.17000  -5836911.29640  24341255.63540
   -314336.40600  23528752.81800   -244928.96240  23528756.52140
   3442796.85200  22691736.31100   2682700.68840  22691739.42840
 96  9 13  3 27  0.0060000  0  6  3 14 18 19 22 29
   -616129.51900  26444636.25600   -394329.21840  26444641.58840
  10443493.10500  23528167.39600   8137786.47840  23528172.06140
 -11835749.45000  22818609.45100  -9145017.17440  22818613.00240
  -7647410.12500  24334223.59200  -5865687.43140  24334227.99840
   -225007.52000  23545751.40400   -175322.02840  23545755.11940
   3489696.34500  22700661.06100   2719245.75240  22700664.18940
 96  9 13  3 27 30.0060000  0  6  3 14 18 19 22 29
   -658249.37700  26436620.71700   -427149.84540  26436623.60040
  10556093.81500  23549594.54500   8225527.27840  23549599.09240
 -11863561.15200  22813317.20900  -9166688.61440  22813320.88940
  -7684153.02700  24327231.94300  -5894318.24040  24327236.78340
   -135226.88100  23562836.06100   -105363.07640  23562839.72840
   3536902.73900  22709644.06100   2756029.96340  22709647.26040
 96  9 13  3 28  0.0060000  0  6  3 14 18 19 22 29
   -700237.78700  26428630.95900   -459868.05040  26428637.10040
  10669061.59700  23571091.49000   8313554.11540  23571096.09640
 -11891136.47400  22808069.70900  -9188175.86240  22808073.44740
  -7720699.60400  24320277.39600  -5922796.06440  24320281.72140
    -44977.73400  23580010.08400    -35039.06140  23580013.86940
   3584441.19000  22718690.15400   2793072.91640  22718693.31840
 96  9 13  3 28 30.0060000  0  6  3 14 18 19 22 29
   -742126.58800  26420659.38100   -492508.64340  26420664.15040
  10782372.36800  23592653.92000   8401848.20340  23592658.47840
 -11918499.96100  22802862.56800  -9209498.04840  22802866.23640
  -7757079.64000  24313354.34200  -5951144.10040  24313358.83040
     45706.97600  23597266.68600     35624.35540  23597270.75240
   3632281.04800  22727794.17000   2830350.73340  22727797.36940
 96  9 13  3 29  0.0060000  0  6  3 14 18 19 22 29
   -783907.45300  26412709.42800   -525065.12140  26412714.76040
  10896020.44800  23614280.56100   8490405.13440  23614285.13140
 -11945659.56100  22797694.20100  -9230661.36040  22797697.89340
  -7793293.67700  24306463.12300  -5979362.79740  24306467.72840
    136822.28000  23614605.41200    106623.29940  23614609.16240
   3680402.30600  22736951.25600   2867847.81440  22736954.31440
 96  9 13  3 29 30.0060000  0  6  3 14 18 19 22 29
   -825544.36000  26404785.56800   -557509.42340  26404790.16240
  11010035.43800  23635976.67800   8579247.97340  23635981.18940
 -11972568.65600  22792573.61500  -9251629.47340  22792577.13140
  -7829311.34800  24299609.28700  -6007428.48940  24299613.63540
    228410.23000  23632034.12300    177990.53540  23632037.94340
   3728840.11000  22746168.59200   2905591.56040  22746171.76840
 96  9 13  3 30  0.0060000  0  6  3 14 18 19 22 29
   -867053.15700  26396886.53700   -589853.93040  26396890.02940
  11124388.63500  23657737.34200   8668354.35240  23657741.98240
 -11999246.32800  22787497.10700  -9272417.25640  22787500.86940
  -7865136.21900  24292791.68600  -6035343.93140  24292795.85740
    320456.05900  23649549.85700    249714.57140  23649553.77140
   3777590.74300  22755445.56800   2943579.06640  22755448.69740
 96  9 13  3 30 30.0060000  0  6  3 14 18 19 22 29
   -908430.59100  26389013.04500   -622096.05940  26389017.46340
  11239084.24800  23679563.20100   8757727.54740  23679567.83040
 -12025690.96300  22782464.77900  -9293023.45240  22782468.45940
  -7900744.73700  24286015.55300  -6063090.79940  24286020.06440
    412965.29600  23667153.48200    321799.69240  23667157.42040
   3826657.60900  22764782.54500   2981812.99140  22764785.76840
 96  9 13  3 31  0.0060000  0  6  3 14 18 19 22 29
   -949680.08500  26381163.55300   -654238.48240  26381168.73240
  11354119.64000  23701453.74800   8847365.50840  23701458.36540
 -12051898.89000  22777477.56100  -9313445.20440  22777481.17040
  -7936140.90300  24279279.91200  -6090672.17740  24279284.64640
    505920.90500  23684842.40400    394232.64340  23684846.44740
   3876028.08700  22774177.51400   3020283.49240  22774180.67840
 96  9 13  3 31 30.0060000  0  6  3 14 18 19 22 29
   -990778.82600  26373342.18600   -686263.45840  26373346.99040
  11469502.05400  23723410.55300   8937273.87440  23723415.11140
 -12077856.40200  22772538.14600  -9333671.82440  22772541.76840
  -7971331.97600  24272583.17800  -6118093.75740  24272587.76040
    599327.60200  23702617.17000    467017.09240  23702621.23640
   3925719.36900  22783633.38900   3059003.97340  22783636.41240
 96  9 13  3 32  0.0060000  0  6  3 14 18 19 22 29
  -1031710.05600  26365553.63100   -718157.89540  26365558.41240
  11585236.12900  23745434.08400   9027456.25740  23745438.60740
 -12103576.90000  22767643.31100  -9353713.75940  22767647.02540
  -8006323.62500  24265924.71700  -6145359.95740  24265929.38140
    693178.24200  23720476.21700    540147.45940  23720480.07240
   3975717.13200  22793147.79500   3097963.27340  22793151.05340
 96  9 13  3 32 30.0060000  0  6  3 14 18 19 22 29
  -1072460.24000  26357799.19300   -749911.24640  26357803.30740
  11701321.75100  23767524.39600   9117912.58540  23767529.10740
 -12129053.05800  22762795.66200  -9373565.29940  22762799.21340
  -8041139.67000  24259299.45900  -6172489.30840  24259304.02940
    787472.80000  23738419.99800    613623.74540  23738423.78340
   4025990.87700  22802714.39600   3137137.61340  22802717.45540
 96  9 13  3 33  0.0060000  0  6  3 14 18 19 22 29
  -1113003.37300  26350084.26400   -781503.28140  26350087.96740
  11817746.59800  23789679.15400   9208633.24240  23789683.88940
 -12154280.33600  22757994.70900  -9393222.90740  22757998.20140
  -8075799.35600  24252703.78700  -6199496.83540  24252708.43940
    882201.89600  23756446.13100    687438.63840  23756449.75240
   4076550.01600  22812335.60000   3176534.35240  22812338.67040
 96  9 13  3 33 30.0060000  0  6  3 14 18 19 22 29
  -1153336.46500  26342408.81800   -812931.62040  26342413.92840
  11934504.19400  23811897.33400   9299613.17440  23811902.06840
 -12179258.52400  22753241.74000  -9412686.41840  22753245.35040
  -8110286.73400  24246141.21700  -6226370.08840  24246145.24840
    977376.18500  23774557.35700    761600.42840  23774561.31840
   4127412.81900  22822014.38900   3216167.69940  22822017.54140
 96  9 13  3 34  0.0060000  0  6  3 14 18 19 22 29
  -1193470.84800  26334771.36500   -844205.13140  26334776.32240
  12051605.12600  23834181.04500   9390860.64840  23834185.94340
 -12203986.20400  22748536.23200  -9431954.72840  22748539.83040
  -8144576.30100  24239616.26400  -6253089.19740  24239620.63540
   1073004.72700  23792754.89600    836116.18240  23792758.74040
   4178586.82300  22831752.54500   3256043.54940  22831755.59240
 96  9 13  3 34 30.0060000  0  6  3 14 18 19 22 29
  -1233450.95800  26327162.74000   -875358.43840  26327166.33840
  12169030.53800  23856526.31100   9482360.95340  23856530.88140
 -12228467.97600  22743877.78700  -9451031.42440  22743881.39640
  -8178682.80400  24233125.86500  -6279665.65940  24233130.30740
   1169071.05200  23811035.70100    910973.05840  23811039.35740
   4230079.74200  22841551.22500   3296167.90040  22841554.36540
 96  9 13  3 35  0.0060000  0  6  3 14 18 19 22 29
  -1273290.77700  26319581.81100   -906402.39440  26319587.29540
  12286788.90500  23878935.11500   9574120.71440  23878939.77940
 -12252701.97100  22739265.97500  -9469915.04340  22739269.56140
  -8212581.68000  24226674.68600  -6306080.33340  24226679.50240
   1265584.34300  23829401.91200    986178.23140  23829405.40440
   4281929.86800  22851418.00600   3336570.59540  22851421.11140
 96  9 13  3 35 30.0060000  0  6  3 14 18 19 22 29
  -1313002.50300  26312024.95100   -937346.59040  26312029.94340
  12404878.82300  23901406.81100   9666138.82840  23901411.11140
 -12276695.03300  22734700.13900  -9488610.92440  22734703.71340
  -8246269.68600  24220264.04500  -6332330.71040  24220268.28740
   1362553.95200  23847854.14600   1061738.96940  23847857.95540
   4334116.48300  22861348.77100   3377235.48340  22861351.95940
 96  9 13  3 36  0.0060000  0  6  3 14 18 19 22 29
  -1352566.85900  26304496.28700   -968175.91540  26304500.97540
  12523302.66200  23923942.12300   9758417.13040  23923946.61140
 -12300435.29100  22730182.45100  -9507109.81640  22730186.03740
  -8279759.01000  24213891.70900  -6358426.27040  24213895.95140
   1459976.69900  23866393.32600   1137652.80440  23866396.70140
   4386634.56500  22871342.70100   3418158.67240  22871345.87740
 96  9 13  3 36 30.0060000  0  6  3 14 18 19 22 29
  -1391983.00500  26296995.33400   -998889.75640  26297000.86540
  12642040.23800  23946537.27100   9850939.90540  23946541.91240
 -12323922.37100  22725713.08400  -9525411.42440  22725716.83440
  -8313069.25100  24207552.56100  -6384382.29240  24207557.16640
   1557840.43100  23885016.09200   1213910.25940  23885020.12340
   4439467.91000  22881396.63100   3459327.51440  22881399.76040
 96  9 13  3 37  0.0060000  0  6  3 14 18 19 22 29
  -1431211.73800  26289530.52100  -1029457.55640  26289535.73640
  12761092.56400  23969191.95100   9943707.94340  23969196.60340
 -12347153.94300  22721292.33400  -9543513.93840  22721296.10740
  -8346190.27300  24201249.91200  -6410190.85040  24201254.78740
   1656142.01700  23903722.24800   1290508.90140  23903726.24440
   4492604.49300  22891508.14600   3500732.64540  22891511.24040
 96  9 13  3 37 30.0060000  0  6  3 14 18 19 22 29
  -1470226.51200  26282106.09200  -1059858.65440  26282111.03740
  12880464.89500  23991907.75600  10036725.33540  23991912.31440
 -12370097.05400  22716926.34200  -9561391.67340  22716929.98640
  -8379116.19700  24194984.34200  -6435847.38640  24194988.52540
   1754872.43400  23922510.03700   1367441.69940  23922513.74040
   4546052.49700  22901678.87300   3542380.44240  22901682.06140
 96  9 13  3 38  0.0060000  0  6  3 14 18 19 22 29
  -1509035.62400  26274721.09200  -1090099.49840  26274725.48640
  13000156.01600  24014684.11500  10129991.13540  24014688.82640
 -12392744.11600  22712616.79500  -9579038.72040  22712620.46340
  -8411842.60200  24188756.79500  -6461348.46740  24188760.92040
   1854008.24200  23941374.85000   1444690.38240  23941378.69340
   4599836.36200  22911913.63900   3584289.94740  22911916.75640
 96  9 13  3 38 30.0060000  0  6  3 14 18 19 22 29
  -1547642.28700  26267374.74800  -1120182.54940  26267378.59240
  13120152.88700  24037518.89600  10223495.16940  24037523.38540
 -12415108.69000  22708360.99000  -9596465.65040  22708364.52940
  -8444373.92600  24182566.36500  -6486697.51840  24182570.74840
   1953539.63100  23960315.12300   1522247.31740  23960318.72140
   4653956.27300  22922212.32600   3626461.30040  22922215.46740
 96  9 13  3 39  0.0060000  0  6  3 14 18 19 22 29
  -1586047.32700  26260066.24000  -1150108.51940  26260070.42440
  13240442.26000  24060409.05300  10317227.14240  24060413.55340
 -12437203.05700  22704156.39600  -9613682.02540  22704159.84240
  -8476692.71800  24176416.14600  -6511880.98540  24176420.84640
   2053449.35900  23979327.35700   1600099.05240  23979331.08440
   4708414.64000  22932575.20900   3668896.38940  22932578.29140
 96  9 13  3 39 30.0060000  0  6  3 14 18 19 22 29
  -1624260.54200  26252794.06800  -1179885.02440  26252799.14340
  13361022.82400  24083355.05300  10411186.01240  24083359.58840
 -12459019.44400  22700004.95100  -9630681.79740  22700008.60740
  -8508786.12800  24170308.87300  -6536888.81040  24170313.20940
   2153758.28800  23998415.63100   1678261.86040  23998419.25240
   4763222.18900  22943005.02900   3711603.57040  22943008.18240
 96  9 13  3 40  0.0060000  0  6  3 14 18 19 22 29
  -1662268.78400  26245561.83400  -1209501.79040  26245566.58040
  13481897.72700  24106356.85000  10505374.23840  24106361.30340
 -12480572.42100  22695903.56100  -9647476.31340  22695907.12340
  -8540641.44400  24164246.93600  -6561711.09440  24164251.17840
   2254484.56200  24017583.05300   1756749.86940  24017586.73240
   4818366.70400  22953498.61500   3754573.31940  22953501.63940
 96  9 13  3 40 30.0060000  0  6  3 14 18 19 22 29
  -1700076.74600  26238366.76400  -1238962.48340  26238371.60340
  13603041.69600  24129409.50600  10599772.12640  24129414.15840
 -12501883.55500  22691848.35000  -9664082.38040  22691851.93640
  -8572277.38900  24158226.84200  -6586362.45840  24158231.47140
   2355630.37600  24036830.42000   1835564.79040  24036834.05340
   4873818.45400  22964050.78700   3797782.47240  22964053.77540
 96  9 13  3 41  0.0060000  0  6  3 14 18 19 22 29
  -1737681.00000  26231210.96700  -1268264.48140  26231216.33440
  13724471.01300  24152517.03700  10694392.36240  24152521.39640
 -12522938.24400  22687841.70900  -9680488.62040  22687845.24840
  -8603684.38100  24152250.63900  -6610835.41440  24152255.24440
   2457202.91500  24056159.02900   1914712.22640  24056162.82640
   4929576.98700  22974661.25600   3841230.67840  22974664.36140
 96  9 13  3 41 30.0060000  0  6  3 14 18 19 22 29
  -1775064.54400  26224097.24800  -1297394.47140  26224102.19340
  13846205.76100  24175682.28700  10789250.60540  24175686.97540
 -12543718.61600  22683887.27900  -9696681.10940  22683890.79540
  -8634893.32400  24146311.52900  -6635154.05240  24146316.15840
   2559208.42100  24075570.13900   1994197.04940  24075573.85340
   4985645.79800  22985330.75600   3884920.66440  22985333.83840
 96  9 13  3 42  0.0060000  0  6  3 14 18 19 22 29
  -1812231.22800  26217024.84200  -1326355.51140  26217028.07640
  13968236.61800  24198903.84200  10884339.57740  24198908.62340
 -12564237.04800  22679982.65400  -9712669.49340  22679986.17040
  -8665934.14100  24140404.52900  -6659341.71840  24140408.77140
   2661599.20000  24095054.15400   2073982.06740  24095057.92840
   5042015.27800  22996057.45900   3928844.93540  22996060.57640
 96  9 13  3 42 30.0060000  0  6  3 14 18 19 22 29
  -1849180.17600  26209993.99000  -1355146.86340  26209999.39340
  14090572.14000  24222183.79500  10979665.95940  24222188.13140
 -12584469.35100  22676132.71700  -9728434.91140  22676136.30340
  -8696809.33900  24134529.17000  -6683400.29940  24134533.61140
   2764374.82400  24114611.85700   2154066.97740  24114615.42040
   5098700.27700  23006844.20900   3973015.06140  23006847.30340
 96  9 13  3 43  0.0060000  0  6  3 14 18 19 22 29
  -1885931.65600  26202999.88100  -1383784.35340  26203005.47140
  14213199.71100  24245518.80300  11075219.89740  24245523.51440
 -12604432.84700  22672333.88100  -9743990.86940  22672337.44340
  -8727543.23100  24128680.50600  -6707348.75040  24128685.08840
   2867488.31200  24134233.86500   2234415.14840  24134237.77940
   5155668.67000  23017685.07600   4017406.02140  23017688.19340
 96  9 13  3 43 30.0060000  0  6  3 14 18 19 22 29
  -1922465.74700  26196047.72500  -1412252.44140  26196052.50640
  14336122.52000  24268910.11500  11171003.89840  24268914.66240
 -12624102.38800  22668590.62300  -9759317.78140  22668594.24440
  -8758114.89200  24122862.86500  -6731170.79940  24122867.13140
   2970953.37500  24153922.49000   2315037.28140  24153926.11140
   5212948.92600  23028585.06100   4062039.98340  23028588.21340
 96  9 13  3 44  0.0060000  0  6  3 14 18 19 22 29
  -1958801.69800  26189133.17800  -1440566.14740  26189137.04540
  14459320.98900  24292354.17800  11267002.68140  24292358.71340
 -12643482.61100  22664902.64600  -9774419.24340  22664906.26840
  -8788503.28600  24117080.24800  -6754850.05040  24117084.27940
   3074779.27600  24173679.92000   2395940.58940  24173683.75240
   5270541.77200  23039544.77100   4106917.52340  23039547.83040
 96  9 13  3 44 30.0060000  0  6  3 14 18 19 22 29
  -1994941.88300  26182256.08400  -1468727.30240  26182260.68940
  14582784.01900  24315848.27100  11363207.62540  24315852.26840
 -12662579.38700  22661268.95900  -9789299.83740  22661272.61540
  -8818700.52100  24111333.99000  -6778380.34740  24111338.46740
   3178990.05100  24193510.29500   2477143.78140  24193514.13940
   5328441.83000  23050562.51400   4152034.45240  23050565.63140
 96  9 13  3 45  0.0060000  0  6  3 14 18 19 22 29
  -2030865.01300  26175419.99800  -1496719.31140  26175424.27540
  14706522.40500  24339395.13900  11459627.14540  24339399.62740
 -12681378.86400  22657691.36500  -9803948.76940  22657694.99840
  -8848674.51400  24105630.03700  -6801736.68640  24105634.50240
   3283606.85600  24213418.35700   2558663.37640  24213421.99040
   5386683.76400  23061645.77900   4197417.77040  23061649.00240
 96  9 13  3 45 30.0060000  0  6  3 14 18 19 22 29
  -2066594.88600  26168620.60000  -1524560.75140  26168624.63140
  14830499.06600  24362987.06100  11556232.31740  24362991.83040
 -12699900.57500  22654166.73200  -9818381.26140  22654170.30740
  -8878443.76800  24099965.37300  -6824933.48740  24099969.79140
   3388628.06400  24233403.13900   2640498.08740  24233406.65440
   5445261.27400  23072792.61500   4243062.58340  23072795.69740
 96  9 13  3 46  0.0060000  0  6  3 14 18 19 22 29
  -2102117.69200  26161861.23200  -1552240.83940  26161865.32240
  14954736.86300  24386628.85700  11653040.98440  24386633.33440
 -12718149.10300  22650694.11500  -9832600.88440  22650697.67840
  -8907993.49900  24094342.19300  -6847959.23140  24094346.70540
   3494064.84500  24253467.16200   2722656.62240  24253470.91240
   5504177.45200  23084004.03700   4288971.28940  23084007.15440
 96  9 13  3 46 30.0060000  0  6  3 14 18 19 22 29
  -2137406.94200  26155145.77100  -1579738.93140  26155150.62340
  15079245.93700  24410321.73200  11750061.04140  24410326.50240
 -12736118.34400  22647274.68600  -9846602.88440  22647278.24840
  -8937320.06400  24088761.24000  -6870811.07740  24088765.69340
   3599897.08400  24273606.36500   2805123.30640  24273610.01040
   5563433.24800  23095280.05300   4335144.63540  23095283.20540
 96  9 13  3 47  0.0060000  0  6  3 14 18 19 22 29
  -2172453.38700  26148476.48200  -1607047.83040  26148481.40440
  15204021.65800  24434065.86500  11847288.86540  24434070.75240
 -12753801.08600  22643909.65400  -9860381.64340  22643913.24040
  -8966439.62400  24083220.06800  -6893501.61940  24083224.60340
   3706095.92900  24293815.29500   2887875.66140  24293819.53740
   5623019.90900  23106619.06100   4381575.79740  23106622.21340
 96  9 13  3 47 30.0060000  0  7  3 14 18 19 22 27 29
  -2207241.55100  26141856.56100  -1634155.44640  26141861.29540
  15329058.76200  24457859.77100  11944720.36140  24457864.47140
 -12771190.89800  22640600.63100  -9873932.13040  22640604.20540
  -8995368.11000  24077715.18600  -6916043.27340  24077719.70940
   3812652.49400  24314092.47500   2970906.75440  24314096.28340
    -19478.50510  27099191.71700
   5682927.54100  23118019.13100   4428257.06940  23118022.30740
 96  9 13  3 48  0.0060000  0  7  3 14 18 19 22 27 29
  -2241769.94100  26135286.24000  -1661060.68340  26135290.26040
  15454341.36700  24481700.23200  12042343.16340  24481704.92040
 -12788297.22000  22637345.35000  -9887261.72840  22637348.87740
  -9024126.92500  24072242.79500  -6938452.71640  24072247.16640
   3919533.04900  24334431.10000   3054190.30540  24334434.58040
    -72572.55900  27089087.54500
   5743139.77100  23129477.07600   4475175.68440  23129480.25240
 96  9 13  3 48 30.0060000  0  8  3 14 18 19 22 27 29 31
  -2276004.00000  26128771.56100  -1687736.53940  26128776.15440
  15579877.52600  24505589.17000  12140163.54140  24505593.76440
 -12805076.64500  22634152.48200  -9900336.60240  22634156.02140
  -9052701.15600  24066804.95900  -6960718.35240  24066808.85040
   4026771.28200  24354837.72500   3137752.56940  24354841.28740
   -125608.91500  27078994.74800    -17903.15750  27079000.74840
   5803693.70100  23141000.19300   4522360.56540  23141003.38140
    -35742.19510  26735080.09200
 96  9 13  3 49  0.0070000  0  8  3 14 18 19 22 27 29 31
  -2309968.65700  26122308.10400  -1714202.48440  26122312.87440
  15705640.34400  24529520.91700  12238160.53840  24529525.82740
 -12821549.54200  22631017.72900  -9913172.61340  22631021.28040
  -9081110.55400  24061398.90900  -6982855.50040  24061403.43340
   4134375.96700  24375314.14400   3221600.38240  24375317.47240
   -178601.57100  27068910.87000    -59196.02040  27068916.22640
   5864589.84400  23152588.38600   4569812.10940  23152591.47940
    -98878.59300  26723065.01900
 96  9 13  3 49 30.0070000  0  8  3 14 18 19 22 27 29 31
  -2343667.98900  26115895.42500  -1740461.68740  26115899.16340
  15831617.71700  24553493.69000  12336324.71440  24553498.27240
 -12837719.25300  22627940.62800  -9925772.38540  22627944.13240
  -9109334.61900  24056028.16700  -7004848.26940  24056032.70240
   4242351.74800  24395861.35400   3305737.35940  24395864.91740
   -231532.37400  27058839.09700   -100440.72440  27058844.17140
   5925837.26000  23164243.26100   4617537.36340  23164246.30840
   -162061.23700  26711041.19800    -31186.35650  26711045.51140
 96  9 13  3 50  0.0070000  0  8  3 14 18 19 22 27 29 31
  -2377120.36000  26109530.05800  -1766528.43140  26109533.94840
  15957811.95300  24577507.94000  12434657.87940  24577512.61640
 -12853598.39100  22624918.99500  -9938145.73340  22624922.51140
  -9137368.39400  24050693.28400  -7026692.73840  24050697.69040
   4350694.67100  24416478.23700   3390160.41840  24416481.94040
   -284416.20300  27048775.17500   -141648.80140  27048780.60140
   5987435.01800  23175964.93300   4665535.61940  23175968.00340
   -225293.20600  26699009.12800    -80458.02140  26699012.85440
 96  9 13  3 50 30.0070000  0  8  3 14 18 19 22 27 29 31
  -2410330.69400  26103209.90100  -1792406.59440  26103214.67140
  16084229.79500  24601563.90100  12533165.27840  24601568.78840
 -12869185.13200  22621953.00300  -9950291.23340  22621956.53040
  -9165200.69300  24045396.87800  -7048380.20940  24045401.31940
   4459408.34000  24437165.99500   3474872.38240  24437169.97940
   -337248.59300  27038721.48700   -182816.80840  27038726.64440
   6049380.32200  23187752.48700   4713804.68040  23187755.58140
   -288566.56200  26686968.24500   -129761.90940  26686971.10440
 96  9 13  3 51  0.0070000  0  8  3 14 18 19 22 27 29 31
  -2443284.87300  26096938.77600  -1818085.15940  26096943.19440
  16210882.65800  24625665.48700  12631855.80640  24625670.28040
 -12884465.58700  22619045.10400  -9962198.08540  22619048.66740
  -9192815.48100  24040142.13600  -7069898.21540  24040146.23740
   4568491.50800  24457923.76900   3559872.25640  24457927.97640
   -389993.22100  27028684.90900   -223916.44940  27028689.94840
   6111670.80400  23199606.17500   4762342.71840  23199609.40940
   -351880.43100  26674920.75300   -179097.40740  26674925.24140
 96  9 13  3 51 30.0070000  0  8  3 14 18 19 22 27 29 31
  -2476000.60300  26090713.12800  -1843577.90140  26090717.89740
  16337758.72900  24649809.05000  12730720.28340  24649814.00740
 -12899453.74700  22616193.03400  -9973877.16540  22616196.47940
  -9220248.31000  24034921.89400  -7091274.44540  24034925.87840
   4677901.57900  24478743.64400   3645126.85740  24478747.30040
   -442676.45900  27018658.97900   -264968.23240  27018664.01940
   6174267.74600  23211518.16700   4811119.55440  23211521.23740
   -415277.71300  26662857.08100   -228497.85240  26662861.10140
 96  9 13  3 52  0.0070000  0  8  3 14 18 19 22 27 29 31
  -2508454.20600  26084537.40900  -1868866.41340  26084542.13240
  16464884.57300  24674000.18300  12829779.36540  24674005.21040
 -12914121.20300  22613401.92500  -9985306.35040  22613405.48740
  -9247496.23300  24029736.64400  -7112506.54040  24029740.87440
   4787649.35900  24499628.16700   3730644.61440  24499631.78840
   -495302.66600  27008645.64400   -305975.59140  27008649.17140
   6237176.93300  23223489.27600   4860139.68940  23223492.45240
   -478741.68900  26650780.26900   -277950.26840  26650785.68340
 96  9 13  3 52 30.0070000  0  8  3 14 18 19 22 27 29 31
  -2540629.97900  26078414.86200  -1893938.42340  26078419.05840
  16592253.81100  24698237.70600  12929028.10740  24698242.58140
 -12928453.98900  22610674.47200  -9996474.74440  22610677.94040
  -9274565.07700  24024585.69000  -7133599.15240  24024589.86240
   4897737.20300  24520577.12800   3816427.36140  24520580.96040
   -547862.65800  26998642.80000   -346931.34740  26998648.01540
   6300392.53600  23235518.71400   4909398.59940  23235521.91340
   -542266.02200  26638691.11200   -327449.74040  26638694.92140
 96  9 13  3 53  0.0070000  0  8  3 14 18 19 22 27 29 31
  -2572528.50700  26072344.57300  -1918794.39140  26072348.67540
  16719854.36800  24722519.18300  13028457.11540  24722524.36240
 -12942461.74800  22608008.88600 -10007389.88040  22608012.41340
  -9301465.93000  24019466.45600  -7154560.85240  24019470.52240
   5008149.97200  24541587.92500   3902463.29240  24541591.76940
   -600373.52400  26988650.56500   -387848.84140  26988656.47240
   6363916.77400  23247606.87000   4958898.00240  23247609.99940
   -605846.23200  26626592.65100   -376992.72840  26626598.75740
 96  9 13  3 53 30.0070000  0  8  3 14 18 19 22 27 29 31
  -2604137.68700  26066329.40900  -1943424.89940  26066333.53440
  16847702.12900  24746848.05000  13128078.74540  24746852.79640
 -12956142.27100  22605405.51100 -10018050.02240  22605409.00340
  -9328182.91500  24014382.61200  -7175379.25940  24014386.94840
   5118884.18700  24562660.17500   3988749.69940  24562664.07740
   -652850.46400  26978664.14400   -428739.91840  26978669.99140
   6427772.06200  23259758.27600   5008655.37240  23259761.38240
   -669460.81200  26614487.03400   -426562.51240  26614489.83540
 96  9 13  3 54  0.0070000  0  8  3 14 18 19 22 27 29 31
  -2635463.18500  26060368.72900  -1967834.34640  26060373.44040
  16975778.82100  24771220.42500  13227878.75340  24771225.47640
 -12969500.06600  22602863.55800 -10028458.68740  22602866.99140
  -9354700.75800  24009336.08100  -7196042.49340  24009340.66340
   5229935.88200  24583792.44800   4075283.48540  24583796.29240
   -705284.27300  26968686.65900   -469597.36740  26968691.06540
   6491956.36000  23271972.25300   5058669.10740  23271975.37040
   -733083.43700  26602380.07300   -476138.57340  26602384.79640
 96  9 13  3 54 30.0070000  0  8  3 14 18 19 22 27 29 31
  -2666503.33300  26054462.11200  -1992021.46440  26054466.05040
  17104062.60800  24795631.83100  13327840.13640  24795636.50740
 -12982542.74100  22600381.83100 -10038621.80740  22600385.28840
  -9381016.81300  24004328.40100  -7216548.46140  24004332.71440
   5341309.79500  24604986.13600   4162068.35640  24604990.12040
   -757644.49800  26958722.69800   -510397.47540  26958729.01540
   6556481.82100  23284250.97200   5108948.67940  23284254.13640
   -796708.07300  26590271.97900   -525716.20640  26590277.83940
 96  9 13  3 55  0.0070000  0  8  3 14 18 19 22 27 29 31
  -2697249.06000  26048611.38600  -2015979.14040  26048615.38240
  17232563.40300  24820084.95600  13427970.61940  24820089.76140
 -12995269.17300  22597959.80000 -10048538.50940  22597963.30440
  -9407115.85900  23999362.17500  -7236885.36840  23999366.64040
   5453002.37800  24626240.53400   4249101.53840  24626244.63640
   -809924.85500  26948773.34700   -551135.33840  26948777.61240
   6621373.68200  23296599.43300   5159513.76040  23296602.51540
   -860327.89700  26578165.72200   -575290.04240  26578170.08140
 96  9 13  3 55 30.0070000  0  8  3 14 18 19 22 27 29 31
  -2727689.49000  26042818.42500  -2039698.94440  26042823.19440
  17361278.06600  24844578.01100  13528267.75440  24844582.80440
 -13007678.86100  22595598.40100 -10058208.39340  22595601.97640
  -9433000.47900  23994436.20600  -7257055.17540  23994440.53040
   5565027.78300  24647558.26100   4336394.06640  24647562.14040
   -862099.06200  26938846.02600   -591790.56640  26938851.22940
   6686635.82800  23309018.55800   5210367.37640  23309021.76940
   -923935.06800  26566062.24500   -624854.08140  26566065.94840
 96  9 13  3 56  0.0070000  0  8  3 14 18 19 22 27 29 31
  -2757821.83400  26037084.09700  -2063178.67140  26037087.75340
  17490206.75000  24869112.56500  13628731.65240  24869117.05440
 -13019760.49300  22593299.48700 -10067622.64040  22593303.06140
  -9458683.81900  23989548.94800  -7277068.15540  23989553.14440
   5677400.41000  24668942.01900   4423957.15440  24668945.39440
   -914158.61600  26928938.01900   -632356.37840  26928942.77640
   6752264.03700  23321506.85400   5261506.23040  23321509.93640
   -987530.48000  26553960.22900   -674408.89740  26553964.30840
 96  9 13  3 56 30.0070000  0  8  3 14 18 19 22 27 29 31
  -2787640.87900  26031410.09700  -2086414.26840  26031414.43340
  17619353.32400  24893688.51900  13729365.34440  24893692.92540
 -13031527.92900  22591059.93300 -10076792.06540  22591063.42540
  -9484188.60300  23984695.55800  -7296942.00640  23984699.77640
   5790105.11100  24690388.93300   4511779.00840  24690393.04640
   -966140.11700  26919046.92500   -672861.37040  26919052.83140
   6818254.70900  23334064.65900   5312927.52740  23334067.70640
  -1051145.12500  26541854.19800   -723978.72640  26541858.40540
 96  9 13  3 57  0.0070000  0  8  3 14 18 19 22 27 29 31
  -2817145.98400  26025795.40900  -2109405.24140  26025800.12040
  17748728.42800  24918307.54200  13830177.10540  24918312.13640
 -13042981.05300  22588880.49500 -10085716.57440  22588883.98740
  -9509509.01500  23979877.22200  -7316672.18540  23979881.62840
   5903130.02200  24711897.15900   4599850.36840  24711900.56940
  -1018067.87200  26909165.96400   -713324.51140  26909172.83540
   6884593.61300  23346688.55000   5364620.16840  23346691.57340
  -1114767.97600  26529747.46400   -773554.95440  26529752.30440
 96  9 13  3 57 30.0070000  0  8  3 14 18 19 22 27 29 31
  -2846325.45500  26020242.65900  -2132142.48440  26020247.68640
  17878348.11400  24942973.18300  13931179.44840  24942977.50740
 -13054094.19400  22586765.87000 -10094376.15740  22586769.35140
  -9534636.46300  23975095.31500  -7336252.00740  23975099.64040
   6016499.88700  24733470.44800   4688190.52040  24733474.69040
  -1069933.26300  26899296.28400   -753739.03940  26899300.12840
   6951275.58300  23359377.66700   5416580.14140  23359380.83140
  -1178381.24100  26517642.48700   -823123.71140  26517646.94040
 96  9 13  3 58  0.0070000  0  8  3 14 18 19 22 27 29 31
  -2875176.15500  26014752.80800  -2154623.52140  26014756.89740
  18008226.66600  24967688.62000  14032383.50240  24967693.71840
 -13064836.30100  22584721.67500 -10102746.62540  22584725.06140
  -9559541.22900  23970356.45600  -7355658.31840  23970360.88640
   6130217.17900  24755110.30000   4776801.41240  24755114.05040
  -1121736.53300  26889437.83100   -794105.17940  26889443.39740
   7018300.75100  23372132.15100   5468807.54040  23372135.33940
  -1241984.39000  26505538.64400   -872684.58540  26505542.21840
 96  9 13  3 58 30.0070000  0  8  3 14 18 19 22 27 29 31
  -2903721.18400  26009321.14400  -2176866.39240  26009324.61240
  18138331.44200  24992446.82300  14133763.83240  24992451.67540
 -13075229.52200  22582743.92500 -10110845.23540  22582747.31140
  -9584215.29500  23965660.85400  -7374884.83840  23965665.44840
   6244249.83300  24776810.00300   4865658.01640  24776813.99940
  -1173479.92400  26879591.29200   -834424.65640  26879596.44840
   7085647.07600  23384947.66700   5521285.18740  23384950.77240
  -1305591.06400  26493435.20600   -922248.19940  26493439.13240
 96  9 13  3 59  0.0070000  0  8  3 14 18 19 22 27 29 31
  -2931977.08400  26003943.83900  -2198883.95140  26003948.69040
  18268638.38400  25017243.47900  14235301.70340  25017247.99140
 -13085266.14600  22580833.98700 -10118665.97740  22580837.56140
  -9608656.85100  23961010.00300  -7393930.21140  23961014.43340
   6358590.76000  24798568.65100   4954754.84740  24798572.23740
  -1225139.89300  26869760.65900   -874679.11240  26869765.38240
   7153315.17200  23397824.55800   5574013.57140  23397827.73340
  -1369192.93100  26481331.93300   -971808.06940  26481336.55040
 96  9 13  3 59 30.0070000  0  8  3 14 18 19 22 27 29 31
  -2959948.49300  25998620.73700  -2220679.84940  25998624.61640
  18399128.59000  25042074.56500  14336982.38040  25042079.59340
 -13094948.67700  22578991.48700 -10126210.80040  22578994.92140
  -9632879.40100  23956400.30800  -7412804.90240  23956404.51540
   6473232.70500  24820383.78400   5044086.24440  24820387.95640
  -1276703.59000  26859947.65900   -914858.55440  26859951.90140
   7221315.25700  23410764.66700   5627000.64640  23410767.83140
  -1432805.03600  26469227.62800  -1021375.91240  26469231.63640
 96  9 13  4  0  0.0070000  0  8  3 14 18 19 22 27 29 31
  -2987627.82100  25993353.93300  -2242248.12940  25993358.23340
  18529796.59500  25066939.92500  14438801.59740  25066945.29240
 -13104280.42000  22577215.55800 -10133482.27740  22577219.10840
  -9656882.14900  23951832.97200  -7431508.30440  23951837.17940
   6588165.90900  24842254.86200   5133644.58240  24842258.69440
  -1328159.22200  26850156.31500   -954953.78140  26850161.58940
   7289675.40600  23423773.07300   5680268.28840  23423776.24940
  -1496407.55100  26457123.84700  -1070936.29540  26457127.24540
 96  9 13  4  0 30.0070000  0  8  3 14 18 19 22 27 29 31
  -3015006.96900  25988143.46400  -2263582.49940  25988147.99940
  18660638.94300  25091838.62000  14540756.66640  25091843.49540
 -13113268.15800  22575505.29200 -10140485.71240  22575508.83140
  -9680682.06300  23947303.96400  -7450053.70240  23947307.93640
   6703387.17300  24864181.35400   5223427.38040  24864184.71840
  -1379513.99500  26840384.08900   -994970.43640  26840389.04640
   7358415.02800  23436853.72900   5733831.62540  23436856.95240
  -1559982.37900  26445026.08100  -1120475.08140  26445031.68340
 96  9 13  4  1  0.0070000  0  8  3 14 18 19 22 27 29 31
  -3042079.15300  25982991.80000  -2284677.66740  25982995.91340
  18791658.06900  25116770.89400  14642849.47540  25116775.53440
 -13121907.51500  22573861.42500 -10147217.67240  22573864.90540
  -9704311.40800  23942807.40900  -7468466.16640  23942811.46440
   6818908.77700  24886163.97900   5313444.21340  24886167.63640
  -1430792.71000  26830625.87800  -1034927.80740  26830629.88640
   7427541.54600  23450008.20600   5787696.43640  23450011.34740
  -1623531.62900  26432932.88600  -1169993.96940  26432936.54240
 96  9 13  4  1 30.0070000  0  8  3 14 18 19 22 27 29 31
  -3068823.44100  25977902.18300  -2305517.37140  25977905.66340
  18922873.36900  25141740.15100  14745095.15540  25141744.89740
 -13130180.60100  22572286.99500 -10153664.23340  22572290.49940
  -9727759.46000  23938345.25300  -7486737.36440  23938349.43640
   6934754.66800  24908208.62000   5403713.74940  24908212.51140
  -1481998.74000  26820881.80800  -1074828.55340  26820886.29640
   7497055.38900  23463236.10400   5841863.05140  23463239.46840
  -1687058.81900  26420844.04200  -1219495.64440  26420848.35440
 96  9 13  4  2  0.0070000  0  8  3 14 18 19 22 27 29 31
  -3095224.44000  25972878.19800  -2326089.56640  25972881.80840
  19054292.03900  25166748.47200  14847499.32240  25166752.77240
 -13138075.73200  22570784.68300 -10159816.28640  22570788.16340
  -9751008.18500  23933921.28400  -7504853.23940  23933925.45640
   7050923.58200  24930315.14400   5494234.97640  24930318.67140
  -1533143.87800  26811149.16700  -1114681.84840  26811154.79240
   7566933.40800  23476533.48700   5896313.44540  23476536.66340
  -1750572.51700  26408757.94800  -1268986.83740  26408762.19040
 96  9 13  4  2 30.0070000  0  8  3 14 18 19 22 27 29 31
  -3121267.74100  25967922.96400  -2346383.02840  25967927.14740
  19185897.96200  25191792.34700  14950049.37940  25191797.22240
 -13145600.64300  22569352.79200 -10165679.84840  22569356.30840
  -9774063.31000  23929533.99500  -7522818.26240  23929538.34340
   7167422.71400  24952484.05800   5585013.52440  24952487.50340
  -1584243.66200  26801425.39400  -1154499.80540  26801430.78440
   7637137.17300  23489892.81500   5951017.67040  23489896.10840
  -1814087.23400  26396672.15900  -1318478.79940  26396675.86240
 96  9 13  4  3  0.0070000  0  8  3 14 18 19 22 27 29 31
  -3146931.37200  25963038.93300  -2366380.62840  25963042.80040
  19317687.95600  25216871.11200  15052742.87340  25216875.75340
 -13152742.05800  22567993.76900 -10171244.57640  22567997.30840
  -9796917.42700  23925185.07300  -7540626.65440  23925189.37440
   7284259.93700  24974717.22200   5676055.52440  24974721.14740
  -1635278.71300  26791713.75300  -1194267.34840  26791718.76940
   7707661.36000  23503312.95600   6005971.57840  23503316.08540
  -1877602.81000  26384585.11200  -1367971.44240  26384587.99540
 96  9 13  4  3 30.0070000  0  8  3 14 18 19 22 27 29 31
  -3172190.98100  25958232.43300  -2386063.43340  25958236.88640
  19449668.57600  25241985.75300  15155584.91140  25241990.51140
 -13159498.37400  22566708.01100 -10176509.23340  22566711.52640
  -9819542.51300  23920879.43300  -7558256.56440  23920883.82740
   7401422.09400  24997012.62800   5767350.70040  24997016.92940
  -1686227.65500  26782018.30800  -1233967.76040  26782023.10140
   7778511.08800  23516795.33900   6061179.14940  23516798.46840
  -1941090.20200  26372503.15900  -1417442.12340  26372508.93640
 96  9 13  4  4  0.0070000  0  8  3 14 18 19 22 27 29 31
  -3197052.50500  25953501.29200  -2405436.04640  25953505.55840
  19581817.55000  25267132.98700  15258558.12640  25267137.55840
 -13165901.40800  22565489.70600 -10181498.60840  22565493.10440
  -9841960.57100  23916613.70600  -7575725.18240  23916618.18340
   7518874.02600  25019362.96400   5858871.68740  25019367.21840
  -1737109.34100  26772336.11200  -1273615.81040  26772341.15140
   7849681.84100  23530338.82300   6116636.86840  23530341.97640
  -2004525.73400  26360432.24500  -1466872.36540  26360435.97240
 96  9 13  4  4 30.0070000  0  8  3 14 18 19 22 27 29 31
  -3221559.77400  25948837.87000  -2424532.58540  25948842.08940
  19714101.33900  25292305.87000  15361636.40440  25292310.88640
 -13171983.48100  22564332.26900 -10186237.88040  22564335.71440
  -9864214.52300  23912378.72900  -7593065.90840  23912383.22940
   7636583.93800  25041762.47900   5950593.69540  25041766.24140
  -1787939.10900  26762663.41700  -1313223.36340  26762668.76140
   7921184.73800  23543945.36200   6172353.40440  23543948.46840
  -2067909.09100  26348371.04200  -1516261.98340  26348374.78040
 96  9 13  4  5  0.0070000  0  8  3 14 18 19 22 27 29 31
  -3245707.08600  25944242.52600  -2443348.66540  25944245.99540
  19846557.44300  25317511.36200  15464848.96540  25317515.14740
 -13177715.33900  22563241.45600 -10190704.25440  22563244.91340
  -9886268.26300  23908182.08900  -7610250.61640  23908186.27240
   7754559.49800  25064212.02600   6042522.71040  25064215.85840
  -1838681.10000  26753007.47900  -1352762.55740  26753013.51540
   7993076.09800  23557625.86200   6228372.63740  23557628.93340
  -2131203.71100  26336326.34700  -1565582.43240  26336331.15140
 96  9 13  4  5 30.0070000  0  8  3 14 18 19 22 27 29 31
  -3269499.57300  25939715.31500  -2461888.26040  25939719.03040
  19979201.61000  25342752.81500  15568208.02840  25342757.44440
 -13183088.80500  22562218.94800 -10194891.36940  22562222.42940
  -9908102.11600  23904027.34700  -7627263.98440  23904031.65940
   7872807.00700  25086714.14400   6134663.61540  25086718.10440
  -1889327.09700  26743369.81500  -1392226.91440  26743375.48740
   8065360.18500  23571381.01900   6284697.88640  23571384.13640
  -2194388.55800  26324302.18300  -1614817.36740  26324307.53840
 96  9 13  4  6  0.0070000  0  8  3 14 18 19 22 27 29 31
  -3292945.99400  25935252.97900  -2480158.17840  25935257.22240
  20112032.11900  25368029.98700  15671712.31040  25368034.47640
 -13188076.23600  22561270.01900 -10198777.67240  22561273.54640
  -9929716.70300  23899914.10400  -7644106.50840  23899918.46440
   7991353.48900  25109272.77600   6227037.49440  25109276.86640
  -1939863.28300  26733753.20600  -1431605.73440  26733757.28440
   8138042.34100  23585212.05800   6341333.32440  23585215.08140
  -2257470.78300  26312298.00300  -1663972.33040  26312302.43340
 96  9 13  4  6 30.0070000  0  8  3 14 18 19 22 27 29 31
  -3316065.21100  25930853.85400  -2498173.12940  25930857.51140
  20245026.65500  25393337.87000  15775344.42140  25393342.59340
 -13192675.72200  22560394.62000 -10202361.67740  22560398.14740
  -9951125.39200  23895840.11200  -7660788.59240  23895844.50740
   8110193.73200  25131887.55800   6319640.29340  25131891.65940
  -1990297.93400  26724155.69000  -1470905.40440  26724159.30040
   8211102.92000  23599114.97900   6398263.64240  23599117.89740
  -2320483.30900  26300307.72900  -1713072.99040  26300311.92540
 96  9 13  4  7  0.0070000  0  8  3 14 18 19 22 27 29 31
  -3338844.77600  25926519.15100  -2515923.43640  25926524.03840
  20378178.83500  25418675.62800  15879099.33940  25418680.71440
 -13196887.74200  22559593.09700 -10205643.76240  22559596.60140
  -9972330.87000  23891804.97900  -7677312.32940  23891809.06940
   8229323.63900  25154556.89400   6412468.79440  25154560.97240
  -2040648.69000  26714573.88600  -1510139.74540  26714577.74140
   8284495.95100  23613081.24500   6455453.00340  23613084.45640
  -2383444.43600  26288326.02600  -1762133.58840  26288329.19040
 96  9 13  4  7 30.0070000  0  8  3 14 18 19 22 27 29 31
  -3361266.53700  25922252.63600  -2533394.90540  25922257.00740
  20511485.27800  25444043.19000  15982974.48840  25444048.07740
 -13200695.74000  22558868.26900 -10208611.03140  22558871.77240
  -9993328.63100  23887809.00300  -7693674.20640  23887812.97640
   8348742.13600  25177281.80800   6505522.16040  25177285.76940
  -2090916.03500  26705008.38600  -1549309.05940  26705013.31940
   8358215.14000  23627109.62800   6512896.52240  23627112.69840
  -2446354.83500  26276354.58900  -1811154.69240  26276358.37440
 96  9 13  4  8  0.0070000  0  8  3 14 18 19 22 27 29 31
  -3383318.92800  25918055.97900  -2550578.57940  25918059.58940
  20644944.75600  25469439.69800  16086968.89040  25469445.27640
 -13204098.94900  22558220.79200 -10211262.87040  22558224.31940
 -10014119.31700  23883852.79200  -7709874.74140  23883857.11640
   8468435.86900  25200058.35400   6598789.99240  25200062.24540
  -2141102.14100  26695458.51100  -1588415.09240  26695462.83540
   8432278.59800  23641203.50300   6570608.30140  23641206.74940
  -2509221.75700  26264391.73700  -1860141.86640  26264396.63640
 96  9 13  4  8 30.0070000  0  8  3 14 18 19 22 27 29 31
  -3405004.15700  25913929.22200  -2567476.15940  25913932.58540
  20778558.20400  25494865.65100  16191083.23740  25494870.56140
 -13207124.41200  22557645.08900 -10213620.37340  22557648.65140
 -10034705.18700  23879935.24500  -7725915.65740  23879939.61640
   8588357.05200  25222878.59700   6692235.08340  25222883.01540
  -2191221.60900  26685921.43300  -1627469.17440  26685925.04240
   8506672.95700  23655360.12000   6628577.92140  23655363.22640
  -2572047.62800  26252436.09700  -1909097.07140  26252439.37840
 96  9 13  4  9  0.0070000  0  8  3 14 18 19 22 27 29 31
  -3426310.74500  25909874.65900  -2584078.67740  25909878.22240
  20912328.85400  25520321.37000  16295320.11040  25520326.39740
 -13209768.78700  22557142.00300 -10215680.92440  22557145.48340
 -10055070.54700  23876059.87800  -7741784.73940  23876064.26140
   8708494.57600  25245739.99500   6785848.73340  25245743.94440
  -2241267.72500  26676397.81500  -1666466.08040  26676402.45640
   8581403.74500  23669581.10400   6686809.70440  23669584.23340
  -2634813.45200  26240492.40900  -1958005.49640  26240496.17140
 96  9 13  4  9 30.0070000  0  8  3 14 18 19 22 27 29 31
  -3447237.47600  25905892.60400  -2600385.19540  25905897.01140
  21046258.52700  25545807.24500  16399680.89740  25545812.30840
 -13212029.94000  22556711.73700 -10217442.85440  22556715.15940
 -10075217.35200  23872226.21400  -7757483.54540  23872230.44440
   8828860.23200  25268644.96400   6879640.14240  25268648.65540
  -2291228.85800  26666889.96400  -1705396.83040  26666895.40140
   8656494.42300  23683870.40900   6745321.91540  23683873.57340
  -2697502.27100  26228562.97900  -2006853.88640  26228567.32740
 96  9 13  4 10  0.0070000  0  8  3 14 18 19 22 27 29 31
  -3467807.19300  25901977.94800  -2616413.54240  25901981.35840
  21180315.46300  25571317.27600  16504140.82440  25571322.42140
 -13213935.93700  22556348.90900 -10218928.04240  22556352.26140
 -10095180.52900  23868427.53400  -7773039.26040  23868431.57740
   8949444.22700  25291591.23700   6973601.69640  25291595.01140
  -2341133.67500  26657392.94800  -1744283.66640  26657398.12840
   8731912.90800  23698221.85400   6804089.56140  23698224.99540
  -2760127.60100  26216645.37800  -2055652.83140  26216649.37440
 96  9 13  4 10 30.0070000  0  8  3 14 18 19 22 27 29 31
  -3487986.61800  25898137.89400  -2632137.74240  25898142.14740
  21314513.71300  25596854.33900  16608710.88640  25596859.36640
 -13215463.53000  22556058.06500 -10220118.37040  22556061.56940
 -10114940.43900  23864667.05800  -7788436.58840  23864671.27640
   9070294.67200  25314588.10400   7067770.88140  25314591.84340
  -2390965.00600  26647911.24500  -1783113.23940  26647916.64740
   8807674.08600  23712638.74500   6863124.23840  23712641.79240
  -2822649.66100  26204748.26100  -2104371.29740  26204752.33940
 96  9 13  4 11  0.0070000  0  8  3 14 18 19 22 27 29 31
  -3507757.41400  25894376.05800  -2647543.54440  25894380.31140
  21448848.49700  25622417.63600  16713387.33040  25622422.72240
 -13216596.56200  22555842.44800 -10221001.25840  22555845.92940
 -10134494.29500  23860946.23700  -7803673.34240  23860950.39740
   9191460.34500  25337645.50300   7162185.68640  25337649.73340
  -2440719.69700  26638443.08900  -1821883.09140  26638447.42540
   8883796.91300  23727124.58100   6922440.72240  23727127.52240
  -2885057.64600  26192872.54200  -2153000.88740  26192877.14740
 96  9 13  4 11 30.0070000  0  8  3 14 18 19 22 27 29 31
  -3527127.57600  25890690.30800
  21583316.78100  25648006.00300  16818167.80240  25648010.83140
 -13217335.11500  22555702.01900 -10221576.74740  22555705.49940
 -10153845.34900  23857263.78400  -7818752.07240  23857267.97940
   9312945.43400  25360763.23700   7256849.39040  25360766.90540
  -2490404.62600  26628988.26100  -1860598.58840  26628992.72640
   8960286.89300  23741680.20600   6982043.29040  23741683.32340
  -2947358.66300  26181017.22200  -2201547.11740  26181022.19040
 96  9 13  4 12  0.0070000  0  8  3 14 18 19 22 27 29 31
  -3546090.01300  25887081.39400
  21717908.36400  25673617.95600  16923044.35440  25673622.84340
 -13217687.06700  22555635.08100 -10221850.99240  22555638.50340
 -10172986.01800  23853621.51100  -7833666.88540  23853625.68340
   9434725.49300  25383936.98700   7351742.93240  25383940.58540
  -2540018.73700  26619547.15900  -1899258.90440  26619550.54640
   9037140.83200  23756304.81500   7041929.47240  23756307.96840
  -3009549.97000  26169182.43300  -2250007.84840  26169185.92540
 96  9 13  4 12 30.0070000  0  8  3 14 18 19 22 27 29 31
  -3564651.24000  25883549.15100     -7192.33750  25883553.89740
  21852619.01000  25699252.47200  17028013.67340  25699256.92540
 -13217655.38100  22555641.10400 -10221826.29740  22555644.60840
 -10191920.47500  23850018.16700  -7848420.98740  23850022.23340
   9556774.12900  25407162.58900   7446845.77240  25407166.64440
  -2589555.42400  26610120.68300  -1937858.86040  26610124.50340
   9114371.20700  23771001.35400   7102108.97640  23771004.56540
  -3071633.81100  26157368.17500  -2298384.86040  26157371.63240
 96  9 13  4 13  0.0070000  0  8  3 14 18 19 22 27 29 31
  -3582832.65000  25880089.72200    -21359.65540  25880093.35440
  21987447.99000  25724909.29200  17133075.20840  25724914.51940
 -13217236.09700  22555720.87000 -10221499.57740  22555724.31540
 -10210651.89700  23846453.56500  -7863016.89440  23846457.90140
   9679062.48600  25430433.12000   7542135.40140  25430436.99940
  -2639014.18400  26600708.48700  -1976398.13540  26600713.66740
   9191970.44400  23785768.08100   7162575.91040  23785771.40940
  -3133607.92200  26145574.86200  -2346676.34140  26145578.71840
 96  9 13  4 13 30.0070000  0  8  3 14 18 19 22 27 29 31
  -3600624.80200  25876703.77600    -35223.64640  25876707.69040
  22122417.86500  25750593.17500  17238246.53040  25750599.22240
 -13216407.03400  22555878.39400 -10220853.54940  22555881.88640
 -10229162.22900  23842931.37800  -7877440.52540  23842935.63240
   9801575.17300  25453746.56500   7637599.81940  25453750.37440
  -2688375.01800  26591315.17500  -2014861.06940  26591320.05040
   9269948.98300  23800606.76100   7223338.39840  23800609.90140
  -3195449.27500  26133806.47200  -2394864.39740  26133809.92940
 96  9 13  4 14  0.0070000  0  8  3 14 18 19 22 27 29 31
  -3618005.88200  25873396.03400    -48767.33740  25873400.20640
  22257534.15500  25776305.39400  17343531.92540  25776311.14740
 -13215157.21000  22556116.34700 -10219879.66440  22556119.78040
 -10247456.12000  23839450.08100  -7891695.49640  23839454.31140
   9924310.66000  25477102.03400   7733237.86140  25477106.30040
  -2737630.80600  26581942.80000  -2053242.17340  26581947.53440
   9348313.63000  23815518.97900   7284401.74640  23815522.07340
  -3257155.12300  26122064.49500  -2442946.86240  26122068.31540
 96  9 13  4 14 30.0070000  0  8  3 14 18 19 22 27 29 31
  -3635012.79400  25870159.83900    -62019.45440  25870163.98740
  22392767.77500  25802039.33100  17448908.78240  25802043.18640
 -13213504.12700  22556430.96400 -10218591.54440  22556434.40940
 -10265566.69700  23836003.77600  -7905807.61840  23836007.87840
  10047249.04600  25500496.85400   7829034.00340  25500500.53440
  -2786827.66400  26572580.46400  -2091577.33540  26572584.65940
   9427040.70100  23830500.43300   7345747.50940  23830503.58540
  -3318769.30900  26110339.53400  -2490957.88540  26110343.41340
 96  9 13  4 15  0.0070000  0  8  3 14 18 19 22 27 29 31
  -3651613.05800  25867001.08900    -74954.70540  25867005.55440
  22528138.37500  25827799.13600  17554392.36140  25827804.52640
 -13211428.08700  22556826.06500 -10216973.84840  22556829.59340
 -10283466.34200  23832597.65100  -7919755.38340  23832601.60140
  10170411.72400  25523933.62000   7925004.92240  25523937.01940
  -2835959.49400  26563230.91700  -2129861.84240  26563235.42940
   9506130.85700  23845550.69000   7407376.19440  23845553.91340
  -3380289.83200  26098632.53400  -2538895.94540  26098636.15540
 96  9 13  4 15 30.0070000  0  8  3 14 18 19 22 27 29 31
  -3667800.59000  25863920.40900    -87568.34040  25863924.25340
  22663626.98900  25853582.09700  17659967.86240  25853586.10440
 -13208939.61400  22557299.66700 -10215034.77540  22557303.13640
 -10301174.15300  23829228.00300  -7933553.66540  23829232.19840
  10293784.37300  25547410.66700   8021139.44640  25547414.21840
  -2885027.78800  26553893.79200  -2168096.81940  26553899.69840
   9585575.52800  23860668.44800   7469281.12340  23860671.71840
  -3441743.47000  26086938.53400  -2586781.88240  26086942.51940
 96  9 13  4 16  0.0070000  0  8  3 14 18 19 22 27 29 31
  -3683545.01700  25860924.62800    -99836.70740  25860928.68340
  22799245.98700  25879389.19800  17765645.02440  25879393.32340
 -13206019.62500  22557855.31500 -10212759.46040  22557858.83140
 -10318673.31600  23825897.86200  -7947189.36040  23825902.11640
  10417399.51200  25570934.12000   8117462.94040  25570937.55440
  -2933997.61200  26544575.44000  -2206255.09040  26544580.66740
   9665405.07600  23875859.52600   7531485.95740  23875862.78440
  -3503098.44600  26075262.58100  -2634590.93240  26075266.13240
 96  9 13  4 16 30.0070000  0  8  3 14 18 19 22 27 29 31
  -3698878.34000  25858006.68300   -111784.72540  25858010.32740
  22934974.07400  25905217.25300  17871407.16240  25905221.76540
 -13202690.38700  22558488.97900 -10210165.24940  22558492.49540
 -10335980.55400  23822604.49500  -7960675.50840  23822608.81940
  10541238.80400  25594499.69800   8213961.08640  25594503.49540
  -2982882.20800  26535272.59700  -2244346.92140  26535276.39440
   9745575.27000  23891115.44800   7593956.22840  23891118.55440
  -3564365.77500  26063604.05800  -2682331.69240  26063608.12440
 96  9 13  4 17  0.0070000  0  8  3 14 18 19 22 27 29 31
  -3713788.88700  25855169.22900   -123403.31740  25855173.00340
  23070819.71700  25931068.08100  17977260.90140  25931073.13240
 -13198934.35200  22559203.55000 -10207238.46940  22559206.94840
 -10353089.01000  23819348.88600  -7974006.76240  23819353.29240
  10665305.04900  25618108.60400   8310636.09140  25618111.71040
  -3031650.97300  26525991.87800  -2282348.51940  26525997.58540
   9826082.71700  23906435.58100   7656689.29140  23906438.73340
  -3625509.38200  26051969.33900  -2729976.04240  26051972.22240
 96  9 13  4 17 30.0070000  0  8  3 14 18 19 22 27 29 31
  -3728290.68300  25852409.58900   -134703.38840  25852413.08140
  23206765.59100  25956937.81500  18083192.72240  25956943.51140
 -13194758.26300  22559998.30000 -10203984.37240  22560001.65140
 -10370028.96500  23816125.16700  -7987206.70840  23816129.25740
  10789599.60400  25641761.01900   8407488.98140  25641764.48740
  -3080306.60900  26516732.62000  -2320261.95940  26516737.07340
   9906930.02400  23921820.30000   7719687.18340  23921823.48740
  -3686505.47900  26040361.55800  -2777505.46240  26040366.18640
 96  9 13  4 18  0.0070000  0  8  3 14 18 19 22 27 29 31
  -3742361.73600  25849732.23700   -145667.82640  25849736.28040
  23342834.43200  25982830.54200  18189220.38440  25982834.77240
 -13190147.89200  22560875.64400 -10200391.87340  22560879.01940
 -10386775.23900  23812938.48700  -8000255.74040  23812942.54240
  10914154.11500  25665463.48700   8504544.44240  25665467.20240
  -3128847.25200  26507496.32300  -2358085.80440  26507501.58540
   9988133.60400  23937272.90100   7782962.69440  23937275.96040
  -3747317.72500  26028789.37800  -2824891.61740  26028792.97640
 96  9 13  4 18 30.0070000  0  8  3 14 18 19 22 27 29 31
  -3755999.21400  25847136.96400   -156294.39640  25847141.18340
  23479025.19500  26008747.55000  18295343.02740  26008752.37840
 -13185104.76500  22561835.33100 -10196462.15740  22561838.85840
 -10403321.86600  23809789.81500  -8013149.20740  23809794.17540
  11038964.10300  25689213.75300   8601798.99440  25689217.33940
  -3177290.83800  26498277.45600  -2395833.99240  26498281.78040
  10069695.81100  23952793.71400   7846517.65340  23952796.77240
  -3807950.86900  26017251.55000  -2872138.19940  26017255.51140
 96  9 13  4 19  0.0070000  0  8  3 14 18 19 22 27 29 31
  -3769216.09500  25844622.22900   -166593.24940  25844625.73340
  23615300.46800  26034679.59700  18401531.53740  26034684.15540
 -13179662.37500  22562870.89400 -10192221.33540  22562874.42140
 -10419700.09900  23806672.98700  -8025911.45540  23806677.13640
  11163997.58700  25713006.64400   8699227.67840  25713009.90140
  -3225662.92300  26489072.69800  -2433526.48840  26489076.84740
  10151614.29100  23968382.22900   7910350.23240  23968385.47640
  -3868416.28200  26005745.44800  -2919254.08640  26005749.30440
 96  9 13  4 19 30.0070000  0  8  3 14 18 19 22 27 29 31
  -3781989.97700  25842190.71400   -176546.90040  25842194.38240
  23751665.80800  26060629.28400  18507790.23440  26060633.96040
 -13173835.35900  22563979.64400 -10187680.79840  22563983.18340
 -10435895.73600  23803591.02600  -8038531.42440  23803595.28040
  11289252.61200  25736842.37000   8796828.99140  25736846.07340
  -3273971.93000  26479879.51100  -2471169.83340  26479884.21040
  10233902.37100  23984041.20600   7974470.80440  23984044.37040
  -3928713.20600  25994270.90900  -2966238.68440  25994274.07340
 96  9 13  4 20  0.0080000  0  8  3 14 18 19 22 27 29 31
  -3794317.74500  25839845.18700   -186152.94340  25839849.96940
  23888116.06300  26086594.60200  18614115.11040  26086598.92640
 -13167620.69100  22565162.37500 -10182838.19340  22565165.77340
 -10451867.38500  23800551.81200  -8050976.84540  23800556.00840
  11414713.31500  25760716.28100   8894590.57140  25760720.16040
  -3322215.83900  26470699.02300  -2508762.41140  26470703.41840
  10316557.82400  23999770.05500   8038877.64140  23999773.23040
  -3988857.57500  25982826.19500  -3013104.38540  25982830.25040
 96  9 13  4 20 30.0080000  0  8  3 14 18 19 22 27 29 31
  -3806199.31200  25837584.13300   -195411.27340  25837588.26940
  24024630.13500  26112572.35200  18720489.69640  26112577.64840
 -13161018.06200  22566418.63300 -10177693.28540  22566422.00840
 -10467611.76800  23797555.82800  -8063245.18540  23797560.17640
  11540349.61500  25784624.25000   8992488.99040  25784627.94140
  -3370388.77700  26461532.08600  -2546299.72440  26461535.06240
  10399568.85200  24015566.32000   8103561.54640  24015569.34440
  -4048845.64400  25971410.15600  -3059848.32940  25971413.75440
 96  9 13  4 21  0.0080000  0  8  3 14 18 19 22 27 29 31
  -3817619.09900  25835411.28900   -204309.80240  25835415.80140
  24161219.78700  26138564.75800  18826923.18540  26138570.33640
 -13154001.71300  22567754.05500 -10172225.99640  22567757.55940
 -10483117.19700  23794605.21100  -8075327.32740  23794609.38340
  11666166.47600  25808566.52300   9090528.09640  25808569.99240
  -3418481.28900  26452380.36700  -2583774.38040  26452383.67240
  10482928.59800  24031429.23400   8168517.18640  24031432.23440
  -4108666.23200  25960027.11700  -3106461.75140  25960032.02740
 96  9 13  4 21 30.0080000  0  8  3 14 18 19 22 27 29 31
  -3828585.88600  25833324.25800   -212855.32540  25833327.64440
  24297877.03000  26164569.91400  18933409.32540  26164574.47340
 -13146559.63900  22569170.10900 -10166426.97640  22569173.61340
 -10498374.48400  23791702.10200  -8087216.10740  23791706.27340
  11792169.49500  25832543.32800   9188712.27940  25832547.69940
  -3466508.54200  26443240.90600  -2621198.12540  26443245.81640
  10566631.67700  24047357.57800   8233740.35940  24047360.55540
  -4168337.14000  25948671.85900  -3152958.54040  25948675.59840
 96  9 13  4 22  0.0080000  0  8  3 14 18 19 22 27 29 31
  -3839123.82800  25831318.95300   -221066.69040  25831322.97340
  24434581.77900  26190583.93000  19039932.49840  26190588.21940
 -13138686.78500  22570668.24200 -10160292.28840  22570671.65240
 -10513399.92500  23788842.60900  -8098924.22540  23788846.74640
  11918359.13800  25856556.83600   9287041.85740  25856561.12540
  -3514459.82700  26434116.23400  -2658562.74540  26434121.02740
  10650676.61300  24063350.58600   8299229.91140  24063353.69140
  -4227866.59400  25937343.90600  -3199345.10540  25937348.48840
 96  9 13  4 22 30.0080000  0  8  3 14 18 19 22 27 29 31
  -3849235.65400  25829394.50800   -228946.02540  25829399.11340
  24571341.34500  26216607.76600  19146498.36140  26216613.27340
 -13130393.11700  22572246.45300 -10153829.68940  22572249.96940
 -10528239.93900  23786018.52300  -8110487.85840  23786022.63740
  12044737.65400  25880605.95300   9385518.63440  25880608.95340
  -3562341.57500  26425004.80500  -2695873.12940  26425010.58240
  10735064.10600  24079409.04700   8364986.39240  24079412.46940
  -4287250.69100  25926043.53900  -3245618.42140  25926047.51240
 96  9 13  4 23  0.0080000  0  8  3 14 18 19 22 27 29 31
  -3858914.81600  25827552.14100   -236488.19840  25827555.89140
  24708174.81700  26242646.82000  19253121.84140  26242650.80540
 -13121662.75800  22573907.86700 -10147026.80640  22573911.31240
 -10542886.32100  23783231.45300  -8121900.60840  23783235.68440
  12171319.05000  25904693.63300   9484153.49340  25904697.47740
  -3610137.51800  26415909.39800  -2733116.68440  26415913.44140
  10819818.00600  24095537.07800   8431028.38640  24095540.13740
  -4346479.14400  25914772.18000  -3291770.44840  25914775.91840
 96  9 13  4 23 30.0080000  0  8  3 14 18 19 22 27 29 31
  -3868175.95600  25825789.71900   -243704.64740  25825793.28140
  24845088.52000  26268700.35200  19359807.83440  26268705.67240
 -13112519.45100  22575647.68700 -10139902.15240  22575651.16840
 -10557340.44900  23780481.12500  -8133163.55040  23780485.20340
  12298100.10700  25928819.11700   9582943.91240  25928823.35940
  -3657838.89000  26406831.85900  -2770286.53340  26406835.72740
  10904947.47000  24111736.93700   8497363.02640  24111740.12540
  -4405543.08600  25903533.07800  -3337794.26440  25903537.35540
 96  9 13  4 24  0.0080000  0  8  3 14 18 19 22 27 29 31
  -3877022.84000  25824106.48400   -250598.31540  25824110.32840
  24982092.66400  26294771.96900  19466564.30840  26294776.53940
 -13102975.30300  22577463.88300 -10132465.15340  22577467.42240
 -10571629.78500  23777761.62500  -8144298.08340  23777765.79740
  12425044.11900  25952976.21900   9681861.33540  25952980.15640
  -3705453.78700  26397771.46100  -2807389.01440  26397775.76240
  10990423.51800  24128002.38300   8563967.73140  24128005.43040
  -4464443.31700  25892324.33600  -3383690.52940  25892328.98840
 96  9 13  4 24 30.0080000  0  8  3 14 18 19 22 27 29 31
  -3885411.17500  25822510.57000   -257134.66140  25822514.41440
  25119218.64500  26320865.58600  19573415.71040  26320870.35540
 -13092992.55600  22579363.64100 -10124686.38840  22579367.01640
 -10585726.57500  23775079.09400  -8155282.58540  23775083.09040
  12552163.15300  25977165.95300   9780915.13240  25977170.23040
  -3752983.01800  26388726.66400  -2844424.73740  26388731.42240
  11076254.34300  24144335.32000   8630848.87840  24144338.18040
  -4523150.60200  25881152.93000  -3429436.44940  25881156.24640
 96  9 13  4 25  0.0080000  0  8  3 14 18 19 22 27 29 31
  -3893367.31500  25820996.15600   -263334.21940  25821000.21140
  25256428.79300  26346975.95300  19680332.66740  26346981.98840
 -13082573.86900  22581346.16400 -10116567.92740  22581349.60940
 -10599628.00200  23772433.73400  -8166114.85740  23772437.74240
  12679435.02900  26001384.92200   9880088.02640  26001388.25040
  -3800449.23200  26379694.02300  -2881411.36740  26379698.25440
  11162410.69800  24160730.52300   8697983.69140  24160733.73440
  -4581684.93000  25870014.97700  -3475047.59840  25870019.99240
 96  9 13  4 25 30.0080000  0  8  3 14 18 19 22 27 29 31
  -3900880.62400  25819566.53900   -269188.73140  25819570.87540
  25393704.22400  26373098.53900  19787300.55140  26373103.53140
 -13071707.55800  22583414.02300 -10108100.67140  22583417.53940
 -10613339.57900  23769824.57800  -8176799.19340  23769828.57440
  12806865.61200  26025634.25000   9979384.57240  26025638.68040
  -3847851.54900  26370672.96900  -2918348.19740  26370677.10540
  11248891.48400  24177187.25000   8765371.30740  24177190.25040
  -4640043.07400  25858909.19500  -3520521.45140  25858913.59040
 96  9 13  4 26  0.0080000  0  8  3 14 18 19 22 27 29 31
  -3907919.82600  25818227.03100   -274673.79840  25818231.57840
  25531037.32600  26399231.92200  19894313.31640  26399237.52340
 -13060357.55500  22585573.87500 -10099256.51640  22585577.37940
 -10626847.12000  23767254.26600  -8187324.54040  23767258.44940
  12934479.15900  26049918.21100  10078823.69840  26049922.86340
  -3895188.07300  26361665.84400  -2955233.75040  26361670.09840
  11335726.38700  24193711.46900   8833034.85540  24193714.84440
  -4698212.59600  25847839.46900  -3565848.34140  25847843.33640
 96  9 13  4 26 30.0080000  0  8  3 14 18 19 22 27 29 31
  -3914512.06200  25816972.75000   -279810.60040  25816976.64140
  25668385.87700  26425368.57800  20001338.15240  26425373.41840
 -13048542.50500  22587821.92200 -10090049.98240  22587825.40240
 -10640148.29800  23764723.03900  -8197689.07940  23764727.15240
  13062276.92700  26074237.49200  10178406.38140  26074241.50040
  -3942475.37300  26352667.10900  -2992080.94540  26352670.75440
  11422917.81900  24210303.30500   8900976.21640  24210306.41040
  -4756202.79400  25836805.24200  -3611035.47940  25836810.17640
 96  9 13  4 27  0.0080000  0  8  3 14 18 19 22 27 29 31
  -3920685.90300  25815797.77300   -284621.38340  25815801.79340
  25805733.92000  26451505.41400  20108362.59440  26451510.44140
 -13036292.14800  22590153.33600 -10080504.24940  22590156.85240
 -10653253.11500  23762229.31200  -8207900.61940  23762233.61340
  13190258.94500  26098591.42200  10278132.61240  26098594.35240
  -3989703.06800  26343679.78100  -3028881.72940  26343684.36340
  11510466.98900  24226963.43700   8969196.33940  24226966.73040
  -4814018.64100  25825803.06200  -3656086.77940  25825806.37940
 96  9 13  4 27 30.0080000  0  8  3 14 18 19 22 27 29 31
  -3926425.07900  25814705.70300   -289093.43140  25814708.91440
  25943085.04300  26477642.20300  20215389.43940  26477646.77340
 -13023628.88400  22592563.03900 -10070636.77240  22592566.49640
 -10666174.33900  23759770.35200  -8217969.09040  23759774.48840
  13318425.72800  26122980.84400  10378002.84340  26122984.18440
  -4036867.10300  26334704.70300  -3065632.88740  26334708.53540
  11598376.79400  24243692.26600   9037697.47840  24243695.21940
  -4871659.36100  25814833.80500  -3701001.60840  25814837.09840
 96  9 13  4 28  0.0080000  0  8  3 14 18 19 22 27 29 31
  -3931703.49900  25813701.14800   -293206.47040  25813704.81640
  26080476.29100  26503787.53900  20322447.51640  26503791.81640
 -13010543.39700  22595053.08600 -10060440.28540  22595056.49640
 -10678887.21000  23757351.45300  -8227875.21440  23757355.64840
  13446795.01600  26147408.43700  10478030.85640  26147412.07040
  -4083939.65800  26325747.43700  -3102312.76040  26325752.09040
  11686659.70300  24260491.60200   9106489.33840  24260494.76640
  -4929092.10200  25803905.11700  -3745754.37440  25803908.63340
 96  9 13  4 28 30.0080000  0  8  3 14 18 19 22 27 29 31
  -3936519.37100  25812784.85200   -296959.08340  25812789.01240
  26217918.96000  26529941.52300  20429545.68040  26529947.87540
 -12997048.78900  22597621.01600 -10049925.00640  22597624.46140
 -10691400.19100  23754970.09400  -8237625.57540  23754974.34840
  13575355.02600  26171872.27300  10578207.48940  26171876.83240
  -4130902.72700  26316811.20300  -3138907.33540  26316815.42240
  11775289.06500  24277357.30500   9175551.17640  24277360.44540
  -4986314.42000  25793015.73400  -3790343.19240  25793020.11740
 96  9 13  4 29  0.0080000  0  8  3 14 18 19 22 27 29 31
  -3940863.82600  25811957.86700   -300344.35140  25811961.60540
  26355399.41300  26556103.32000  20536673.31140  26556108.24240
 -12983151.73500  22600265.59400 -10039096.12840  22600269.10940
 -10703745.18700  23752620.92200  -8247245.03940  23752625.08240
  13704072.53400  26196366.96100  10678506.85340  26196370.69940
  -4177759.70100  26307894.36700  -3175419.22740  26307899.31240
  11864251.96200  24294286.43000   9244872.90840  24294289.95740
  -5043341.25000  25782164.12500  -3834779.65140  25782167.99240
 96  9 13  4 29 30.0080000  0  8  3 14 18 19 22 27 29 31
  -3944725.32500  25811223.31200   -303353.29940  25811227.01640
  26492903.83300  26582269.44500  20643819.59440  26582274.63740
 -12968834.89000  22602990.07000 -10027940.14940  22602993.55140
 -10715937.40400  23750300.79700  -8256745.46340  23750304.99240
  13832917.86200  26220885.18700  10778905.82540  26220888.73840
  -4224529.12300  26298993.66400  -3211862.88340  26298998.59840
  11953534.56200  24311276.18700   9314443.74740  24311279.77340
  -5100170.35000  25771349.34400  -3879062.04840  25771354.04340
 96  9 13  4 30  0.0080000  0  8  3 14 18 19 22 27 29 31
  -3948082.56300  25810584.22700   -305969.30740  25810588.44540
  26630467.50300  26608447.03900  20751012.05740  26608452.32440
 -12954038.45000  22605805.60200 -10016410.45540  22605809.14140
 -10727937.84200  23748017.26600  -8266096.44140  23748021.48440
  13961899.67200  26245430.00000  10879411.11940  26245432.88340
  -4271182.97000  26290115.78100  -3248216.51440  26290119.90640
  12043157.52900  24328330.85200   9384279.81340  24328334.22740
  -5156753.10800  25760582.68700  -3923152.48140  25760587.21140
 96  9 13  4 30 30.0080000  0  8  3 14 18 19 22 27 29 31
  -3950979.47800  25810033.12500   -308226.61440  25810037.62540
  26768045.54400  26634626.93700  20858215.70140  26634632.11740
 -12938782.97900  22608708.70300 -10004523.07440  22608712.11340
 -10739773.19600  23745765.13300  -8275318.78740  23745769.28140
  14090978.89400  26269992.72700  10979992.33140  26269997.67240
  -4317763.42100  26281251.96100  -3284512.93640  26281256.19140
  12133092.58600  24345445.08600   9454359.07240  24345448.66040
  -5213122.84700  25749855.75000  -3967076.94640  25749859.98040
 96  9 13  4 31  0.0080000  0  8  3 14 18 19 22 27 29 31
  -3953427.84700  25809566.89100   -310134.42840  25809571.05140
  26905628.52700  26660808.36700  20965423.20640  26660813.04340
 -12923053.40300  22611701.94500  -9992266.26740  22611705.36740
 -10751443.61600  23743544.18000  -8284412.61340  23743548.30540
  14220157.23500  26294574.46900  11080650.77640  26294578.39440
  -4364284.53200  26272399.71900  -3320763.10240  26272404.13740
  12223347.09500  24362619.93700   9524687.25340  24362623.26640
  -5269276.24100  25739169.78100  -4010832.81640  25739173.63740
 96  9 13  4 31 30.0080000  0  8  3 14 18 19 22 27 29 31
  -3955428.04400  25809186.55500   -311693.00140  25809189.85940
  27043230.58500  26686993.26600  21072645.57840  26686998.43440
 -12906851.94600  22614785.11700  -9979641.75340  22614788.58640
 -10762923.27400  23741359.77300  -8293357.78940  23741363.80540
  14349458.92600  26319179.73400  11181405.35140  26319182.89840
  -4410752.32100  26263556.92200  -3356971.73440  26263561.05940
  12313912.47600  24379854.00800   9595257.67140  24379857.30140
  -5325210.96500  25728526.17200  -4054418.29240  25728529.62940
 96  9 13  4 32  0.0080000  0  8  3 14 18 19 22 27 29 31
  -3956976.82900  25808891.41400   -312899.82040  25808895.15240
  27180868.58200  26713184.92200  21179895.93640  26713189.23440
 -12890197.34200  22617954.29700  -9966664.13740  22617957.76640
 -10774190.07200  23739215.63300  -8302137.10040  23739219.50040
  14478901.40100  26343811.99200  11282269.61340  26343816.17640
  -4457154.93500  26254727.15600  -3393129.58940  26254730.64840
  12404812.63000  24397151.85900   9666088.94140  24397155.14140
  -5380927.07600  25717923.82000  -4097833.44340  25717927.68740
 96  9 13  4 32 30.0080000  0  8  3 14 18 19 22 27 29 31
  -3958067.25700  25808684.11700   -313749.49340  25808688.10240
  27318524.15800  26739379.76600  21287160.00540  26739384.74640
 -12873119.98500  22621204.08600  -9953357.10140  22621207.53140
 -10785250.86900  23737111.03900  -8310755.88940  23737115.25840
  14608494.85300  26368472.85200  11383251.53240  26368476.46140
  -4503499.78500  26245907.95300  -3429242.41540  26245912.91040
  12496059.12600  24414515.52300   9737190.09540  24414518.66440
  -5436438.91700  25707359.65600  -4141089.40440  25707363.47740
 96  9 13  4 33  0.0080000  0  8  3 14 18 19 22 27 29 31
  -3958686.75500  25808566.35200   -314232.20140  25808570.32440
  27456184.91200  26765575.51600  21394428.08140  26765581.25840
 -12855642.65000  22624529.82000  -9939738.40440  22624533.28940
 -10796117.92200  23735042.91400  -8319223.71640  23735046.92240
  14738221.68400  26393159.32800  11484337.38040  26393164.29740
  -4549797.37900  26237097.71100  -3465318.42440  26237101.91840
  12587639.12900  24431942.60200   9808551.12340  24431945.91840
  -5491753.18000  25696833.85200  -4184191.38640  25696838.29340
 96  9 13  4 33 30.0080000  0  8  3 14 18 19 22 27 29 31
  -3958823.20400  25808540.46100   -314338.50340  25808544.39840
  27593856.98600  26791774.08600  21501705.03740  26791779.45340
 -12837762.72600  22627932.08600  -9925805.99440  22627935.54340
 -10806771.35500  23733015.75800  -8327525.07940  23733019.76640
  14868077.83200  26417869.56200  11585523.99840  26417872.96140
  -4596034.61400  26228298.47700  -3501347.42140  26228302.90640
  12679559.06400  24449434.33600   9880177.02540  24449437.57040
  -5546852.49100  25686348.97700  -4227125.91340  25686352.65640
 96  9 13  4 34  0.0080000  0  8  3 14 18 19 22 27 29 31
  -3958476.95900  25808606.33600   -314068.67840  25808610.05140
  27731528.76900  26817972.06200  21608981.72240  26817976.83240
 -12819466.56200  22631414.00000  -9911549.24240  22631417.49240
 -10817231.20900  23731025.28100  -8335675.60240  23731029.51240
  14998049.18300  26442602.86700  11686800.37740  26442606.19540
  -4642206.15000  26219512.64100  -3537325.21840  26219517.29340
  12771831.16500  24466993.32000   9952077.35840  24466996.28540
  -5601717.02100  25675908.61700  -4269877.48240  25675912.32040
 96  9 13  4 34 30.0080000  0  9  3 14 16 18 19 22 27 29 31
  -3957639.86800  25808765.46900   -313416.38540  25808769.27740
  27869180.95200  26844166.42200  21716243.16040  26844171.91840
    -43072.83210  27186905.54700
 -12800721.18900  22634980.68700  -9896942.45940  22634984.16840
 -10827504.59400  23729070.32000  -8343680.82540  23729074.34040
  15128146.76300  26467359.41400  11788175.09940  26467364.61740
  -4688307.87500  26210739.40600  -3573248.60340  26210744.42240
  12864441.30400  24484616.05500  10024241.09540  24484619.25440
  -5656332.97700  25665515.39100  -4312435.35340  25665519.26940
 96  9 13  4 35  0.0080000  0  9  3 14 16 18 19 22 27 29 31
  -3956313.38200  25809017.73400   -312382.74240  25809021.91840
  28006817.09800  26870357.19500  21823492.09540  26870362.11740
    -98958.34300  27176268.32800
 -12781498.84200  22638638.86700  -9881964.00940  22638642.28940
 -10837589.17500  23727151.00800  -8351538.92140  23727155.20340
  15258372.78100  26492140.93700  11889649.93840  26492144.57040
  -4734333.43400  26201981.21900  -3609112.63940  26201985.57840
  12957386.20800  24502303.09400  10096665.68740  24502306.39840
  -5710693.59200  25655171.11700  -4354794.24240  25655174.97340
 96  9 13  4 35 30.0080000  0  9  3 14 16 18 19 22 27 29 31
  -3954520.88700  25809359.18700   -310985.98540  25809363.03140
  28144425.76100  26896543.86700  21930719.61040  26896548.61340
   -154512.59700  27165696.75800    -36055.05050  27165701.62140
 -12761804.48600  22642386.75800  -9866617.76040  22642390.25040
 -10847505.13300  23725264.11700  -8359265.63540  23725268.11340
  15388713.76400  26516944.03100  11991214.35440  26516947.13740
  -4780302.74400  26193233.47700  -3644932.86240  26193238.04740
  13050667.62800  24520053.93700  10169352.49840  24520057.14840
  -5764809.72000  25644873.06200  -4396962.64940  25644876.88340
 96  9 13  4 36  0.0080000  0  9  3 14 16 18 19 22 27 29 31
  -3952243.53700  25809792.27300   -309211.39340  25809796.41040
  28282005.93700  26922725.35900  22037924.92740  26922730.75040
   -209719.02000  27155192.22700    -79073.05840  27155199.46140
 -12741633.25600  22646225.11700  -9850899.91940  22646228.51640
 -10857259.68700  23723407.77300  -8366866.57740  23723411.95740
  15519175.97100  26541770.20300  12092873.20040  26541773.47340
  -4826221.48000  26184495.10900  -3680713.66040  26184499.80940
  13144295.07500  24537870.68000  10242308.93340  24537873.99640
  -5818685.85000  25634620.50000  -4438944.02340  25634624.43740
 96  9 13  4 36 30.0080000  0  9  3 14 16 18 19 22 27 29 31
  -3949472.41300  25810319.82800   -307052.05940  25810323.18040
  28419565.79900  26948901.00800  22145114.41340  26948905.50840
   -264559.13900  27144756.75800   -121805.58540  27144761.18740
 -12720977.66600  22650155.76600  -9834804.65640  22650159.18740
 -10866829.85500  23721586.81200  -8374323.83940  23721591.01940
  15649775.60200  26566622.48400  12194639.14240  26566626.53940
  -4872071.31600  26175770.46900  -3716440.78040  26175775.60240
  13238271.80000  24555753.85900  10315537.53940  24555756.94140
  -5872319.96000  25624414.71900  -4480736.83140  25624418.75040
 96  9 13  4 37  0.0080000  0  9  3 14 16 18 19 22 27 29 31
  -3946236.55700  25810935.12500   -304530.60340  25810939.07440
  28557094.09600  26975071.89800  22252279.29940  26975077.39440
   -319054.19300  27134385.93000   -164269.22540  27134390.81640
 -12699878.11400  22654170.64100  -9818363.44140  22654174.10940
 -10876230.58000  23719797.96900  -8381649.06540  23719802.09440
  15780474.53500  26591493.03100  12296482.47640  26591497.84840
  -4917879.25100  26167053.46900  -3752135.24840  26167057.31240
  13332586.72600  24573701.45300  10389029.68040  24573704.38340
  -5925730.74700  25614250.72700  -4522355.61140  25614254.91040
 96  9 13  4 37 30.0080000  0  9  3 14 16 18 19 22 27 29 31
  -3942528.69800  25811641.06200   -301641.34640  25811645.10540
  28694595.65100  27001237.29700  22359423.35140  27001242.61740
   -373209.42600  27124079.89800   -206468.15240  27124083.70740
 -12678334.40200  22658270.41400  -9801576.13440  22658273.82440
 -10885454.85600  23718042.61700  -8388836.79240  23718046.69540
  15911278.01700  26616384.52300  12398407.28940  26616388.39140
  -4963638.14200  26158345.80500  -3787791.49440  26158350.35240
  13427231.46100  24591711.69500  10462778.81140  24591714.83640
  -5978899.17700  25604132.82000  -4563785.54240  25604137.21540
 96  9 13  4 38  0.0080000  0  9  3 14 16 18 19 22 27 29 31
  -3938340.22700  25812438.07000   -298377.59340  25812441.99640
  28832087.35000  27027401.02300  22466559.70740  27027406.33240
   -427004.49600  27113843.55500   -248386.35440  27113848.55940
 -12656332.40000  22662457.27300  -9784431.71440  22662460.71940
 -10894479.44200  23716325.35200  -8395868.92140  23716329.43040
  16042213.06100  26641301.09400  12500434.58940  26641305.38340
  -5009310.42200  26149654.84400  -3823380.24940  26149659.34440
  13522201.46700  24609784.11700  10536781.40140  24609787.50440
  -6031797.82700  25594067.03100  -4605005.25640  25594071.78940
 96  9 13  4 38 30.0080000  0  9  3 14 16 18 19 22 27 29 31
  -3933687.99400  25813323.12500   -294752.45240  25813326.68740
  28969565.50400  27053562.93000  22573685.53240  27053568.37940
   -480444.66300  27103673.35200   -290028.05640  27103677.79340
 -12633885.73200  22666728.71900  -9766940.80240  22666732.22340
 -10903312.00700  23714644.68000  -8402751.43140  23714648.81640
  16173268.56600  26666239.32000  12602555.78640  26666243.21140
  -5054897.55800  26140979.97700  -3858902.66040  26140983.84440
  13617484.42700  24627915.72700  10611027.85040  24627919.09040
  -6084416.09800  25584053.65600  -4646006.49640  25584057.05540
 96  9 13  4 39  0.0080000  0  9  3 14 16 18 19 22 27 29 31
  -3928566.79900  25814297.85200   -290761.91240  25814301.22740
  29107030.24100  27079722.01600  22680800.90140  27079727.01940
   -533534.96700  27093572.00000   -331397.09140  27093576.32440
 -12611007.75200  22671082.21900  -9749113.80240  22671085.69940
 -10911971.69700  23712996.71900  -8409499.22740  23713000.85540
  16304418.65200  26691196.53900  12704750.62940  26691200.45340
  -5100418.21600  26132317.19500  -3894373.27940  26132322.11740
  13713067.22400  24646104.48400  10685507.93740  24646107.67240
  -6136760.42700  25574092.79700  -4686794.25840  25574096.72340
 96  9 13  4 39 30.0080000  0  9  3 14 16 18 19 22 27 29 31
  -3922954.32600  25815365.85200   -286388.52940  25815369.55540
  29244487.66400  27105878.71100  22787910.55040  27105884.06640
   -586244.64500  27083542.67200   -372469.54740  27083549.50440
 -12587681.85800  22675520.82000  -9730937.77840  22675524.43040
 -10920457.39900  23711381.90600  -8416111.44740  23711385.97340
  16435667.35300  26716172.03100  12807022.33640  26716175.31240
  -5145853.36300  26123671.49200  -3929777.24840  26123675.53540
  13808945.53900  24664349.73400  10760218.29440  24664353.19140
  -6188830.78800  25564184.23400  -4727368.55840  25564188.24240
 96  9 13  4 40  0.0080000  0  9  3 14 16 18 19 22 27 29 31
  -3916835.67700  25816530.00800   -281620.73740  25816534.44940
  29381934.17700  27132034.37500  22895011.71040  27132038.95740
   -638541.33400  27073588.58600   -413220.23940  27073593.12140
 -12563900.86200  22680046.37500  -9712407.12940  22680049.92640
 -10928766.57300  23709800.60900  -8422586.11840  23709804.71140
  16567004.00800  26741164.50000  12909362.62440  26741168.10940
  -5191191.21400  26115044.02300  -3965105.42540  26115048.41840
  13905144.19300  24682655.47700  10835178.27740  24682658.82840
  -6240634.20000  25554326.71900  -4767734.83440  25554330.52740
 96  9 13  4 40 30.0080000  0  9  3 14 16 18 19 22 27 29 31
  -3910193.86500  25817793.75800   -276445.26540  25817797.70740
  29519359.50800  27158184.79700  23002096.36040  27158188.71140
   -690435.13300  27063714.54700   -453656.93940  27063719.19940
 -12539652.13900  22684660.75800  -9693512.02040  22684664.34440
 -10936895.46400  23708253.66400  -8428920.30440  23708257.76640
  16698414.87900  26766171.63300  13011760.71040  26766176.28540
  -5236442.76700  26106432.69500  -4000366.33940  26106436.66840
  14001673.83100  24701024.46100  10910396.16040  24701027.64840
  -6292182.11600  25544517.23400  -4807902.02140  25544520.99640
 96  9 13  4 41  0.0080000  0  9  3 14 16 18 19 22 27 29 31
  -3903017.23500  25819159.39100   -270853.08540  25819162.94140
  29656757.76200  27184330.82000  23109159.90140  27184335.12140
   -741927.54900  27053915.18000   -493780.89640  27053920.48840
 -12514924.87400  22689366.01600  -9674244.02440  22689369.41440
 -10944836.63500  23706742.59400  -8435108.22240  23706746.68440
  16829896.47500  26791191.86700  13114213.89840  26791194.89140
  -5281610.56200  26097837.18700  -4035562.00440  26097841.32440
  14098532.58800  24719456.12500  10985870.49940  24719459.10240
  -6343489.44500  25534753.45300  -4847881.75740  25534756.96940
 96  9 13  4 41 30.0080000  0  9  3 14 16 18 19 22 27 29 31
  -3895319.22000  25820624.24200   -264854.61140  25820628.19140
  29794108.43400  27210468.40600  23216186.38940  27210472.41440
   -793029.40200  27044191.53100   -533600.41740  27044201.71940
 -12489715.35700  22694163.48400  -9654600.24440  22694166.98840
 -10952582.60300  23705268.53900  -8441144.02840  23705272.71140
  16961451.10000  26816225.46100  13216723.99340  26816228.73040
  -5326702.49800  26089256.84400  -4070698.56840  26089261.14440
  14195721.93600  24737950.71100  11061602.44540  24737953.79340
  -6394542.11100  25525038.57000  -4887663.05940  25525042.56640
 96  9 13  4 42  0.0080000  0  9  3 14 16 18 19 22 27 29 31
  -3887100.88000  25822188.27300   -258450.69540  25822192.38740
  29931412.83000  27236595.75800  23323176.79440  27236600.52740
   -843774.76100  27034536.24200
 -12464020.95800  22699052.89100  -9634578.62940  22699056.43040
 -10960123.16800  23703833.58600  -8447019.77940  23703837.60540
  17093088.68000  26841275.42200  13319298.76340  26841277.00440
  -5371728.55600  26080688.55500  -4105783.77740  26080692.85540
  14293256.36700  24756510.94500  11137603.29040  24756514.20340
  -6445311.02300  25515377.50800  -4927223.21540  25515381.42240
 96  9 13  4 42 30.0080000  0  9  3 14 16 18 19 22 27 29 31
  -3878377.07100  25823848.55500   -251652.89840  25823851.81240
  30068668.17600  27262715.53900  23430129.00040  27262720.82440
   -894195.59900  27024939.81200    -10453.29350  27024947.10540
 -12437854.05900  22704032.11700  -9614188.83640  22704035.62140
 -10967460.03000  23702437.51600  -8452736.80240  23702441.65240
  17224803.88500  26866339.93000  13421933.96240  26866344.78140
  -5416708.67000  26072129.46100  -4140833.19840  26072134.67640
  14391121.76100  24775133.86700  11213862.02040  24775137.04340
  -6495783.08200  25505773.43000  -4966552.06840  25505777.18040
 96  9 13  4 43  0.0080000  0  9  3 14 16 18 19 22 27 29 31
  -3869168.24300  25825600.92200   -244477.18140  25825605.17640
  30205860.65400  27288822.00000  23537032.20240  27288826.85240
   -944290.14700  27015406.53900
 -12411230.92500  22709098.23400  -9593443.53740  22709101.76240
 -10974607.61900  23701077.15600  -8458306.33640  23701081.17640
  17356583.67500  26891416.85200  13524619.52040  26891420.30940
  -5461656.63600  26063576.22700  -4175857.57940  26063580.71540
  14489307.53900  24793818.20300  11290370.40740  24793821.48440
  -6545953.13000  25496225.93000  -5005645.61440  25496229.93740
 96  9 13  4 43 30.0080000  0  9  3 14 16 18 19 22 27 29 31
  -3859476.95800  25827444.88300   -236925.51240  25827448.64440
  30342994.44000  27314916.84400  23643889.71740  27314921.19140
   -994055.19700  27005938.23400
 -12384151.61100  22714251.53100  -9572342.76840  22714254.97740
 -10981552.82400  23699755.78900  -8463718.17540  23699759.82040
  17488440.92200  26916508.06200  13627365.39840  26916512.19940
  -5506553.71200  26055032.04700  -4210842.29140  26055036.05540
  14587827.60900  24812566.00000  11367139.27940  24812569.41040
  -6595787.29900  25486742.98400  -5044477.40140  25486747.08640
 96  9 13  4 44  0.0080000  0  9  3 14 16 18 19 22 27 29 31
  -3849299.00000  25829381.76600   -228994.63140  25829385.44540
  30480073.31600  27341002.71900  23750704.38140  27341006.57440
  -1043476.53900  26996532.67200    -32071.12950  26996536.83240
 -12356616.71300  22719491.26600  -9550887.00140  22719494.84040
 -10988301.60700  23698471.61700  -8468976.95440  23698475.63740
  17620382.80100  26941615.75800  13730177.27640  26941620.35240
  -5551389.76300  26046500.32000  -4245779.45840  26046504.78540
  14686682.15200  24831377.10900  11444168.77740  24831380.55540
  -6645295.01000  25477322.48400  -5083054.82640  25477326.50440
 96  9 13  4 44 30.0080000  0  8  3 16 18 19 22 27 29 31
  -3838612.51700  25831415.21100   -220667.48340  25831418.45740
  -1092494.79200  26987205.15600    -70267.15840  26987210.12540
 -12328602.67700  22724822.12500  -9529057.88340  22724825.58240
 -10994839.95800  23697227.28100  -8474071.76640  23697231.33640
  17752429.65700  26966744.96100  13833070.92340  26966749.23840
  -5596135.94600  26037985.46100  -4280646.60940  26037989.23440
  14785878.03500  24850253.78100  11521464.25040  24850256.76940
  -6694463.64600  25467965.78100  -5121368.03940  25467969.68440
 96  9 13  4 45  0.0080000  0  8  3 16 18 19 22 27 29 31
  -3827442.11200  25833541.06200   -211963.25740  25833544.76640
  -1141117.61100  26977952.04700   -108155.09040  26977958.39840
 -12300137.08100  22730238.91400  -9506876.90040  22730242.43040
 -11001205.32400  23696015.89800  -8479031.77540  23696019.98840
  17884553.01600  26991886.20300  13936024.17640  26991890.43440
  -5640823.03100  26029481.75800  -4315467.67840  26029486.48040
  14885372.72700  24869187.09400  11598992.56340  24869190.22340
  -6743329.33900  25458666.49200  -5159445.18240  25458670.13740
 96  9 13  4 45 30.0080000  0  8  3 16 18 19 22 27 29 31
  -3815757.56700  25835764.21100   -202858.40440  25835767.89140
  -1189311.03200  26968782.01600   -145708.37140  26968787.85240
 -12271198.49000  22735745.81200  -9484327.34940  22735749.36340
 -11007379.03800  23694841.08600  -8483842.45040  23694845.26940
  18016776.87900  27017047.50800  14039055.76340  27017050.87140
  -5685426.44100  26020993.89800  -4350223.56940  26020998.25840
  14985185.76700  24888180.64100  11676768.94140  24888183.65240
  -6791868.84000  25449429.70300  -5197268.15940  25449433.40640
 96  9 13  4 46  0.0080000  0  8  3 16 18 19 22 27 29 31
  -3803535.95000  25838089.99200   -193335.05040  25838093.66040
  -1237039.11900  26959699.88300   -182899.09540  26959704.20740
 -12241753.04600  22741349.02300  -9461382.84840  22741352.51640
 -11013366.00500  23693701.81200  -8488507.60840  23693705.80940
  18149103.04000  27042228.43000  14142167.05840  27042232.94140
  -5729935.58300  26012523.86700  -4384905.99240  26012527.54740
  15085318.61900  24907235.17200  11754794.52240  24907238.69940
  -6840085.47400  25440254.27300  -5234839.54040  25440258.16440
 96  9 13  4 46 30.0080000  0  8  3 16 18 19 22 27 29 31
  -3790791.21500  25840515.46100   -183404.07240  25840519.34040
  -1284314.99600  26950702.64800   -219737.43340  26950707.35940
 -12211824.57700  22747044.17200  -9438061.96040  22747047.64140
 -11019183.46400  23692594.91400  -8493040.67940  23692598.91040
  18281490.12400  27067420.39800  14245325.87140  27067424.57040
  -5774367.44000  26004069.18000  -4419528.20340  26004073.12940
  15185754.01700  24926347.72700  11833055.84640  24926351.41840
  -6887999.89700  25431136.46100  -5272175.43540  25431140.48040
 96  9 13  4 47  0.0080000  0  8  3 16 18 19 22 27 29 31
  -3777533.86200  25843038.23400   -173073.66040  25843041.59840
  -1331167.38400  26941787.41400   -256245.78840  26941790.56640
 -12181429.08300  22752828.35200  -9414377.16340  22752831.86740
 -11024835.23800  23691519.16400  -8497444.64440  23691523.10240
  18413920.20100  27092621.23400  14348518.13840  27092625.64140
  -5818729.85800  25995626.80500  -4454096.29540  25995631.25840
  15286493.54700  24945517.64800  11911554.16540  24945521.05940
  -6935620.92600  25422074.89100  -5309282.72040  25422079.13340
 96  9 13  4 47 30.0080000  0  8  3 16 18 19 22 27 29 31
  -3763755.03400  25845659.75000   -162336.88540  25845663.43040
  -1377604.19800  26932950.93700   -292430.32140  26932955.94140
 -12150560.73600  22758702.23400  -9390323.90440  22758705.77340
 -11030309.36000  23690477.67200  -8501710.17740  23690481.59840
  18546405.29000  27117832.96100  14451753.22340  27117838.66840
  -5863008.94300  25987201.05500  -4488599.45140  25987205.33240
  15387550.19900  24964748.18000  11990299.58940  24964751.51940
  -6982944.58200  25413069.59400  -5346158.27440  25413073.47340
 96  9 13  4 48  0.0080000  0  8  3 16 18 19 22 27 29 31
  -3749467.23400  25848379.28100   -151203.53940  25848382.46940
  -1423655.60500  26924186.96900   -328314.53740  26924191.31640
 -12119231.79900  22764663.85200  -9365911.74340  22764667.44940
 -11035599.16800  23689470.91400  -8505832.09040  23689474.95740
  18678936.95600  27143052.25000  14555024.68040  27143054.31240
  -5907209.96000  25978789.78100  -4523041.77640  25978794.35240
  15488909.92100  24984036.46100  12069281.17040  24984040.15240
  -7029976.80900  25404119.54700  -5382806.74340  25404123.85940
 96  9 13  4 48 30.0080000  0  8  3 16 18 19 22 27 29 31
  -3734674.19500  25851194.07800   -139676.48040  25851198.30940
  -1469343.89600  26915493.68700   -363915.81240  26915498.26940
 -12087464.98200  22770709.05500  -9341158.38340  22770712.64140
 -11040691.09000  23688501.95300  -8509799.80840  23688505.84440
  18811521.72700  27168281.76600  14658337.51940  27168284.62540
  -5951342.52300  25970391.74200  -4557430.76840  25970395.39840
  15590585.17300  25003384.46100  12148508.61640  25003387.82440
  -7076700.87600  25395228.02300  -5419215.09940  25395232.11340
 96  9 13  4 49  0.0080000  0  9  3 10 16 18 19 22 27 29 31
  -3719384.91100  25854103.53900   -127762.73240  25854107.24240
    -17223.56710  27321855.82000
  -1514686.64900  26906864.44500   -399247.83340  26906868.46540
 -12055253.23400  22776838.78100  -9316058.32040  22776842.25040
 -11045588.29200  23687569.98400  -8513615.79640  23687573.93440
  18944171.82900  27193524.39100  14761701.24340  27193530.59040
  -5995420.83900  25962004.17200  -4591777.48240  25962007.99240
  15692574.04400  25022792.07800  12227980.44540  25022795.57040
  -7123110.46000  25386396.20300  -5455378.38640  25386400.55140
 96  9 13  4 49 30.0080000  0  9  3 10 16 18 19 22 27 29 31
  -3703584.82900  25857110.24200   -115450.97340  25857113.85240
    -63928.12600  27312967.39100
  -1559674.34900  26898303.46100   -434303.16940  26898310.16440
 -12022584.73500  22783055.43700  -9290602.34840  22783058.89440
 -11050295.32400  23686674.31200  -8517283.60440  23686678.33240
  19076890.94000  27218781.28900  14865118.72040  27218787.18440
  -6039448.86500  25953625.32800  -4626085.01240  25953629.65240
  15794877.23400  25042259.96900  12307697.20240  25042263.14440
  -7169199.00200  25377626.43000  -5491291.52640  25377629.95740
 96  9 13  4 50  0.0080000  0  9  3 10 16 18 19 22 27 29 31
  -3687254.98500  25860217.67200   -102726.41340  25860221.03540
   -110225.16400  27304159.20300    -15592.79650  27304164.18440
  -1604288.26800  26889813.64100   -469067.28840  26889818.12940
 -11989437.31200  22789363.14100  -9264773.18940  22789366.58640
 -11054825.15600  23685812.34400  -8520813.32840  23685816.39840
  19209664.99300  27244046.17200  14968579.03240  27244046.73440
  -6083415.44500  25945259.03900  -4660344.64640  25945263.42240
  15897512.41500  25061791.01600  12387672.65240  25061794.22740
  -7214944.62900  25368920.91400  -5526937.45640  25368924.89840
 96  9 13  4 50 30.0080000  0  9  3 10 16 18 19 22 27 29 31
  -3670375.87300  25863429.44500    -89573.84540  25863432.83240
   -156118.56900  27295425.82000    -51353.93040  27295430.90640
  -1648504.73300  26881399.76600   -503521.65640  26881405.54340
 -11955801.25200  22795764.00000  -9238563.27640  22795767.44540
 -11059188.98400  23684981.89100  -8524213.70340  23684985.85240
  19342493.79800  27269322.41400  15072081.99740  27269324.61740
  -6127323.98300  25936903.35200  -4694559.06940  25936907.76940
  16000489.00600  25081386.78900  12467914.13440  25081390.26940
  -7260341.36700  25360282.43000  -5562311.51940  25360286.15640
 96  9 13  4 51  0.0090000  0  9  3 10 16 18 19 22 27 29 31
  -3652947.88900  25866746.13800    -75993.57740  25866749.82940
   -201639.58900  27286762.62200    -86824.81240  27286768.18840
  -1692328.51000  26873059.97400   -537670.07840  26873065.96240
 -11921677.15300  22802257.54400  -9211973.06940  22802261.10640
 -11063405.38100  23684179.30200  -8527499.19340  23684183.46240
  19475358.23200  27294604.52800  15175612.74940  27294607.88040
  -6171185.21000  25928556.80200  -4728736.63140  25928560.54040
  16103779.98000  25101042.36400  12548400.58440  25101045.88040
  -7305401.86300  25351707.81700  -5597423.58340  25351711.95440
 96  9 13  4 51 30.0090000  0  9  3 10 16 18 19 22 27 29 31
  -3634967.48300  25870167.45800    -61982.86940  25870170.81040
   -246790.67500  27278171.06000   -122007.50440  27278177.88040
  -1735736.93300  26864799.17700   -571494.80640  26864804.89540
 -11887061.33100  22808844.60600  -9184999.70640  22808848.13440
 -11067477.08100  23683404.59100  -8530671.93340  23683408.61040
  19608236.26300  27319891.00500  15279154.05240  27319896.36040
  -6214991.18000  25920220.89500  -4762871.12440  25920224.56340
  16207367.21100  25120754.40300  12629117.88840  25120758.16540
  -7350110.64000  25343199.73900  -5632261.57640  25343203.43140
 96  9 13  4 52  0.0090000  0  9  3 10 16 18 19 22 27 29 31
  -3616442.01900  25873692.77800    -47547.41340  25873696.70440
   -291567.54900  27269650.94200   -156898.57640  27269655.88840
  -1778725.74100  26856618.76300   -604992.59140  26856624.23540
 -11851954.83700  22815525.06700  -9157643.99940  22815528.61840
 -11071387.43000  23682660.40300  -8533718.94640  23682664.45840
  19741136.52800  27345181.75500  15382712.72640  27345183.44240
  -6258736.91200  25911896.41100  -4796958.69640  25911901.18140
  16311244.46600  25140521.70000  12710061.18740  25140525.33340
  -7394460.62900  25334760.51300  -5666819.98840  25334764.57940
 96  9 13  4 52 30.0090000  0  9  3 10 16 18 19 22 27 29 31
  -3597397.80100  25877316.75500    -32707.75140  25877320.71640
   -335968.02800  27261202.02000   -191496.33840  27261205.65340
  -1821302.44900  26848516.74700   -638169.25140  26848520.83740
 -11816379.74500  22822294.98100  -9129923.15140  22822298.42740
 -11075111.36900  23681951.77800  -8536620.70140  23681955.63440
  19874072.39100  27370478.45000  15486299.11240  27370479.11840
  -6302437.65700  25903580.45000  -4831011.19240  25903584.48140
  16415385.27000  25160338.50500  12791209.83840  25160342.13840
  -7438464.49000  25326386.59900  -5701108.69540  25326390.65340
 96  9 13  4 53  0.0090000  0  9  3 10 16 18 19 22 27 29 31
  -3577849.62400  25881036.60600    -17475.40140  25881039.87640
   -379975.20800  27252827.22400   -225787.64840  27252830.27040
  -1863454.70500  26840495.70800   -671015.17040  26840499.37640
 -11780323.67400  22829156.02000  -9101827.51540  22829159.47740
 -11078641.51300  23681279.98100  -8539371.45540  23681283.77840
  20007045.11900  27395783.46600  15589914.21440  27395786.12640
  -6346075.12800  25895276.58300  -4865014.40640  25895280.33340
  16519789.21200  25180206.33300  12872563.53640  25180210.06040
  -7482130.15300  25318077.00500  -5735133.87240  25318080.73140
 96  9 13  4 53 30.0090000  0 10  2  3 10 16 18 19 22 27 29 31
    -24998.24610  27483903.73100
  -3557799.61900  25884852.04400     -1852.00640  25884855.58340
   -423572.38300  27244530.83300   -259759.53940  27244538.56040
  -1905156.98400  26832560.83300   -703510.43440  26832565.52040
 -11743771.31300  22836111.77000  -9073345.16240  22836115.32140
 -11081956.77800  23680649.19200  -8541954.77240  23680653.27040
  20140074.38400  27421098.48100  15693573.36940  27421100.61440
  -6389618.20000  25886990.41900  -4898944.03740  25886994.38040
  16624476.73800  25200127.65300  12954138.20740  25200131.11040
  -7525453.74600  25309833.06000  -5768892.50740  25309837.17340
 96  9 13  4 54  0.0090000  0 10  2  3 10 16 18 19 22 27 29 31
    -93103.19200  27470943.19200
  -3537260.45600  25888760.32500     14152.54140  25888764.40340
   -466766.61300  27236311.14500   -293417.28440  27236315.43540
  -1946421.09400  26824708.45000   -735664.29440  26824713.13840
 -11706740.23200  22843158.61400  -9044489.77840  22843162.22440
 -11085054.82700  23680059.75500  -8544368.82940  23680063.72740
  20273154.88200  27446420.64500  15797272.52040  27446425.08740
  -6433065.35700  25878722.88000  -4932798.94240  25878726.61840
  16729440.96900  25220101.63800  13035928.50040  25220105.14240
  -7568456.38700  25301649.74700  -5802401.04240  25301653.91940
 96  9 13  4 54 30.0090000  0 10  2  3 10 16 18 19 22 27 29 31
   -161091.46800  27458005.49700    -22944.61650  27458011.63840
  -3516233.79100  25892761.69200     30536.96840  25892766.06340
   -509551.79500  27228168.77800   -326756.41140  27228173.20840
  -1987233.83400  26816941.91900   -767466.40240  26816945.99740
 -11669234.29000  22850295.95800  -9015264.37440  22850299.43840
 -11087946.96900  23679509.34900  -8546622.43740  23679513.28640
  20406273.63300  27471752.47400  15901001.37640  27471754.18540
  -6476411.19900  25870473.91900  -4966574.90040  25870477.50540
  16834692.50500  25240130.47400  13117942.66140  25240133.88440
  -7611132.66300  25293529.20800  -5835655.27240  25293532.71240
 96  9 13  4 55  0.0090000  0 10  2  3 10 16 18 19 22 27 29 31
   -228941.28000  27445094.59900    -75814.61540  27445099.13440
  -3494701.46800  25896859.31700     47315.41840  25896862.88040
   -551929.47600  27220105.35600   -359777.96340  27220115.56740
  -2027579.23000  26809264.43500   -798904.36740  26809268.60640
 -11631233.85700  22857526.92700  -8985653.64840  22857530.43140
 -11090644.66700  23678995.85600  -8548724.52940  23678999.91140
  20539419.90500  27497089.72400  16004751.76340  27497091.22440
  -6519635.68900  25862248.75500  -5000256.29940  25862252.41140
  16940261.33300  25260219.49700  13200204.07440  25260223.01340
  -7653449.22900  25285476.42700  -5868629.20640  25285480.42340
 96  9 13  4 55 30.0090000  0 10  2  3 10 16 18 19 22 27 29 31
   -296654.24800  27432209.20000   -128577.91640  27432214.42740
  -3472656.57600  25901054.31700     64493.26340  25901057.58740
   -593894.83800  27212118.23100
  -2067479.36500  26801672.06000   -829995.37440  26801676.11440
 -11592755.45100  22864849.29400  -8955670.48040  22864852.79840
 -11093162.37400  23678516.76300  -8550686.37140  23678520.67740
  20672589.09300  27522431.37200  16108519.91640  27522434.86440
  -6562766.05200  25854041.32500  -5033864.34340  25854045.34540
  17046148.56300  25280369.08300  13282713.58540  25280372.56340
  -7695383.05300  25277496.56000  -5901304.88840  25277500.05240
 96  9 13  4 56  0.0090000  0  9  2  3 10 16 18 19 27 29 31
   -364223.07400  27419350.77800   -181228.89740  27419354.90340
  -3450084.16100  25905349.70800     82082.16840  25905353.13040
   -635430.53300  27204215.00500
  -2106943.90400  26794161.69200   -860746.95640  26794165.58340
 -11553803.61500  22872261.52800  -8925318.40440  22872265.05640
 -11095513.31500  23678069.55200  -8552518.26740  23678073.56040
  -6605824.79300  25845847.52000  -5067416.60440  25845851.51740
  17152366.72000  25300581.91100  13365480.95940  25300585.35640
  -7736919.22300  25269592.32500  -5933670.74340  25269595.89940
 96  9 13  4 56 30.0090000  0  9  2  3 10 16 18 19 27 29 31
   -431619.28600  27406525.63000   -233745.41940  27406530.91540
  -3426974.39500  25909747.18500    100089.77940  25909750.89940
   -676539.74500  27196391.63000
  -2145983.22200  26786733.02000   -891167.17840  26786737.49740
 -11514372.43900  22879765.03600  -8894592.81840  22879768.58740
 -11097720.14000  23677649.55200  -8554237.86140  23677653.47740
  -6648832.97100  25837663.39500  -5100929.43940  25837667.31040
  17258917.42800  25320857.70800  13448507.47440  25320861.01340
  -7778049.22200  25261765.48900  -5965720.06040  25261769.67340
 96  9 13  4 57  0.0090000  0  9  2  3 10 16 18 19 27 29 31
   -498830.69600  27393735.26300   -286117.91040  27393739.85640
  -3403314.73900  25914249.45000    118525.88740  25914252.59140
   -717223.76700  27188649.16900
  -2184609.47000  26779382.16900   -921265.54340  26779386.82140
 -11474437.48300  22887364.41100  -8863474.67440  22887367.95040
 -11099774.76700  23677258.61400  -8555838.85640  23677262.48140
  -6691797.53100  25829487.22400  -5134408.29540  25829490.96240
  17365799.74800  25341196.73100  13531792.36840  25341200.24740
  -7818777.23200  25254015.44200  -5997456.15540  25254019.62640
 96  9 13  4 57 30.0090000  0  9  2  3 10 16 18 19 27 29 31
   -565872.47800  27380978.18500   -338358.21140  27380983.65740
  -3379101.37700  25918857.22400    137393.46940  25918860.82140
   -757470.44000  27180992.13000
  -2222825.24700  26772110.62200   -951044.06740  26772114.84140
 -11434001.42400  22895059.16900  -8831966.06240  22895062.69640
 -11101665.61400  23676899.00500  -8557312.23040  23676902.98940
  -6734727.23200  25821318.24700  -5167859.99940  25821322.64240
  17472990.93600  25361594.74700  13615317.95340  25361598.20440
  -7859126.70900  25246337.13000  -6028897.28340  25246340.95040
 96  9 13  4 58  0.0090000  0  9  2  3 10 16 18 19 27 29 31
   -632737.87500  27368253.52800   -390461.09440  27368260.55240
  -3354329.62600  25923571.12200    156696.12540  25923575.24740
   -797286.66900  27173415.81700     -6179.43650  27173418.86440
  -2260607.99000  26764921.13000   -980485.14540  26764926.96640
 -11393047.68200  22902852.32500  -8800054.05940  22902855.93540
 -11103360.26700  23676576.31000  -8558632.73140  23676580.20040
  -6777598.47000  25813160.04400  -5201266.11840  25813164.09940
  17580487.46900  25382050.62200  13699081.46040  25382054.30240
  -7899083.53300  25238733.79400  -6060032.45040  25238737.87240
 96  9 13  4 58 30.0090000  0  9  2  3 10 16 18 19 27 29 31
   -699464.31500  27355556.31700   -442455.67540  27355563.22440
  -3329029.10600  25928385.46600    176410.82340  25928389.55640
   -836689.36400  27165917.89500    -36882.84440  27165921.95040
  -2297970.18600  26757810.46600  -1009598.53440  26757815.92740
 -11351592.75300  22910740.91900  -8767751.51840  22910744.54040
 -11104868.62600  23676289.14500  -8559808.07440  23676292.98940
  -6820422.68500  25805010.63800  -5234635.61940  25805015.45440
  17688256.07800  25402557.98100  13783056.99340  25402561.32140
  -7938660.84400  25231202.52000  -6090871.89340  25231206.85640
 96  9 13  4 59  0.0090000  0  9  2  3 10 16 18 19 27 29 31
   -766076.17200  27342880.30200   -494360.98940  27342885.28240
  -3303200.99000  25933300.42700    196536.65340  25933304.28240
   -875648.94100  27158503.35600    -67240.96640  27158508.12640
  -2334889.87900  26750785.66100  -1038367.12240  26750791.20440
 -11309643.67300  22918723.73100  -8735063.92840  22918727.21240
 -11106171.24400  23676041.36400  -8560823.09140  23676045.11440
  -6863182.64300  25796873.88800  -5267955.05540  25796878.34140
  17796295.47800  25423117.27800  13867243.51840  25423120.88840
  -7977840.92400  25223746.61400  -6121401.81240  25223750.50540
 96  9 13  4 59 30.0090000  0  9  2  3 10 16 18 19 27 29 31
   -832565.79100  27330228.34900   -546171.06140  27330233.70440
  -3276836.12000  25938317.31700    217080.71340  25938320.89240
   -914150.13700  27151178.26300    -97241.89240  27151183.20840
  -2371335.23000  26743850.07500  -1066766.10140  26743855.02040
 -11267209.62000  22926798.59900  -8701998.43340  22926802.11440
 -11107257.34100  23675834.71600  -8561669.39140  23675838.47740
  -6905859.51700  25788752.53600  -5301209.73140  25788756.94240
  17904613.78700  25443729.81000  13951647.37240  25443733.74740
  -8016588.30200  25216372.99700  -6151594.55840  25216376.70040
 96  9 13  5  0  0.0090000  0  9  2  3 10 16 18 19 27 29 31
   -898909.52500  27317603.04400   -597867.44940  27317609.18540
  -3249922.76200  25943439.16100    238052.17540  25943443.56740
   -952183.73200  27143939.38800   -126878.47340  27143945.56340
  -2407280.91300  26737008.28600  -1094775.72040  26737013.18540
 -11224275.23900  22934968.72400  -8668543.08340  22934972.25140
 -11108116.01500  23675671.31700  -8562338.47740  23675675.26740
  -6948435.87100  25780650.54400  -5334386.07640  25780654.68140
  18013237.28700  25464400.24700  14036289.03940  25464404.13840
  -8054876.57100  25209087.06000  -6181429.56040  25209090.71640
 96  9 13  5  0 30.0090000  0  9  2  3 10 16 18 19 27 29 31
   -965132.38700  27305001.70000   -649469.67740  27305006.90340
  -3222473.24300  25948662.13000    259441.41740  25948665.79840
   -989762.72400  27136788.32500   -156160.76040  27136793.08340
  -2442743.00500  26730261.04400  -1122408.49740  26730267.07940
 -11180860.90700  22943230.18500  -8634713.73440  22943233.77040
 -11108780.39100  23675544.95800  -8562856.16240  23675548.87240
  -6990924.17700  25772565.38000  -5367493.82640  25772568.79040
  18122150.71500  25485125.82500  14121156.62840  25485129.10640
  -8092750.67700  25201879.94200  -6210941.83440  25201883.77440
 96  9 13  5  1  0.0090000  0  9  2  3 10 16 18 19 27 29 31
  -1031222.92800  27292424.78600   -700968.76140  27292428.95840
  -3194480.86200  25953989.38800    281253.67840  25953993.39540
  -1026913.92400  27129716.97400   -185109.74040  27129722.16540
  -2477729.61400  26723603.83300  -1149670.75640  26723608.13440
 -11136973.09000  22951581.70000  -8600515.43840  22951585.29840
 -11109252.85900  23675454.98100  -8563224.31040  23675458.82540
  -7033324.13200  25764496.81000  -5400532.71940  25764500.64240
  18231349.45900  25505905.53600  14206246.55140  25505909.07540
  -8130231.27200  25194747.49700  -6240147.46540  25194751.39940
 96  9 13  5  1 30.0090000  0  9  2  3 10 16 18 19 27 29 31
  -1097148.96400  27279879.51300   -752339.70940  27279885.14940
  -3165924.39000  25959423.06700    303505.48040  25959426.85240
  -1063644.43300  27122728.97400   -213730.93540  27122734.07140
  -2512236.43000  26717036.45800  -1176559.18240  26717041.21640
 -11092587.07400  22960027.97400  -8565928.94140  22960031.52440
 -11109523.32000  23675403.55200  -8563435.05440  23675407.44240
  -7075624.61100  25756447.38800  -5433494.11140  25756451.13840
  18340861.28500  25526745.37200  14291580.41840  25526748.79440
  -8167326.73700  25187688.56700  -6269053.01740  25187692.82140
 96  9 13  5  2  0.0090000  0  9  2  3 10 16 18 19 27 29 31
  -1162907.34600  27267365.83300   -803579.94240  27267370.67340
  -3136793.63600  25964966.41100    326204.78040  25964970.09140
  -1099945.02500  27115821.59100   -242017.06040  27115826.22040
  -2546280.22400  26710558.73900  -1203086.82340  26710562.61840
 -11047690.43400  22968571.54400  -8530944.54940  22968575.11840
 -11109596.84200  23675389.46600  -8563492.33640  23675393.32140
  -7117816.60900  25748418.66100  -5466370.98240  25748422.99740
  18450691.55800  25547645.16100  14377162.43840  25547648.22040
  -8204046.75200  25180700.81000  -6297666.00140  25180704.63040
 96  9 13  5  2 30.0090000  0  9  2  3 10 16 18 19 27 29 31
  -1228486.11800  27254886.84100   -854680.27140  27254892.45440
  -3107086.66400  25970619.78600    349353.07040  25970622.79840
  -1135808.41700  27108997.05200   -269962.57740  27109002.38440
  -2579868.00300  26704167.01300  -1229259.08740  26704171.71240
 -11002294.89200  22977210.16900  -8495571.40640  22977213.70840
 -11109485.16600  23675410.63000  -8563405.30640  23675414.40340
  -7159904.17200  25740409.51300  -5499166.46940  25740413.72040
  18560832.75500  25568604.39500  14462986.72440  25568607.99340
  -8240376.80500  25173787.38000  -6325975.11840  25173791.03640
 96  9 13  5  3  0.0090000  0  9  2  3 10 16 18 19 27 29 31
  -1293859.99200  27242446.45000   -905620.95740  27242452.60240
  -3076787.46200  25976385.32500    372962.83840  25976389.38040
  -1171202.98600  27102261.04400   -297542.74840  27102264.72440
  -2612983.26000  26697865.27800  -1255063.21440  26697870.41140
 -10956382.20700  22985946.98900  -8459795.29340  22985950.63440
 -11109175.60400  23675469.63000  -8563164.08040  23675473.33340
  -7201887.04600  25732420.41100  -5531880.37440  25732424.80640
  18671297.79000  25589624.70800  14549063.36240  25589628.62240
  -8276269.60700  25166957.44200  -6353943.51940  25166961.38040
 96  9 13  5  3 30.0090000  0  9  2  3 10 16 18 19 27 29 31
  -1359046.55400  27230042.00500   -956415.63140  27230047.41940
  -3045918.62000  25982259.90300    397016.49040  25982263.02040
  -1206122.03100  27095615.82500   -324752.38040  27095622.75540
  -2645620.91000  26691654.38000  -1280495.12740  26691659.57140
 -10909952.62900  22994782.38800  -8423616.39940  22994786.04440
 -11108686.10500  23675562.90300  -8562782.64040  23675566.66540
  -7243775.17400  25724449.31700  -5564520.44740  25724453.24340
  18782077.13000  25610705.36400  14635384.90140  25610708.78640
  -8311706.58400  25160213.91900  -6381556.73640  25160217.34140
 96  9 13  5  4  0.0090000  0  9  2  3 10 16 18 19 27 29 31
  -1424076.01500  27217667.02800  -1007087.92940  27217672.79440
  -3014521.63800  25988234.37200    421481.68340  25988237.98140
  -1240593.13900  27089056.66900   -351612.99940  27089059.70440
  -2677800.48100  26685530.52000  -1305570.13440  26685534.92740
 -10863039.66500  23003709.46600  -8387060.84940  23003713.05240
 -11108034.14100  23675686.59100  -8562274.61340  23675690.51740
  -7285593.84400  25716491.58300  -5597106.41240  25716495.80240
  18893124.61300  25631837.52800  14721915.39340  25631841.24340
  -8346698.18500  25153555.16100  -6408822.90340  25153558.80640
 96  9 13  5  4 30.0090000  0  9  2  3 10 16 18 19 27 29 31
  -1488944.95800  27205323.28600  -1057635.15140  27205328.10240
  -2982603.68100  25994308.05200    446352.82040  25994311.90740
  -1274622.75500  27082581.75500   -378129.57640  27082585.49340
  -2709508.03200  26679496.92700  -1330277.27940  26679501.56740
 -10815641.61600  23012729.13800  -8350127.31440  23012732.81740
 -11107205.74300  23675844.40300  -8561629.10840  23675848.13040
  -7327363.70200  25708542.78600  -5629654.33640  25708546.54840
  19004435.75900  25653019.17700  14808651.32040  25653022.81040
  -8381253.10600  25146979.84100  -6435748.80440  25146983.42740
 96  9 13  5  5  0.0090000  0  9  2  3 10 16 18 19 27 29 31
  -1553647.57500  27193010.41900  -1108052.79440  27193015.37640
  -2950140.30400  26000485.78600    471648.96140  26000489.32540
  -1308200.10200  27076191.88000   -404293.72540  27076196.16940
  -2740727.59800  26673556.99700  -1354604.17940  26673561.87240
 -10767718.97500  23021848.52000  -8312785.00040  23021852.08340
 -11106164.89100  23676042.50500  -8560818.04540  23676046.27840
  -7369065.82100  25700607.38000  -5662149.46240  25700611.57540
  19116033.76300  25674255.47400  14895610.78740  25674259.11840
  -8415361.35900  25140489.29400  -6462326.64140  25140493.12640
 96  9 13  5  5 30.0090000  0  9  2  3 10 16 18 19 27 29 31
  -1618187.44400  27180729.41900  -1158343.56540  27180734.32940
  -2917139.78200  26006765.53600    497363.66440  26006769.06340
  -1341346.61700  27069883.49700   -430122.16240  27069887.86840
  -2771470.76300  26667705.66900  -1378559.88940  26667710.60240
 -10719286.73400  23031064.75500  -8275045.59240  23031068.31740
 -11104906.23900  23676282.15300  -8559837.26740  23676285.99740
  -7410705.02100  25692683.71600  -5694595.57640  25692687.46640
  19227907.46500  25695544.22400  14982785.07940  25695548.02040
  -8449044.28600  25134079.44200  -6488573.07340  25134082.93540
 96  9 13  5  6  0.0090000  0  9  2  3 10 16 18 19 27 29 31
  -1682569.01100  27168477.63000  -1208511.00340  27168482.52840
  -2883596.42700  26013148.26300    523501.35140  26013152.23540
  -1374065.86200  27063656.70800   -455617.68440  27063660.86840
  -2801754.23300  26661943.72400  -1402157.37140  26661947.55640
 -10670360.43700  23040375.16100  -8236921.21040  23040378.64240
 -11103436.43900  23676561.53600  -8558691.96340  23676565.34540
  -7452306.20000  25684767.09100  -5727012.07940  25684770.89940
  19340050.53300  25716884.70800  15070169.27440  25716888.36440
  -8482320.19400  25127747.09100  -6514502.33640  25127750.88840
 96  9 13  5  6 30.0090000  0  9  2  3 10 16 18 19 27 29 31
  -1746781.79400  27156258.10600  -1258546.92340  27156264.27040
  -2849488.44800  26019638.94200    550079.01140  26019642.37640
  -1406319.80500  27057520.20800   -480750.62340  27057524.15740
  -2831570.82700  26656269.09900  -1425391.06040  26656273.64540
 -10620930.70800  23049781.37200  -8198404.54440  23049784.84140
 -11101758.70600  23676881.03600  -8557384.63240  23676884.77440
  -7493866.62700  25676858.51300  -5759396.79240  25676862.80240
  19452477.02700  25738278.45000  15157774.30240  25738281.96640
  -8515162.22200  25121497.50500  -6540093.52240  25121501.25540
 96  9 13  5  7  0.0090000  0  9  2  3 10 16 18 19 27 29 31
  -1810815.29000  27144072.98100  -1308443.15640  27144078.48940
  -2814812.25700  26026237.75500    577099.42540  26026241.11840
  -1438078.89000  27051476.41900   -505497.93340  27051480.54440
  -2860913.21000  26650685.85600  -1448255.20940  26650690.52040
 -10570981.57100  23059286.46600  -8159483.14440  23059289.94640
 -11099874.12700  23677239.59100  -8555916.12140  23677243.31740
  -7535354.62800  25668963.41100  -5791725.08740  25668967.30240
  19565203.22900  25759729.63800  15245612.88240  25759733.34140
  -8547536.03400  25115337.02800  -6565319.85240  25115340.83740
 96  9 13  5  7 30.0090000  0  9  2  3 10 16 18 19 27 29 31
  -1874689.52600  27131917.90300  -1358215.25140  27131923.82140
  -2779615.34500  26032935.52800    604525.59940  26032938.73940
  -1469362.01600  27045523.12200   -529874.38540  27045527.96240
  -2889803.77200  26645187.95800  -1470767.32140  26645192.76340
 -10520555.00100  23068882.21600  -8120189.71540  23068885.70840
 -11097824.10400  23677629.71600  -8554318.69140  23677633.51340
  -7576793.92200  25661077.69200  -5824015.42140  25661081.64240
  19678196.92000  25781231.90300  15333659.89740  25781235.85240
  -8579468.26700  25109260.51300  -6590202.10240  25109264.01740
 96  9 13  5  8  0.0090000  0  9  2  3 10 16 18 19 27 29 31
  -1938386.78400  27119797.47400  -1407849.44540  27119802.29040
  -2743886.82500  26039734.62200    632366.00140  26039739.29840
  -1500135.61500  27039666.06700   -553853.83040  27039670.40340
  -2918224.80400  26639779.98100  -1492913.55140  26639784.84540
 -10469623.45300  23078574.31700  -8080502.80540  23078577.83340
 -11095593.74700  23678054.03600  -8552580.74340  23678057.91540
  -7618147.96000  25653208.58300  -5856239.33140  25653213.00140
  19791470.54700  25802786.92700  15421925.02740  25802791.11040
  -8610932.43200  25103273.06700  -6614719.61440  25103276.73540
 96  9 13  5  8 30.0090000  0  9  2  3 10 16 18 19 27 29 31
  -2001894.34000  27107711.92700  -1457335.86040  27107718.04440
  -2707632.22500  26046633.00500    660616.34240  26046636.41540
  -1530398.82500  27033908.23900   -577435.53640  27033913.05640
  -2946167.41100  26634462.63800  -1514686.99740  26634467.16140
 -10418175.14200  23088364.63800  -8040413.21840  23088368.22440
 -11093170.92400  23678515.20000  -8550692.82540  23678519.14940
  -7659385.04100  25645361.33300  -5888372.10340  25645365.09540
  19905016.29800  25824393.95000  15510402.22140  25824397.26740
  -8641923.20600  25097375.92700  -6638868.26440  25097379.41940
 96  9 13  5  9  0.0090000  0  9  2  3 10 16 18 19 27 29 31
  -2065192.90300  27095667.00500  -1506659.37440  27095672.81740
  -2670838.66600  26053634.84100    689286.66040  26053638.90740
  -1560170.32400  27028242.64500   -600634.07040  27028247.38040
  -2973613.61400  26629239.71600  -1536073.61740  26629244.57940
 -10366189.37100  23098257.15300  -7999904.83040  23098260.71640
 -11090538.60000  23679015.99700  -8548641.66140  23679019.80640
  -7700482.71500  25637540.69200  -5920396.24340  25637544.91140
  20018840.42000  25846053.81700  15599096.31340  25846056.85240
  -8672443.05300  25091568.13000  -6662649.93840  25091571.76340
 96  9 13  5  9 30.0090000  0  9  2  3 10 16 18 19 27 29 31
  -2128263.67700  27083664.58300  -1555805.42940  27083668.82540
  -2633471.90700  26060745.95800    718403.61640  26060749.05240
  -1589450.46300  27022670.76300   -623449.76640  27022675.98940
  -3000534.90600  26624116.89500  -1557051.20940  26624120.93840
 -10313664.80300  23108252.20800  -7958976.60040  23108255.74740
 -11087669.90800  23679562.00500  -8546406.31340  23679566.01340
  -7741433.83000  25629747.96600  -5952306.17840  25629751.59940
  20132943.72200  25867766.86400  15688007.96440  25867770.42740
  -8702484.73000  25085851.07500  -6686059.02340  25085854.83740
 96  9 13  5 10  0.0090000  0  9  2  3 10 16 18 19 27 29 31
  -2191143.42400  27071699.06000  -1604802.62740  27071703.66540
  -2595539.96400  26067963.84900    747961.00340  26067967.07140
  -1618267.11700  27017187.07500   -645904.28940  27017193.50940
  -3026952.20800  26619090.28600  -1577636.12340  26619094.18840
 -10260639.99500  23118342.43500  -7917658.57640  23118346.06740
 -11084594.16800  23680147.06000  -8544009.62540  23680150.96240
  -7782271.62500  25621976.58300  -5984127.81040  25621980.68540
  20247295.35300  25889527.73100  15777113.10340  25889531.22440
  -8732071.40100  25080221.20000  -6709113.55440  25080224.79840
 96  9 13  5 10 30.0090000  0  9  2  3 10 16 18 19 27 29 31
  -2253813.93400  27059773.34100  -1653636.78840  27059778.20440
  -2557007.33000  26075296.63800    777986.43840  26075299.80240
  -1646609.74900  27011793.71600   -667989.39740  27011798.48540
  -3052838.55700  26614163.36400  -1597807.29540  26614168.83740
 -10207095.69300  23128531.67700  -7875935.75040  23128535.26340
 -11081305.42600  23680772.91100  -8541446.96040  23680776.73140
  -7822992.58100  25614227.88000  -6015858.40740  25614231.47740
  20361929.15300  25911341.56000  15866438.10940  25911344.94640
  -8761177.81100  25074682.35600  -6731793.84940  25074686.22440
 96  9 13  5 11  0.0090000  0  9  2  3 10 16 18 19 27 29 31
  -2316289.05700  27047885.03600  -1702318.67140  27047890.74340
  -2517876.73200  26082742.56700    808477.81340  26082745.57940
  -1674480.53400  27006490.47400   -689706.90440  27006494.85640
  -3078200.09000  26609337.02800  -1617569.51040  26609341.37640
 -10153051.52000  23138815.95000  -7833823.41340  23138819.53640
 -11077824.21500  23681435.52800  -8538734.32140  23681439.38440
  -7863624.54200  25606495.83300  -6047519.66440  25606499.77040
  20476847.17500  25933209.91900  15955984.60740  25933213.36440
  -8789809.98100  25069233.84900  -6754104.61840  25069237.29440
 96  9 13  5 11 30.0090000  0  9  2  3 10 16 18 19 27 29 31
  -2378562.24700  27036033.95000  -1750843.20940  27036039.48140
  -2478139.95400  26090304.19200    839441.54340  26090307.50940
  -1701849.38900  27001282.89500   -711033.24140  27001287.59540
  -3103026.90100  26604613.31000  -1636915.05940  26604617.61040
 -10098510.75900  23149194.70000  -7791324.12540  23149198.31040
 -11074139.58400  23682136.82500  -8535863.17440  23682140.66940
  -7904161.26400  25598782.04400  -6079106.70140  25598786.50940
  20592072.38500  25955136.69200  16045770.45940  25955139.73940
  -8817945.52000  25063879.82500  -6776028.39240  25063883.73940
 96  9 13  5 12  0.0090000  0  9  2  3 10 16 18 19 27 29 31
  -2440667.99800  27024215.91900  -1799237.29440  27024222.00140
  -2437841.38000  26097973.05200    870843.05040  26097976.62640
  -1728744.14800  26996164.63000   -731990.19440  26996169.73940
  -3127352.94400  26599983.75500  -1655870.40540  26599987.59940
 -10043491.50500  23159664.64500  -7748451.98740  23159668.22040
 -11070291.39400  23682868.79400  -8532864.57540  23682872.67340
  -7944637.87900  25591079.23100  -6110646.88040  25591083.28640
  20707582.00900  25977117.36400  16135777.94240  25977121.22040
  -8845615.79200  25058614.41100  -6797589.63140  25058618.16140
 96  9 13  5 12 30.0090000  0  9  2  3 10 16 18 19 27 29 31
  -2502590.57300  27012432.21600  -1847488.61240  27012438.63840
  -2396994.78400  26105745.72400    902671.56940  26105749.86040
  -1755160.88000  26991137.49700   -752574.66140  26991142.72440
  -3151172.37400  26595450.63000  -1674430.99140  26595455.98540
  -9987969.91700  23170229.91900  -7705188.41740  23170233.48140
 -11066271.99900  23683633.77000  -8529732.57640  23683637.66140
  -7985047.52300  25583389.81000  -6142134.89540  25583393.84140
  20823381.64800  25999152.91900  16226011.39840  25999156.13040
  -8872817.86100  25053437.81700  -6818786.03140  25053441.32140
 96  9 13  5 13  0.0090000  0  9  2  3 10 16 18 19 27 29 31
  -2564333.65300  27000683.02000  -1895600.08540  27000687.80240
  -2355622.87300  26113618.48900    934909.42340  26113621.59540
  -1781097.35900  26986202.31700   -772784.87140  26986207.41540
  -3174479.19400  26591016.17700  -1692592.12440  26591020.81740
  -9931949.81300  23180890.29400  -7661536.39240  23180893.90340
 -11062059.86400  23684435.29400  -8526450.39040  23684439.16140
  -8025385.07300  25575713.63800  -6173566.75140  25575717.70440
  20939464.79400  26021242.99700  16316465.77140  26021246.44240
  -8899551.91800  25048350.45000  -6839617.74540  25048354.23540
 96  9 13  5 13 30.0090000  0  9  2  3 10 16 18 19 27 29 31
  -2625889.65400  26988969.36400  -1943565.77040  26988974.48540
  -2313717.64700  26121592.68500    967562.84840  26121595.81340
  -1806546.85500  26981358.77000   -792615.60540  26981362.89540
  -3197265.89300  26586680.09100  -1710347.99840  26586684.57940
  -9875405.43300  23191650.14500  -7617475.84440  23191653.68540
 -11057623.51900  23685279.56000  -8522993.49440  23685283.40340
  -8065631.47400  25568055.08300  -6204927.55040  25568058.88040
  21055833.66500  26043387.52800  16407142.79140  26043390.78640
  -8925809.10000  25043353.86400  -6860077.87140  25043357.46240
 96  9 13  5 14  0.0090000  0  9  2  3 10 16 18 19 27 29 31
  -2687231.69200  26977296.50500  -1991364.76640  26977300.64240
  -2271256.71900  26129672.98100   1000649.31140  26129676.20440
  -1831485.31200  26976613.31700   -812048.13740  26976618.22740
  -3219513.64400  26582446.15300  -1727683.87040  26582450.73540
  -9818293.70100  23202518.27000  -7572973.20440  23202521.91540
 -11052936.46000  23686171.43500  -8519341.23940  23686175.40740
  -8105754.05600  25560420.15300  -6236191.90140  25560423.89240
  21172497.35000  26065588.17700  16498049.54640  26065591.55240
  -8951566.63700  25038452.44200  -6880148.66040  25038456.14540
 96  9 13  5 14 30.0090000  0  9  2  3 10 16 18 19 27 29 31
  -2748362.01300  26965663.13800  -2038998.73840  26965669.39540
  -2228248.17400  26137857.48100   1034162.45940  26137860.85640
  -1855911.50500  26971964.92700   -831081.50440  26971970.64540
  -3241242.49400  26578311.53600  -1744615.45140  26578315.21640
  -9760627.64700  23213491.70000  -7528038.62240  23213495.35640
 -11047994.32500  23687111.83300  -8515490.22040  23687115.71240
  -8145749.97500  25552808.80200  -6267357.54940  25552812.57540
  21289438.69000  26087840.96600  16589172.63840  26087845.00940
  -8976817.98000  25033647.25500  -6899825.01440  25033650.89940
 96  9 13  5 15  0.0090000  0  9  2  3 10 16 18 19 27 29 31
  -2809289.82000  26954069.59100  -2086474.96640  26954076.48540
  -2184670.30900  26146149.63800   1068119.24340  26146153.34140
  -1879818.94500  26967415.91100   -849710.67440  26967420.22440
  -3262465.33700  26574272.79400  -1761152.69540  26574276.93140
  -9702414.35300  23224569.23900  -7482677.62440  23224572.80240
 -11042801.52200  23688099.89500  -8511443.87540  23688103.68140
  -8185627.58300  25545220.45800  -6298430.99340  25545224.12640
  21406640.14200  26110144.14500  16680498.42640  26110147.72040
  -9001556.94700  25028939.69200  -6919102.11240  25028943.77040
 96  9 13  5 15 30.0090000  0  9  2  3 10 16 18 19 27 29 31
  -2870019.66500  26942512.52800  -2133796.86640  26942517.89540
  -2140509.13100  26154553.32500   1102530.55240  26154556.66540
  -1903206.48800  26962965.56700   -867934.71040  26962970.71240
  -3283194.96500  26570328.55200  -1777305.63340  26570334.21240
  -9643668.48200  23235748.45800  -7436901.62740  23235752.00940
 -11037395.82300  23689128.74700  -8507231.63840  23689132.54440
  -8225400.55900  25537652.02800  -6329422.89740  25537655.36840
  21524079.57600  26132491.66100  16772009.64740  26132495.17740
  -9025781.21800  25024329.81700  -6937978.15540  25024333.39240
 96  9 13  5 16  0.0090000  0  9  2  3 10 16 18 19 27 29 31
  -2930537.21700  26930996.38800  -2180953.40040  26931002.84540
  -2095753.58100  26163070.10600   1137405.02040  26163073.59940
  -1926051.06200  26958617.94200   -885735.66040  26958622.20840
  -3303407.61000  26566481.84100  -1793055.73440  26566486.62240
  -9584397.91200  23247027.22400  -7390716.77040  23247030.79840
 -11031798.19300  23690193.96600  -8502869.84440  23690197.84540
  -8265068.70300  25530103.20000  -6360333.12540  25530107.24340
  21641777.35400  26154889.20800  16863722.18940  26154892.84140
  -9049468.39700  25019822.26300  -6956435.68140  25019825.80240
 96  9 13  5 16 30.0090000  0  9  2  3 10 16 18 19 27 29 31
  -2990859.66200  26919517.88000  -2227957.88040  26919523.17740
  -2050418.12800  26171697.24700   1172731.35540  26171700.77440
  -1948365.58100  26954371.45000   -903123.56040  26954376.31340
  -3323104.21600  26562733.38800  -1808403.74540  26562738.06340
  -9524637.51400  23258399.17700  -7344150.23440  23258402.76340
 -11026040.32100  23691289.60600  -8498383.18340  23691293.45040
  -8304668.80900  25522567.60600  -6391190.34340  25522571.48540
  21759720.13000  26177333.05200  16955625.61840  26177337.16540
  -9072639.19900  25015412.75500  -6974490.84040  25015416.68140
 96  9 13  5 17  0.0090000  0  9  2  3 10 16 18 19 27 29 31
  -3050965.23900  26908080.07500  -2274793.38540  26908086.94640
  -2004486.03000  26180437.31700   1208522.60640  26180440.54040
  -1970141.20900  26950228.08300   -920091.55340  26950233.55640
  -3342250.38700  26559090.21600  -1823322.83440  26559095.06740
  -9464375.90900  23269866.49700  -7297193.14740  23269870.17740
 -11020116.61100  23692416.83300  -8493767.30440  23692420.79440
  -8344190.54200  25515047.05200  -6421986.48140  25515051.10640
  21877936.21500  26199828.72400  17047742.02640  26199832.48540
  -9095279.13500  25011104.93500  -6992132.32840  25011108.69640
 96  9 13  5 17 30.0090000  0  9  2  3 10 16 18 19 27 29 31
  -3110832.99200  26896688.19200  -2321443.55040  26896693.71240
  -1957964.58900  26189290.41100   1244773.07440  26189294.67740
  -1991374.71200  26946186.73100   -936637.16440  26946190.89240
  -3360823.66500  26555555.74700  -1837795.49840  26555559.90740
  -9403613.94400  23281429.16100  -7249846.17240  23281432.82940
 -11014001.44800  23693580.56000  -8489002.23940  23693584.41540
  -8383616.16300  25507544.33300  -6452707.75340  25507548.73940
  21996461.61000  26222383.32500  17140099.46540  26222386.65340
  -9117382.16000  25006898.75500  -7009355.44840  25006902.34140
 96  9 13  5 18  0.0090000  0  9  2  3 10 16 18 19 27 29 31
  -3170452.44600  26885342.89500  -2367900.24040  26885346.56340
  -1910870.83200  26198251.74700   1281469.50140  26198255.59140
  -2012087.02500  26942245.44200   -952776.59540  26942250.17740
  -3378829.89400  26552129.38000  -1851826.29940  26552134.87640
  -9342351.01800  23293087.14500  -7202108.83440  23293090.82540
 -11007663.54400  23694786.49700  -8484063.61040  23694790.35240
  -8422946.78000  25500060.16100  -6483354.97240  25500063.67740
  22115297.08100  26244996.84100  17232698.50640  26245000.09940
  -9138959.81000  25002792.54400  -7026169.18540  25002796.27040
 96  9 13  5 18 30.0090000  0  9  2  3 10 16 18 19 27 29 31
  -3229812.56400  26874046.17700  -2414154.86340  26874051.91940
  -1863200.51100  26207323.23100   1318615.22540  26207326.74740
  -2032292.88500  26938401.18500   -968521.40640  26938405.14540
  -3396281.32300  26548808.64500  -1865424.80140  26548813.28640
  -9280580.48800  23304841.53600  -7153975.95940  23304845.20440
 -11001070.87400  23696041.24700  -8478926.45740  23696045.02040
  -8462164.01000  25492597.02800  -6513913.82640  25492601.17740
  22234424.89900  26267666.29400  17325525.35840  26267669.39940
  -9160002.44700  24998788.27800  -7042566.02340  24998792.19240
 96  9 13  5 19  0.0090000  0  9  2  3 10 16 18 19 27 29 31
  -3288913.90500  26862799.85600  -2460207.84440  26862805.09540
  -1814947.30600  26216506.02800   1356215.13140  26216509.90740
  -2051995.98000  26934651.10600   -983874.43940  26934655.91140
  -3413192.77300  26545590.39500  -1878602.54240  26545594.39240
  -9218292.03100  23316694.87200  -7105439.50640  23316698.47040
 -10994208.16700  23697346.86400  -8473578.89240  23697350.56740
  -8501254.63700  25485158.63800  -6544374.03540  25485162.64540
  22353853.16300  26290392.36400  17418586.32640  26290395.75140
  -9180496.32800  24994888.61400  -7058535.26940  24994892.31740
 96  9 13  5 19 30.0090000  0  9  2  3 10 16 18 19 27 29 31
  -3347760.36400  26851602.09100  -2506062.21940  26851606.73140
  -1766114.19600  26225798.23900   1394266.90740  26225801.94240
  -2071192.53800  26930998.17700   -998832.79340  26931003.86040
  -3429569.74300  26542474.32500  -1891363.81040  26542479.30640
  -9155477.60600  23328647.92700  -7056493.20840  23328651.51340
 -10987079.42200  23698703.45800  -8468024.02140  23698707.38440
  -8540221.21100  25477743.55200  -6574737.57440  25477747.57140
  22473565.57000  26313173.23100  17511868.69740  26313177.76740
  -9200445.97500  24991092.15300  -7074080.43040  24991095.55240
 96  9 13  5 20  0.0090000  0  9  2  3 10 16 18 19 27 29 31
  -3406373.04600  26840448.14500  -2551734.42740  26840453.02040
  -1716710.42600  26235199.07500   1432763.35640  26235203.11840
  -2089881.02000  26927442.29400  -1013395.20140  26927447.43840
  -3445420.48100  26539457.63000  -1903715.03440  26539461.12240
  -9092123.16100  23340703.99700  -7007126.11340  23340707.59540
 -10979701.32000  23700107.59900  -8462274.84640  23700111.36040
  -8579061.29600  25470352.44200  -6605002.56540  25470356.47440
  22593535.52900  26336002.45800  17605351.75540  26336006.39540
  -9219854.03300  24987398.86400  -7089203.58440  24987402.34540
 96  9 13  5 20 30.0090000  0  9  2  3 10 16 18 19 27 29 31
  -3464789.32600  26829331.52800  -2597253.59340  26829335.54840
  -1666746.33900  26244707.50500   1471696.41640  26244710.64540
  -2108057.86400  26923982.54400  -1027558.97040  26923986.13040
  -3460769.60000  26536536.66100  -1915675.37340  26536541.11440
  -9028230.14700  23352862.40300  -6957339.35840  23352865.98940
 -10972109.18900  23701552.46600  -8456358.90340  23701556.33340
  -8617791.91800  25462982.27000  -6635182.24540  25462986.17340
  22713752.43900  26358878.97400  17699027.26940  26358882.71240
  -9238736.00700  24983805.70800  -7103916.78840  24983809.25940
 96  9 13  5 21  0.0090000  0  9  2  3 10 16 18 19 27 29 31
  -3522999.61800  26818255.10600  -2642612.24840  26818260.04040
  -1616210.94000  26254323.98900   1511074.64540  26254327.11840
  -2125696.51500  26920626.18500  -1041303.37540  26920630.74340
  -3475593.97800  26533715.79400  -1927226.83340  26533720.27040
  -8963780.55800  23365126.76300  -6907118.90640  23365130.36040
 -10964297.39400  23703038.88000  -8450271.78840  23703042.72440
  -8656409.09200  25455633.52800  -6665273.50840  25455637.46640
  22834238.44500  26381806.77000  17792912.43540  26381810.39240
  -9257090.46000  24980312.82500  -7118218.94340  24980316.55240
 96  9 13  5 21 30.0090000  0  9  2  3 10 16 18 19 27 29 31
  -3580996.14300  26807218.84900  -2687804.33240  26807224.05240
  -1565112.42400  26264047.65300   1550891.67840  26264051.27440
  -2142793.07700  26917372.12200  -1054625.33340  26917377.70040
  -3489875.79100  26530997.78600  -1938355.49340  26531002.96640
  -8898778.76400  23377496.20800  -6856468.16040  23377499.82940
 -10956256.34500  23704569.01300  -8444006.03840  23704572.82140
  -8694902.41200  25448308.60600  -6695268.28740  25448312.35640
  22954990.41500  26404785.24700  17887004.86840  26404789.03240
  -9274925.58900  24976919.06000  -7132116.43240  24976922.93840
 96  9 13  5 22  0.0100000  0  9  2  3 10 16 18 19 27 29 31
  -3638778.00800  26796223.10300  -2732829.14440  26796228.28340
  -1513438.36400  26273881.18900   1591157.16540  26273885.13940
  -2159350.60000  26914222.39300  -1067527.26640  26914227.88940
  -3503614.93000  26528383.35300  -1949061.30340  26528388.47540
  -8833232.20400  23389969.28300  -6805392.92540  23389972.88140
 -10947978.82800  23706144.13500  -8437556.01940  23706147.89640
  -8733267.36700  25441007.90000  -6725163.02840  25441011.74440
  23076035.79500  26427819.45500  17981325.90940  26427823.31040
  -9292222.35200  24973627.55700  -7145594.41440  24973631.11940
 96  9 13  5 22 30.0100000  0  9  2  3 10 16 18 19 27 29 31
  -3696326.98800  26785271.93200  -2777672.48740  26785277.46340
  -1461193.25600  26283822.51000   1631867.65140  26283825.90840
  -2175382.93800  26911172.13500  -1080020.00840  26911178.10040
  -3516809.59500  26525873.08000  -1959342.85540  26525877.55740
  -8767179.18600  23402538.73600  -6753923.04840  23402542.32240
 -10939493.09700  23707759.04900  -8430943.76040  23707762.81040
  -8771533.21300  25433726.45500  -6754980.55540  25433730.12340
  23197353.93100  26450905.50200  18075859.50640  26450910.10740
  -9308976.70900  24970439.42400  -7158649.74240  24970442.97540
 96  9 13  5 23  0.0100000  0  9  2  3 10 16 18 19 27 29 31
  -3753606.17100  26774372.11100  -2822305.59640  26774376.68240
  -1408365.80000  26293875.49400   1673031.92540  26293879.83040
  -2190881.92100  26908222.01800  -1092097.11140  26908225.92040
  -3529420.24800  26523473.05700  -1969169.33940  26523477.24040
  -8700620.55300  23415204.53300  -6702059.18740  23415208.07240
 -10930787.93600  23709415.40000  -8424160.51540  23709419.24440
  -8809678.37000  25426467.17400  -6784704.03740  25426470.92440
  23318960.45500  26474046.24400  18170617.81740  26474049.24440
  -9325169.40300  24967358.09600  -7171267.40940  24967361.85740
 96  9 13  5 23 30.0100000  0  9  2  3 10 16 18 19 27 29 31
  -3810640.90200  26763518.33800  -2866748.22040  26763523.43540
  -1354977.76500  26304034.67400   1714632.98340  26304038.97540
  -2205873.54600  26905369.49400  -1103778.89340  26905374.29940
  -3541467.04600  26521180.63500  -1978556.43840  26521184.91240
  -8633573.41600  23427963.01000  -6649814.67240  23427966.58440
 -10921898.82800  23711106.80700  -8417233.93540  23711110.63940
  -8847719.04400  25419228.11900  -6814346.11440  25419232.06840
  23440835.28000  26497238.58000  18265585.18840  26497242.84640
  -9340811.00800  24964381.71300  -7183455.65940  24964385.41640
 96  9 13  5 24  0.0100000  0  9  2  3 10 16 18 19 27 29 31
  -3867423.68700  26752713.26800  -2910994.53740  26752718.00240
  -1301010.41100  26314304.36900   1756685.47640  26314308.34240
  -2220337.64600  26902616.73600  -1115049.59240  26902621.72840
  -3552942.97100  26518996.42400  -1987498.71540  26519001.56840
  -8566019.32200  23440818.32200  -6597175.12940  23440822.04940
 -10912825.95100  23712833.66600  -8410164.15640  23712837.67440
  -8885660.78100  25412008.25200  -6843911.11440  25412012.01440
  23562962.74400  26520479.07200  18360749.42940  26520483.04540
  -9355877.11500  24961514.49400  -7195195.46940  24961518.02140
 96  9 13  5 24 30.0100000  0  9  2  3 10 16 18 19 27 29 31
  -3923920.69900  26741962.40800  -2955018.17940  26741967.51840
  -1246436.95300  26324689.40800   1799210.25640  26324692.68940
  -2234227.21700  26899973.36900  -1125872.64340  26899978.13940
  -3563819.69400  26516926.83800  -1995974.08740  26516932.40440
  -8497920.90400  23453776.95500  -6544111.43640  23453780.69340
 -10903528.43600  23714602.77500  -8402919.33640  23714606.57240
  -8923472.80200  25404813.03300  -6873375.01940  25404816.83040
  23685341.57400  26543766.83800  18456109.55040  26543770.76440
  -9370358.47400  24958758.78300  -7206479.62640  24958762.28740
 96  9 13  5 25  0.0100000  0  9  2  3 10 16 18 19 27 29 31
  -3980164.13200  26731259.15000  -2998844.19740  26731264.48240
  -1191279.62000  26335185.62700   1842190.00340  26335189.54140
  -2247548.51800  26897438.47800  -1136252.85040  26897443.54140
  -3574125.60600  26514965.76800  -2004004.64840  26514970.67840
  -8429267.19600  23466841.40800  -6490615.04440  23466845.05340
 -10893989.88900  23716418.05700  -8395486.69840  23716421.77140
  -8961146.34900  25397644.03300  -6902731.01540  25397647.99440
  23807960.54000  26567100.02500  18551656.76040  26567104.31440
  -9384270.61700  24956111.38500  -7217320.23640  24956115.08840
 96  9 13  5 25 30.0100000  0  9  2  3 10 16 18 19 27 29 31
  -4036170.14600  26720601.68200  -3042485.23540  26720606.96740
  -1135544.54300  26345791.62700   1885619.93540  26345795.18940
  -2260297.10300  26895012.70500  -1146186.80440  26895015.96340
  -3583863.97600  26513112.97800  -2011593.00040  26513117.29140
  -8360052.85100  23480012.43900  -6436681.79840  23480016.07240
 -10884201.29500  23718280.64300  -8387859.22040  23718284.47540
  -8998694.63600  25390498.60300  -6931989.41640  25390502.55340
  23930816.88100  26590479.19700  18647388.94540  26590483.19340
  -9397590.71200  24953576.68200  -7227699.50840  24953580.19740
 96  9 13  5 26  0.0100000  0  9  2  3 10 16 18 19 27 29 31
  -4091928.71900  26709991.04900  -3085933.44940  26709996.38140
  -1079232.28100  26356507.29900   1929499.63340  26356511.13140
  -2272472.00100  26892696.20500  -1155673.75540  26892700.27140
  -3593038.65700  26511366.61100  -2018742.10140  26511370.81840
  -8290295.50800  23493286.81400  -6382325.43840  23493290.43540
 -10874149.28600  23720193.47800  -8380026.48240  23720197.39340
  -9036126.89700  25383375.51800  -6961157.41040  25383379.42040
  24053903.27000  26613901.91600  18743300.41140  26613905.73640
  -9410317.84500  24951154.62700  -7237616.73740  24951157.94340
 96  9 13  5 26 30.0100000  0  9  2  3 10 16 18 19 27 29 31
  -4147439.27600  26699427.65000  -3129188.40140  26699432.94740
  -1022355.34500  26367330.46300   1973819.33240  26367333.92040
  -2284088.48000  26890485.79100  -1164725.55540  26890490.17440
  -3601656.82200  26509726.58800  -2025457.53440  26509731.52140
  -8220001.74000  23506663.27500  -6327551.08240  23506666.95540
 -10863831.10100  23722156.90800  -8371986.33840  23722160.72840
  -9073431.78000  25376276.77500  -6990226.14840  25376280.94740
  24177235.85400  26637371.21300  18839403.70640  26637374.84640
  -9422459.50400  24948844.33800  -7247077.74840  24948847.68940
 96  9 13  5 27  0.0100000  0  9  2  3 10 16 18 19 27 29 31
  -4202725.64200  26688906.63500  -3172268.65540  26688912.62340
   -964931.55300  26378258.07200   2018565.13940  26378261.95140
  -2295166.74200  26888377.90800  -1173357.93140  26888382.32640
  -3609725.34800  26508191.03300  -2031744.69340  26508195.48640
  -8149186.02100  23520139.11900  -6272370.01040  23520142.74040
 -10853268.75300  23724166.87700  -8363755.93640  23724170.73240
  -9110630.62000  25369197.93900  -7019212.25740  25369201.76040
  24300816.31100  26660887.68900  18935700.14540  26660891.46340
  -9434010.67100  24946646.15800  -7256078.64940  24946650.06040
 96  9 13  5 27 30.0100000  0  9  2  3 10 16 18 19 27 29 31
  -4257751.04100  26678436.23600  -3215145.55340  26678441.10040
   -906916.02800  26389297.86100   2063772.05340  26389301.68240
  -2305682.88900  26886376.48600  -1181552.32540  26886381.38540
  -3617211.42400  26506766.68900  -2037578.01940  26506771.38940
  -8077848.22400  23533714.29900  -6216782.12040  23533717.93240
 -10842444.52700  23726226.73600  -8355321.47540  23726230.54540
  -9147702.11800  25362143.63500  -7048099.11940  25362147.02140
  24424672.71000  26684456.60300  19032211.60440  26684460.21340
  -9444967.77600  24944560.80700  -7264616.63340  24944564.61540
 96  9 13  5 28  0.0100000  0  9  2  3 10 16 18 19 27 29 31
  -4312509.95100  26668015.39300  -3257814.81640  26668020.38540
   -848303.57000  26400451.66600   2109444.09940  26400455.70940
  -2315643.25000  26884480.42400  -1189313.63640  26884485.19340
  -3624139.18800  26505448.12700  -2042976.27040  26505452.58040
  -8005984.76600  23547389.41600  -6160784.62640  23547393.11940
 -10831356.89600  23728336.53300  -8346681.76140  23728340.21340
  -9184634.55600  25355115.39300  -7076877.63440  25355119.09640
  24548786.65700  26708074.76000  19128923.77040  26708078.63940
  -9455369.46100  24942581.76800  -7272721.82540  24942585.16640
 96  9 13  5 28 30.0100000  0  9  2  3 10 16 18 19 27 29 31
  -4367004.93400  26657645.60300  -3300278.42640  26657650.33840
   -789089.14900  26411719.72100   2155585.22140  26411723.79940
  -2325038.74800  26882693.30700  -1196634.80340  26882698.88540
  -3630504.28900  26504237.04100  -2047936.07440  26504242.06840
  -7933575.73900  23561168.22100  -6104362.00840  23561171.93540
 -10820007.80800  23730496.08000  -8337838.31740  23730499.79540
  -9221428.78200  25348113.58800  -7105548.45040  25348117.24440
  24673169.08900  26731744.29100  19225845.11540  26731747.76040
  -9465207.76400  24940709.51800  -7280388.02140  24940713.25640
 96  9 13  5 29  0.0100000  0  9  2  3 10 16 18 19 27 29 31
  -4421245.11500  26647323.93900  -3342543.45840  26647329.23640
   -729283.83000  26423100.55700   2202186.74740  26423104.13140
  -2333869.27500  26881012.43200  -1203515.72740  26881016.80340
  -3636310.37500  26503132.35300  -2052460.30840  26503137.18240
  -7860641.48200  23575047.30700  -6047530.13740  23575050.93940
 -10808428.09400  23732699.64300  -8328815.16440  23732703.38140
  -9258099.51900  25341135.54900  -7134123.03840  25341139.29940
  24797817.78800  26755464.03300  19322973.96640  26755467.57240
  -9474494.20000  24938942.34600  -7287624.18940  24938946.02540
 96  9 13  5 29 30.0100000  0  9  2  3 10 16 18 19 27 29 31
  -4475220.12900  26637052.77500  -3384601.89040  26637057.54540
   -668903.41300  26434590.53300   2249236.43540  26434593.96740
  -2342148.95700  26879436.34600  -1209967.43940  26879439.87340
  -3641560.36800  26502133.34600  -2056551.19640  26502138.26840
  -7787187.30500  23589025.25200  -5990293.12140  23589028.89640
 -10796633.92000  23734944.15800  -8319624.89640  23734948.00240
  -9294643.94100  25334181.37700  -7162599.19940  25334185.17440
  24922723.88000  26779232.64300  19420303.37840  26779235.87740
  -9483231.00100  24937279.59600  -7294432.07740  24937282.93540
 96  9 13  5 30  0.0100000  0  9  2  3 10 16 18 19 27 29 31
  -4528930.22100  26626832.43200  -3426453.88540  26626837.78740
   -607967.05200  26446186.22800   2296719.31940  26446189.56840
  -2349869.89200  26877967.61100  -1215983.71440  26877972.01840
  -3646247.42500  26501241.50200  -2060203.44840  26501245.70940
  -7713189.12300  23603106.44700  -5932632.20740  23603110.05740
 -10784628.56300  23737228.75200  -8310270.07840  23737232.53740
  -9331066.33300  25327250.65000  -7190980.26540  25327254.45940
  25047888.88700  26803051.19700  19517834.53940  26803054.93540
  -9491374.97400  24935729.83800  -7300778.02140  24935733.27140
 96  9 13  5 30 30.0100000  0  9  2  3 10 16 18 19 27 29 31
  -4582393.22300  26616658.51800  -3468113.35040  26616664.03740
   -546494.74800  26457883.75200   2344619.81740  26457888.10040
  -2357032.32000  26876604.81400  -1221564.81140  26876609.49040
  -3650352.50100  26500460.44700  -2063402.19340  26500464.80740
  -7638676.82300  23617285.53300  -5874570.67740  23617289.10740
 -10772431.57100  23739549.68200  -8300765.92140  23739553.44340
  -9367379.20000  25320340.30700  -7219275.99240  25320344.26840
  25173311.07600  26826918.10300  19615566.09040  26826920.84640
  -9498913.18700  24934295.18900  -7306651.93440  24934299.09240
